[[{"header":{"parameterUnit":"m.s-1","parameterCategory":1,"la1":30.6,"la2":28.766,"lo1":-90.7593,"lo2":-88.6598,"dy":0.0162,"dx":0.0183,"nx":116,"ny":114,"refTime":"2023-06-29T00:00:00:Z","depth":0,"parameterNumber":2,"parameterNumberName":"U-component_of_WINDS"},"data":[0.0,0.0,0.0,0.0,0.0,0.0,0.0,0.0,0.0,0.0,0.0,0.0,0.0,0.0,0.0,0.0,0.0,0.0,0.0,0.0,0.0,0.0,0.0,0.0,0.0,0.0,0.0,0.0,0.0,0.0,0.0,0.0,0.0,0.0,0.0,0.0,0.0,0.0,0.0,0.0,0.0,0.0,0.0,0.0,0.0,0.0,0.0,0.0,0.0,0.0,0.0,0.0,0.0,0.0,0.0,0.0,0.0,0.0,0.0,0.0,0.0,0.0,0.0,0.0,0.0,0.0,0.0,0.0,0.0,0.0,0.0,0.0,0.0,0.0,0.0,0.0,0.0,0.0,0.0,0.0,0.0,0.0,0.0,0.0,0.0,0.0,0.0,0.0,0.0,0.0,0.0,0.0,0.0,0.0,0.0,0.0,0.0,0.0,0.0,0.0,0.0,0.0,0.0,0.0,0.0,0.0,0.0,0.0,0.0,0.0,0.0,0.0,0.0,0.0,0.0,0.0,0.0,0.0,0.0,0.0,0.0,0.0,0.0,0.0,0.0,0.0,0.0,0.0,0.0,0.0,0.0,0.0,0.0,0.0,0.0,0.0,0.0,0.0,0.0,0.0,0.0,0.0,0.0,0.0,0.0,0.0,0.0,0.0,0.0,0.0,0.0,0.0,0.0,0.0,0.0,0.0,0.0,0.0,0.0,0.0,0.0,0.0,0.0,0.0,0.0,0.0,0.0,0.0,0.0,0.0,0.0,0.0,0.0,0.0,0.0,0.0,0.0,0.0,0.0,0.0,0.0,0.0,0.0,0.0,0.0,0.0,0.0,0.0,0.0,0.0,0.0,0.0,0.0,0.0,0.0,0.0,0.0,0.0,0.0,0.0,0.0,0.0,0.0,0.0,0.0,0.0,0.0,0.0,0.0,0.0,0.0,0.0,0.0,0.0,0.0,0.0,0.0,0.0,0.0,0.0,0.0,0.0,0.0,0.0,0.0,0.0,0.0,0.0,0.0,0.0,0.0,0.0,0.0,0.0,0.0,0.0,0.0,0.0,0.0,0.0,0.0,0.0,0.0,0.0,0.0,0.0,0.0,0.0,0.0,0.0,0.0,0.0,0.0,0.0,0.0,0.0,0.0,0.0,0.0,0.0,0.0,0.0,0.0,0.0,0.0,0.0,0.0,0.0,0.0,0.0,0.0,0.0,0.0,0.0,0.0,0.0,0.0,0.0,0.0,0.0,0.0,0.0,0.0,0.0,0.0,0.0,0.0,0.0,0.0,0.0,0.0,0.0,0.0,0.0,0.0,0.0,0.0,0.0,0.0,0.0,0.0,0.0,0.0,0.0,0.0,0.0,0.0,0.0,0.0,0.0,0.0,0.0,0.0,0.0,0.0,0.0,0.0,0.0,0.0,0.0,0.0,0.0,0.0,0.0,0.0,0.0,0.0,0.0,0.0,0.0,0.0,0.0,0.0,0.0,0.0,0.0,0.0,0.0,0.0,0.0,0.0,0.0,0.0,0.0,0.0,0.0,0.0,0.0,0.0,0.0,0.0,0.0,0.0,0.0,0.0,0.0,0.0,0.0,0.0,0.0,0.0,0.0,0.0,0.0,0.0,0.0,0.0,0.0,0.0,0.0,0.0,0.0,0.0,0.0,0.0,0.0,0.0,0.0,0.0,0.0,0.0,0.0,0.0,0.0,0.0,0.0,0.0,0.0,0.0,0.0,0.0,0.0,0.0,0.0,0.0,0.0,0.0,0.0,0.0,0.0,0.0,0.0,0.0,0.0,0.0,0.0,0.0,0.0,0.0,0.0,0.0,0.0,0.0,0.0,0.0,0.0,0.0,0.0,0.0,0.0,0.0,0.0,0.0,0.0,0.0,0.0,0.0,0.0,0.0,0.0,0.0,0.0,0.0,0.0,0.0,0.0,0.0,0.0,0.0,0.0,0.0,0.0,0.0,0.0,0.0,0.0,0.0,0.0,0.0,0.0,0.0,0.0,0.0,0.0,0.0,0.0,0.0,0.0,0.0,0.0,0.0,0.0,0.0,0.0,0.0,0.0,0.0,0.0,0.0,0.0,0.0,0.0,0.0,0.0,0.0,0.0,0.0,0.0,0.0,0.0,0.0,0.0,0.0,0.0,0.0,0.0,0.0,0.0,0.0,0.0,0.0,0.0,0.0,0.0,0.0,0.0,0.0,0.0,0.0,0.0,0.0,0.0,0.0,0.0,0.0,0.0,0.0,0.0,0.0,0.0,0.0,0.0,0.0,0.0,0.0,0.0,0.0,0.0,0.0,0.0,0.0,0.0,0.0,0.0,0.0,0.0,0.0,0.0,0.0,0.0,0.0,0.0,0.0,0.0,0.0,0.0,0.0,0.0,0.0,0.0,0.0,0.0,0.0,0.0,0.0,0.0,0.0,0.0,0.0,0.0,0.0,0.0,0.0,0.0,0.0,0.0,0.0,0.0,0.0,0.0,0.0,0.0,0.0,0.0,0.0,0.0,0.0,0.0,0.0,0.0,0.0,0.0,0.0,0.0,0.0,0.0,0.0,0.0,0.0,0.0,0.0,0.0,0.0,0.0,0.0,0.0,0.0,0.0,0.0,0.0,0.0,0.0,0.0,0.0,0.0,0.0,0.0,0.0,0.0,0.0,0.0,0.0,0.0,0.0,0.0,0.0,0.0,0.0,0.0,0.0,0.0,0.0,0.0,0.0,0.0,0.0,0.0,0.0,0.0,0.0,0.0,0.0,0.0,0.0,0.0,0.0,0.0,0.0,0.0,0.0,0.0,0.0,0.0,0.0,0.0,0.0,0.0,0.0,0.0,0.0,0.0,0.0,0.0,0.0,0.0,0.0,0.0,0.0,0.0,0.0,0.0,0.0,0.0,0.0,0.0,0.0,0.0,0.0,0.0,0.0,0.0,0.0,0.0,0.0,0.0,0.0,0.0,0.0,0.0,0.0,0.0,0.0,0.0,0.0,0.0,0.0,0.0,0.0,0.0,0.0,0.0,0.0,0.0,0.0,0.0,0.0,0.0,0.0,0.0,0.0,0.0,0.0,0.0,0.0,0.0,0.0,0.0,0.0,0.0,0.0,0.0,0.0,0.0,0.0,0.0,0.0,0.0,0.0,0.0,0.0,0.0,0.0,0.0,0.0,0.0,0.0,0.0,0.0,0.0,0.0,0.0,0.0,0.0,0.0,0.0,0.0,0.0,0.0,0.0,0.0,0.0,0.0,0.0,0.0,0.0,0.0,0.0,0.0,0.0,0.0,0.0,0.0,0.0,0.0,0.0,0.0,0.0,0.0,0.0,0.0,0.0,0.0,0.0,0.0,0.0,0.0,0.0,0.0,0.0,0.0,0.0,0.0,0.0,0.0,0.0,0.0,0.0,0.0,0.0,0.0,0.0,0.0,0.0,0.0,0.0,0.0,0.0,0.0,0.0,0.0,0.0,0.0,0.0,0.0,0.0,0.0,0.0,0.0,0.0,0.0,0.0,0.0,0.0,0.0,0.0,0.0,0.0,0.0,0.0,0.0,0.0,0.0,0.0,0.0,0.0,0.0,0.0,0.0,0.0,0.0,0.0,0.0,0.0,0.0,0.0,0.0,0.0,0.0,0.0,0.0,0.0,0.0,0.0,0.0,0.0,0.0,0.0,0.0,0.0,0.0,0.0,0.0,0.0,0.0,0.0,0.0,0.0,0.0,0.0,0.0,0.0,0.0,0.0,0.0,0.0,0.0,0.0,0.0,0.0,0.0,0.0,0.0,0.0,0.0,0.0,0.0,0.0,0.0,0.0,0.0,0.0,0.0,0.0,0.0,0.0,0.0,0.0,0.0,0.0,0.0,0.0,0.0,0.0,0.0,0.0,0.0,0.0,0.0,0.0,0.0,0.0,0.0,0.0,0.0,0.0,0.0,0.0,0.0,0.0,0.0,0.0,0.0,0.0,0.0,0.0,0.0,0.0,0.0,0.0,0.0,0.0,0.0,0.0,0.0,0.0,0.0,0.0,0.0,0.0,0.0,0.0,0.0,0.0,0.0,0.0,0.0,0.0,0.0,0.0,0.0,0.0,0.0,0.0,0.0,0.0,0.0,0.0,0.0,0.0,0.0,0.0,0.0,0.0,0.0,0.0,0.0,0.0,0.0,0.0,0.0,0.0,0.0,0.0,0.0,0.0,0.0,0.0,0.0,0.0,0.0,0.0,0.0,0.0,0.0,0.0,0.0,0.0,0.0,0.0,0.0,0.0,0.0,0.0,0.0,0.0,0.0,0.0,0.0,0.0,0.0,0.0,0.0,0.0,0.0,0.0,0.0,0.0,0.0,0.0,0.0,0.0,0.0,0.0,0.0,0.0,0.0,0.0,0.0,0.0,0.0,0.0,0.0,0.0,0.0,0.0,0.0,0.0,0.0,0.0,0.0,0.0,0.0,0.0,0.0,0.0,0.0,0.0,0.0,0.0,0.0,0.0,0.0,0.0,0.0,0.0,0.0,0.0,0.0,0.0,0.0,0.0,0.0,0.0,0.0,0.0,0.0,0.0,0.0,0.0,0.0,0.0,0.0,0.0,0.0,0.0,0.0,0.0,0.0,0.0,0.0,0.0,0.0,0.0,0.0,0.0,0.0,0.0,0.0,0.0,0.0,0.0,0.0,0.0,0.0,0.0,0.0,0.0,0.0,0.0,0.0,0.0,0.0,0.0,0.0,0.0,0.0,0.0,0.0,0.0,0.0,0.0,0.0,0.0,0.0,0.0,0.0,0.0,0.0,0.0,0.0,0.0,0.0,0.0,0.0,0.0,0.0,0.0,0.0,0.0,0.0,0.0,0.0,0.0,0.0,0.0,0.0,0.0,0.0,0.0,0.0,0.0,0.0,0.0,0.0,0.0,0.0,0.0,0.0,0.0,0.0,0.0,0.0,0.0,0.0,0.0,0.0,0.0,0.0,0.0,0.0,0.0,0.0,0.0,0.0,0.0,0.0,0.0,0.0,0.0,0.0,0.0,0.0,0.0,0.0,0.0,0.0,0.0,0.0,0.0,0.0,0.0,0.0,0.0,0.0,0.0,0.0,0.0,0.0,0.0,0.0,0.0,0.0,0.0,0.0,0.0,0.0,0.0,0.0,0.0,0.0,0.0,0.0,0.0,0.0,0.0,0.0,0.0,0.0,0.0,0.0,0.0,0.0,0.0,0.0,0.0,0.0,0.0,0.0,0.0,0.0,0.0,0.0,0.0,0.0,0.0,0.0,0.0,0.0,0.0,0.0,0.0,0.0,0.0,0.0,0.0,0.0,0.0,0.0,0.0,0.0,0.0,0.0,0.0,0.0,0.0,0.0,0.0,0.0,0.0,0.0,0.0,0.0,0.0,0.0,0.0,0.0,0.0,0.0,0.0,0.0,0.0,0.0,0.0,0.0,0.0,0.0,0.0,0.0,0.0,0.0,0.0,0.0,0.0,0.0,0.0,0.0,0.0,0.0,0.0,0.0,0.0,0.0,0.0,0.0,0.0,0.0,0.0,0.0,0.0,0.0,0.0,0.0,0.0,0.0,0.0,0.0,0.0,0.0,0.0,0.0,0.0,0.0,0.0,0.0,0.0,0.0,0.0,0.0,0.0,0.0,0.0,0.0,0.0,0.0,0.0,0.0,0.0,0.0,0.0,0.0,0.0,0.0,0.0,0.0,0.0,0.0,0.0,0.0,0.0,0.0,0.0,0.0,0.0,0.0,0.0,0.0,0.0,0.0,0.0,0.0,0.0,0.0,0.0,0.0,0.0,0.0,0.0,0.0,0.0,0.0,0.0,0.0,0.0,0.0,0.0,0.0,0.0,0.0,0.0,0.0,0.0,0.0,0.0,0.0,0.0,0.0,0.0,0.0,0.0,0.0,0.0,0.0,0.0,0.0,0.0,0.0,0.0,0.0,0.0,0.0,0.0,0.0,0.0,0.0,0.0,0.0,0.0,0.0,0.0,0.0,0.0,0.0,0.0,0.0,0.0,0.0,0.0,0.0,0.0,0.0,0.0,0.0,0.0,0.0,0.0,0.0,0.0,0.0,0.0,0.0,0.0,0.0,0.0,0.0,0.0,0.0,0.0,0.0,0.0,0.0,1.041,0.9886,0.0,0.0,0.0,0.0,0.0,0.0,0.0,0.0,0.0,0.0,0.0,0.0,0.0,0.0,0.0,0.0,0.0,0.0,0.0,0.0,0.0,0.0,0.0,0.0,0.0,0.0,0.0,0.0,0.0,0.0,0.0,0.0,0.0,0.0,0.0,0.0,0.0,0.0,0.0,0.0,0.0,0.0,0.0,0.0,0.0,0.0,0.0,0.0,0.0,0.0,0.0,0.0,0.0,0.0,0.0,0.0,0.0,0.0,0.0,0.0,0.0,0.0,0.0,0.0,0.0,0.0,0.0,0.0,0.0,0.0,0.0,0.0,0.0,0.0,0.0,0.0,0.0,0.0,0.0,0.0,0.0,0.0,0.0,0.0,0.0,0.0,0.0,0.0,0.0,0.0,0.0,0.0,0.0,0.0,0.0,0.0,0.0,0.0,0.0,0.0,0.0,0.0,0.0,0.0,0.0,0.0,0.0,0.0,0.0,0.0,0.0,0.0,0.0,0.0,1.3341,1.2586,0.0,0.0,0.0,0.0,0.0,0.0,0.0,0.0,0.0,0.0,0.0,0.0,0.0,0.0,0.0,0.0,0.0,0.0,0.0,0.0,0.0,0.0,0.0,0.0,0.0,0.0,0.0,0.0,0.0,0.0,0.0,0.0,0.0,0.0,0.0,0.0,0.0,0.0,0.0,0.0,0.0,0.0,0.0,0.0,0.0,0.0,0.0,0.0,0.0,0.0,0.0,0.0,0.0,0.0,0.0,0.0,0.0,0.0,0.0,0.0,0.0,0.0,0.0,0.0,0.0,0.0,0.0,0.0,0.0,0.0,0.0,0.0,0.0,0.0,0.0,0.0,0.0,0.0,0.0,0.0,0.0,0.0,0.0,0.0,0.0,0.0,0.0,0.0,0.0,0.0,0.0,0.0,0.0,0.0,0.0,0.0,0.0,0.0,0.0,0.0,0.0,0.0,0.0,0.0,0.0,0.0,0.0,0.0,1.409,1.4184,1.5098,1.4973,1.5705,1.706,1.6032,1.5429,1.5108,1.4468,0.0,0.0,0.0,0.0,0.0,0.0,0.0,0.0,0.0,0.0,0.0,0.0,0.0,0.0,0.0,0.0,0.0,0.0,0.0,0.0,0.0,0.0,0.0,0.0,0.0,0.0,0.0,0.0,0.0,0.0,0.0,0.0,0.0,0.0,0.0,0.0,0.0,0.0,0.0,0.0,0.0,0.0,0.0,0.0,0.0,0.0,0.0,0.0,0.0,0.0,0.0,0.0,0.0,0.0,0.0,0.0,0.0,0.0,0.0,0.0,0.0,0.0,0.0,0.0,0.0,0.0,0.0,0.0,0.0,0.0,0.0,0.0,0.0,0.0,0.0,0.0,0.0,0.0,0.0,0.0,0.0,0.0,0.0,0.0,0.0,0.0,0.7669,0.8153,0.0,0.0,0.0,0.0,0.0,0.0,0.0,0.0,0.0,0.0,0.0,0.0,0.0,1.0358,1.1971,1.3764,1.4744,1.4908,1.5415,1.4772,1.3227,1.466,1.5267,1.5196,1.5766,0.0,1.6112,1.5061,0.0,0.0,0.0,0.0,0.0,0.0,0.0,0.0,0.0,0.0,0.0,0.0,0.0,0.0,0.0,0.0,0.0,0.0,0.0,0.0,0.0,0.0,0.0,0.0,0.0,0.0,0.0,0.0,0.0,0.0,0.0,0.0,0.0,0.0,0.0,0.0,0.0,0.0,0.0,0.0,0.0,0.0,0.0,0.0,0.0,0.0,0.0,0.0,0.0,0.0,0.0,0.0,0.0,0.0,0.0,0.0,0.0,0.0,0.0,0.0,0.0,0.0,0.0,0.0,0.0,0.0,0.0,0.0,0.0,0.0,0.0,0.0,0.0,0.0,0.0,0.0,0.0,0.0,0.0,0.0,0.0,0.0,0.0,0.0,0.0,0.9537,1.0885,1.1496,1.1592,1.0886,0.0,0.0,0.0,0.0,0.0,0.0,0.0,0.0,0.0,1.532,1.4903,1.4781,1.5057,1.6918,1.6702,1.4449,1.4656,1.4104,1.2938,1.3818,1.4043,1.3771,1.4342,1.3983,1.317,1.505,1.5872,1.5742,0.0,0.0,0.0,0.0,1.004,1.0347,0.0,0.0,0.0,0.0,0.0,0.0,0.0,0.0,0.0,0.0,0.0,0.0,0.0,0.0,0.0,0.0,0.0,0.0,0.0,0.0,0.0,0.0,0.0,0.0,0.0,0.0,0.0,0.0,0.0,0.0,0.0,0.0,0.0,0.0,0.0,0.0,0.0,0.0,0.0,0.0,0.0,0.0,0.0,0.0,0.0,0.0,0.0,0.0,0.0,0.0,0.0,0.0,0.0,0.0,0.0,0.0,0.0,0.0,0.0,0.0,0.0,0.0,0.0,0.0,0.0,0.0,0.0,0.0,0.0,0.0,0.0,0.0,0.0,0.0,0.0,0.0,0.0,1.0891,1.2485,1.3169,1.332,1.2587,0.0,0.0,0.0,0.0,0.0,0.0,1.343,1.4886,1.6436,1.8129,1.8328,1.8216,1.7785,1.8462,1.7221,1.4054,1.3544,1.295,1.2307,1.2719,1.2828,1.2688,1.2528,1.1516,1.0301,1.4157,1.5269,1.4526,1.3996,1.3077,1.1903,1.104,1.1229,1.19,0.0,0.0,0.0,0.0,0.0,0.0,0.0,0.0,0.0,0.0,0.0,0.0,0.0,0.0,0.0,0.0,0.0,0.0,0.0,0.0,0.0,0.0,0.0,0.0,0.0,0.0,0.0,0.0,0.0,0.0,0.0,0.0,0.0,0.0,0.0,0.0,0.0,0.0,0.0,0.0,0.0,0.0,0.0,0.0,0.0,0.0,0.0,0.0,0.0,0.0,0.0,0.0,0.0,0.0,0.0,0.0,0.0,0.0,0.0,0.0,0.0,0.0,0.0,0.0,0.0,0.0,0.0,0.0,0.0,0.0,0.0,0.0,0.0,0.0,0.0,0.0,0.0,0.0,0.0,1.1703,1.3634,0.0,0.0,0.0,0.0,1.2853,1.3769,1.4995,1.6402,1.6944,1.7893,1.9465,1.9323,1.9534,2.0112,1.7709,1.5655,1.3983,1.266,1.1446,1.0486,1.1363,1.1908,1.2049,1.0539,0.953,0.9184,1.1956,1.2458,1.1632,1.2796,1.3425,1.3684,1.3758,1.3289,1.2683,0.0,0.0,0.0,0.0,0.0,0.0,0.0,0.0,0.0,0.0,0.0,0.0,0.0,0.0,0.0,0.0,0.0,0.0,0.0,0.0,0.0,0.0,0.0,0.0,0.0,0.0,0.0,0.0,0.0,0.0,0.0,0.0,0.0,0.0,0.0,0.0,0.0,0.0,0.0,0.0,0.0,0.0,0.0,0.0,0.0,0.0,0.0,0.0,0.0,0.0,0.0,0.0,0.0,0.0,0.0,0.0,0.0,0.0,0.0,0.0,0.0,0.0,0.0,0.0,0.0,0.0,0.0,0.0,0.0,0.0,0.0,0.0,0.0,0.0,0.0,0.0,0.0,0.0,0.0,1.3941,1.4513,0.0,1.4242,1.451,1.4641,1.4554,1.5659,1.6892,1.8241,1.89,1.9968,2.1552,2.0856,1.9781,1.8316,1.7289,1.4546,1.0179,0.9214,0.8557,0.8197,0.8511,0.7889,0.6525,0.5963,0.5176,0.4476,0.6558,0.8513,1.0237,1.0467,1.0574,1.0639,1.1022,1.1274,1.1425,0.0,0.0,0.0,0.0,0.0,0.0,0.0,0.0,0.0,0.0,0.0,0.0,0.0,0.0,0.0,0.0,0.0,0.0,0.0,0.0,0.0,0.0,0.0,0.0,0.0,0.0,0.0,0.0,0.0,0.0,0.0,0.0,0.0,0.0,0.0,0.0,0.0,0.0,0.0,0.0,0.0,0.0,0.9111,0.0,0.0,0.0,0.0,0.0,0.0,0.0,0.0,0.0,0.0,0.0,0.0,0.0,0.0,0.0,0.0,0.0,0.0,0.0,0.0,0.0,0.0,0.0,0.0,0.0,0.0,0.0,0.0,0.0,0.0,0.0,0.0,0.0,0.0,1.167,1.3142,1.5086,1.5256,1.5263,1.5453,1.5175,1.5161,1.5601,1.6766,1.793,1.9028,1.9654,2.0404,2.1251,2.0541,1.901,1.6574,1.5028,1.2052,0.7731,0.6945,0.6548,0.6416,0.6013,0.4508,0.2123,0.1429,0.0971,0.0886,0.2231,0.4323,0.6755,0.7817,0.8146,0.8093,0.8649,0.9415,1.0195,0.0,0.0,0.0,0.0,0.0,0.0,0.0,0.0,0.0,0.0,0.0,0.0,0.0,0.0,0.0,0.0,0.0,0.0,0.0,0.0,0.0,0.0,0.0,0.0,0.0,0.0,0.0,0.0,0.0,0.0,0.0,0.0,0.0,0.0,0.0,0.0,0.0,0.0,0.0,0.0,0.0,0.0,1.1135,0.0,0.0,0.0,0.0,0.0,0.0,0.0,0.0,0.0,0.0,0.0,0.0,0.0,0.0,0.0,0.0,0.0,0.0,0.0,0.0,0.0,0.0,0.0,0.0,0.0,0.0,0.0,0.0,0.0,0.0,0.0,0.0,0.0,1.0232,1.2047,1.3684,1.4917,1.5827,1.6297,1.6113,1.6155,1.6177,1.62,1.7177,1.8057,1.8711,1.9111,1.9059,1.8438,1.8266,1.7188,1.5146,1.1042,0.8296,0.6978,0.6134,0.553,0.5085,0.3982,0.2059,-0.0546,-0.2693,-0.2732,-0.1236,-0.0724,0.0042,0.1279,0.4928,0.6324,0.6424,0.7033,0.8008,0.9154,0.0,0.0,0.0,0.0,0.0,0.0,0.0,0.0,0.0,0.0,0.0,0.0,0.0,0.0,0.0,0.0,0.0,0.0,0.0,0.0,0.0,0.0,0.0,0.0,0.0,0.0,0.0,0.0,0.0,0.0,0.0,0.0,0.0,0.0,0.0,0.0,0.0,0.0,0.0,0.0,0.0,0.0,1.302,0.0,0.0,0.0,0.0,0.0,0.0,0.0,0.0,0.0,0.0,0.0,0.0,0.0,0.0,0.0,0.0,0.0,0.0,0.0,0.0,0.0,0.0,0.0,0.0,0.0,0.0,0.0,0.0,0.0,0.0,0.0,1.0009,1.1116,1.1699,1.2978,1.4499,1.6298,1.699,1.7535,1.8126,1.7818,1.7759,1.8098,1.7664,1.7436,1.7638,1.7317,1.7115,1.6978,1.6056,1.4058,1.093,1.0462,0.8942,0.6321,0.4865,0.3175,0.1443,0.1152,0.0131,-0.1509,-0.2953,-0.3356,-0.291,-0.2794,-0.1293,0.1039,0.2255,0.2717,0.2844,0.3667,0.5318,0.7263,0.0,0.0,0.0,0.0,0.0,0.0,0.0,0.0,0.0,0.0,0.0,0.0,0.0,0.0,0.0,0.0,0.0,0.0,0.0,0.0,0.0,0.0,0.0,0.0,0.0,0.0,0.0,0.0,0.0,0.0,0.0,0.0,0.0,0.0,0.0,0.0,0.0,0.0,0.0,0.0,0.0,0.0,1.5119,1.414,1.282,1.1521,1.1209,1.1246,1.1155,0.9542,0.0,0.0,0.0,0.0,0.0,0.0,0.0,0.0,0.0,0.0,0.0,0.0,0.0,0.0,0.0,0.0,0.0,0.0,0.0,0.0,0.0,0.0,0.0,0.0,1.2006,1.3491,1.4052,1.4881,1.5817,1.6997,1.7429,1.7833,1.8338,1.77,1.7331,1.7403,1.6779,1.6318,1.6139,1.5545,1.4967,1.444,1.3445,1.1438,0.8407,0.8919,0.78,0.5013,0.4033,0.1642,-0.1884,-0.1884,-0.2229,-0.2866,-0.3552,-0.3823,-0.3788,-0.3744,-0.2694,-0.0989,0.0,0.0,0.0,0.0,0.3601,0.5023,0.0,0.0,0.0,0.0,0.0,0.0,0.0,0.0,0.0,0.0,0.0,0.0,0.0,0.0,0.0,0.0,0.0,0.0,0.0,0.0,0.0,0.0,0.0,0.0,0.0,0.0,0.0,0.0,0.0,0.0,0.0,0.0,0.0,0.0,0.0,0.0,0.0,0.0,0.0,0.0,0.0,0.0,1.7264,1.6607,1.5468,1.4237,1.4392,1.3871,1.3036,1.2609,0.0,0.0,0.0,0.0,0.0,0.0,0.0,0.0,0.0,0.0,0.0,0.0,0.0,0.0,0.0,0.0,0.0,0.0,0.0,0.0,0.0,0.0,0.0,0.0,1.3819,1.5773,1.684,1.7234,1.7376,1.7287,1.7496,1.7655,1.7656,1.6746,1.6003,1.5608,1.5317,1.4967,1.4644,1.3863,0.0,0.0,0.0,0.9488,0.7228,0.7042,0.5853,0.3624,0.2981,0.0252,-0.4228,-0.4383,-0.4368,-0.4189,-0.4189,-0.4132,-0.4019,-0.3929,-0.3933,-0.3689,-0.1019,-0.0,0.0157,0.1947,0.2653,0.3021,0.0,0.0,0.0,0.0,0.0,0.0,0.0,0.0,0.0,0.0,0.0,0.0,0.0,0.0,0.0,0.0,0.0,0.0,0.0,0.0,0.0,0.0,0.0,0.0,0.0,0.0,0.0,0.0,0.0,0.0,0.0,0.0,0.0,0.0,0.0,0.0,0.0,0.0,0.0,0.0,0.0,0.0,1.9243,1.8467,1.7492,1.6558,1.5606,1.6207,1.6983,1.4434,1.4433,1.505,1.2635,0.0,0.0,0.0,0.0,0.0,0.0,0.0,0.0,0.0,0.0,0.0,0.0,0.0,0.0,0.0,0.0,0.0,0.0,0.0,0.0,1.462,1.6292,1.7745,1.8672,1.8862,1.8612,1.7781,1.8354,1.8774,1.8652,1.7767,1.7157,1.7057,1.5216,1.4066,1.3987,1.2778,1.1614,1.0492,0.9868,0.8784,0.7281,0.6896,0.5854,0.4229,-0.0612,0.0,-0.2675,-0.3789,-0.4193,-0.4026,-0.4026,-0.4022,-0.4019,-0.3973,-0.4029,-0.3853,-0.1098,-0.0129,-0.0123,0.1408,0.2376,0.3046,0.0,0.0,0.0,0.0,0.0,0.0,0.0,0.0,0.0,0.0,0.0,0.0,0.0,0.0,0.0,0.0,0.0,0.0,0.0,0.0,0.0,0.0,0.0,0.0,0.0,0.0,0.0,0.0,0.0,0.0,0.0,0.0,0.0,0.0,0.0,0.0,0.0,0.0,0.0,0.0,0.0,0.0,1.9362,1.9783,1.9286,1.8286,1.7541,1.7489,1.7557,1.6272,1.6363,1.6878,1.5613,1.4111,1.2375,0.0,0.0,0.0,0.0,0.0,0.0,0.0,0.0,0.0,0.0,0.0,0.0,0.0,0.0,1.2704,0.0,0.0,1.598,1.6949,1.8363,1.9434,1.9863,1.9922,1.959,1.868,1.871,1.8704,1.8487,1.7864,1.7269,1.68,1.5078,1.3886,1.3682,1.1688,1.0158,0.9253,0.8189,0.7072,0.6081,0.4941,0.4416,0.4451,-0.0111,-0.263,-0.3395,-0.4053,-0.4334,-0.425,-0.4243,-0.4239,-0.4239,-0.4239,-0.4254,-0.4076,-0.2778,-0.1431,-0.0092,0.0616,0.1906,0.3318,0.0,0.0,0.0,0.0,0.0,0.0,0.0,0.0,0.0,0.0,0.0,0.0,0.0,0.0,0.0,0.0,0.0,0.0,0.0,0.0,0.0,0.0,0.0,0.0,0.0,0.0,0.0,0.0,0.0,0.0,0.0,0.0,0.0,0.0,0.0,0.0,0.0,0.0,0.0,0.0,0.0,0.0,1.871,2.0143,2.0034,1.8988,1.8521,1.7624,1.6689,1.7184,1.7247,1.7217,1.7692,1.6911,1.5273,1.2477,1.1996,0.0,0.0,0.0,0.0,0.0,0.0,0.0,0.0,0.0,1.2868,1.4311,1.4735,1.51,1.5823,1.7137,1.8347,1.8938,2.0072,2.082,2.082,2.0742,2.0362,1.9437,1.9054,1.8721,1.8301,1.7803,1.7142,1.6287,1.4955,1.3934,1.3457,1.093,0.9075,0.8295,0.6899,0.5742,0.4816,0.3363,0.2947,0.3589,0.1143,-0.1426,-0.4056,-0.4047,-0.4219,-0.4565,-0.4524,-0.4546,-0.4519,-0.4519,-0.4395,-0.4294,-0.446,-0.3006,-0.0819,-0.0293,0.1203,0.2923,0.0,0.0,0.0,0.0,0.0,0.0,0.0,0.0,0.0,0.0,0.0,0.0,0.0,0.0,0.0,0.0,0.0,0.0,0.0,0.0,0.0,0.0,0.0,0.0,0.0,0.0,0.0,0.0,0.0,0.0,0.0,0.0,0.0,0.0,0.0,0.0,0.0,0.0,0.0,0.0,0.0,0.0,1.7926,1.8464,1.8414,1.7837,1.6562,1.5872,1.5584,1.5849,1.5936,1.6137,1.6971,1.677,1.5654,1.2816,0.0,1.1401,0.7149,0.6893,0.8031,0.8776,1.0339,1.2497,0.0,0.0,1.696,1.8379,1.9287,1.9584,1.8961,1.9915,2.0819,2.0917,2.1345,2.1738,2.1738,2.1406,2.0703,1.9677,1.9706,1.9609,1.9189,1.8408,1.7542,1.6583,1.5014,1.3754,1.2882,1.0784,0.9208,0.826,0.7215,0.6133,0.489,0.4446,0.2956,0.0494,0.0184,-0.0857,-0.2455,-0.245,-0.3297,-0.4753,-0.4728,-0.4589,-0.4519,-0.4519,-0.4515,-0.4453,-0.4467,-0.4294,-0.3698,-0.123,-0.005,0.055,0.0,0.0,0.0,0.0,0.0,0.0,0.0,0.0,0.0,0.0,0.0,0.0,0.0,0.0,0.0,0.0,0.0,0.0,0.0,0.0,0.0,0.0,0.0,0.0,0.0,0.0,0.0,0.0,0.0,0.0,0.0,0.0,0.0,0.0,0.0,0.0,0.0,0.0,0.0,0.0,0.0,0.0,1.6577,1.6212,1.5837,1.53,1.4814,1.4177,0.0,0.0,1.4538,1.5095,1.6669,1.6395,1.5257,1.3356,1.2545,0.0,0.997,0.9627,1.0327,0.0,1.4266,1.5939,1.8827,1.9664,2.0148,2.1006,2.1641,2.1953,2.1592,2.1973,2.2344,0.0,2.2295,2.1897,2.1034,2.0442,1.9528,1.8223,1.8065,1.8041,1.7805,1.742,1.6989,1.6306,1.4953,1.3663,1.2466,1.0425,0.8788,0.7601,0.663,0.5309,0.3654,0.4528,0.3332,-0.0,-0.0,-0.0316,-0.095,-0.0948,-0.2374,-0.4996,-0.4803,-0.4733,-0.4728,-0.4728,-0.4735,-0.4686,-0.4689,-0.4591,-0.4152,-0.1256,-0.0107,0.0054,0.0,0.0,0.0,0.0,0.0,0.0,0.0,0.0,0.0,0.0,0.0,0.0,0.0,0.0,0.0,0.0,0.0,0.0,0.0,0.0,0.0,0.0,0.0,0.0,0.0,0.0,0.0,0.0,0.0,0.0,0.0,0.0,0.0,0.0,0.0,0.0,0.0,0.0,0.0,0.0,0.0,0.0,1.5605,1.4643,1.3778,1.3087,1.3068,1.2281,0.0,0.0,1.2212,1.2709,1.4462,1.4517,1.3737,1.2469,1.1269,1.0567,1.16,1.1833,1.2573,1.6039,1.8052,1.965,2.1646,2.2451,2.2852,2.3154,2.2997,2.277,2.277,2.258,2.2368,2.212,2.2063,2.1504,2.0072,1.9277,1.8318,1.6804,1.6434,1.6164,1.5772,1.6323,1.639,1.5726,1.4805,1.3651,1.2117,1.0295,0.867,0.7308,0.6297,0.4773,0.2752,0.3476,0.2626,-0.0,-0.0,-0.0,-0.0,-0.0,-0.135,-0.3723,-0.4578,-0.4996,-0.5044,-0.5003,-0.489,-0.4804,-0.4265,-0.4267,-0.4249,-0.2037,-0.0741,-0.0,0.0,0.0,0.0,0.0,0.0,0.0,0.0,0.0,0.0,0.0,0.0,0.0,0.0,0.0,0.0,0.0,0.0,0.0,0.0,0.0,0.0,0.0,0.0,0.0,0.0,0.0,0.0,0.0,0.0,0.0,0.0,0.0,0.0,0.0,0.0,0.0,0.0,0.0,0.0,0.0,0.0,0.0,1.5284,1.4115,1.2883,1.1755,1.1179,0.0,0.0,0.0,0.8506,0.8123,0.9342,1.035,0.0,0.9219,0.737,0.6696,1.0391,1.2138,1.3717,1.7321,2.0948,2.374,2.4219,2.4658,2.498,2.499,2.3392,2.2007,2.2007,2.1355,2.05,1.9711,2.0262,2.0359,1.9297,1.8496,1.7481,1.6131,1.528,1.4435,1.3371,1.5332,1.6156,1.4894,1.4709,1.3682,1.1621,1.0353,0.9116,0.7846,0.6629,0.4913,0.2756,0.1014,0.0143,-0.0,-0.0,-0.0,-0.0,-0.0,-0.0067,-0.0334,-0.3851,-0.536,-0.5392,-0.5185,-0.5026,-0.475,-0.2985,-0.3208,-0.4476,-0.4408,-0.2495,-0.0,0.0,0.0,0.0,0.0,0.0,0.0,0.0,0.0,0.0,0.0,0.0,0.0,0.0,0.0,0.0,0.0,0.0,0.0,0.0,0.0,0.0,0.0,0.0,0.0,0.0,0.0,0.0,0.0,0.0,0.0,0.0,0.0,0.0,0.0,0.0,0.0,0.0,0.0,0.0,0.0,0.0,0.0,1.4376,1.283,1.1507,1.027,0.0,0.0,0.0,0.0,0.0,0.0,0.8142,0.0,0.0,0.7571,0.8176,0.9563,1.2391,1.5215,1.8027,2.0697,2.3452,2.5625,2.6045,2.6035,2.5781,2.5185,2.2725,2.0428,1.998,1.8091,1.681,1.7401,1.801,1.8269,1.762,1.7344,1.6483,1.4592,1.4163,0.0,1.2665,1.3845,1.4121,1.2956,1.3035,1.2064,0.9761,0.928,0.8418,0.7116,0.6475,0.5867,0.5132,0.1699,-0.0,-0.0,-0.0,-0.0,-0.0,-0.0,-0.0,-0.0071,-0.1262,-0.2513,-0.3698,-0.4999,-0.5438,-0.519,-0.4566,-0.3197,-0.1505,-0.1539,-0.0868,-0.0,0.0,0.0,0.0,0.0,0.0,0.0,0.0,0.0,0.0,0.0,0.0,0.0,0.0,0.0,0.0,0.0,0.0,0.0,0.0,0.0,0.0,0.0,0.0,0.0,0.0,0.0,0.0,0.0,0.0,0.0,0.0,0.0,0.0,0.0,0.0,0.0,0.0,0.0,0.0,0.0,0.0,0.0,1.2921,1.1365,0.9932,0.0,0.0,0.0,0.0,0.0,0.0,0.0,0.0,0.682,0.6644,0.7211,0.888,1.124,1.4411,1.764,2.0726,2.3476,2.5583,2.6875,2.6992,2.6689,2.5907,2.4162,2.1213,1.8479,1.7121,1.5116,1.3934,1.4847,1.5607,1.6055,1.5994,1.5901,1.539,1.4092,1.3432,1.2814,0.0,0.0,1.2284,1.1829,1.2132,1.1354,0.8979,0.8801,0.8205,0.6861,0.663,0.6411,0.6294,0.288,0.076,-0.0,-0.0,-0.0,-0.0,-0.0,-0.0,-0.0,-0.0,-0.0657,-0.1839,-0.3212,-0.4551,-0.5705,-0.5506,-0.3195,-0.0,-0.0,-0.0,-0.0,0.0,0.0,0.0,0.0,0.0,0.0,0.0,0.0,0.0,0.0,0.0,0.0,0.0,0.0,0.0,0.0,0.0,0.0,0.0,0.0,0.0,0.0,0.0,0.0,0.0,0.0,0.0,0.0,0.0,0.0,0.0,0.0,0.0,0.0,0.0,0.0,0.0,0.0,0.0,0.0,0.0,0.0,1.1053,0.9731,0.0,0.0,0.0,0.0,0.0,0.0,0.0,0.0,0.0,0.6259,0.7199,0.8352,0.9795,1.2003,1.6607,1.954,2.2091,2.5625,2.706,2.7559,2.7119,2.6602,2.5208,2.2069,1.8979,1.6132,0.0,0.0,1.1738,1.2247,1.3121,1.3965,1.4435,1.4342,1.4269,0.0,0.0,0.0,0.0,0.0,1.085,1.1352,1.206,1.1405,0.9169,0.8989,0.8466,0.7166,0.7017,0.6711,0.6344,0.4116,0.1969,-0.0,-0.0,-0.0,-0.0,-0.0,-0.0,-0.0,-0.0,-0.0,-0.0,-0.0,-0.2372,-0.5927,-0.5343,-0.3032,-0.0,-0.0,-0.0,-0.0,0.0,0.0,0.0,0.0,0.0,0.0,0.0,0.0,0.0,0.0,0.0,0.0,0.0,0.0,0.0,0.0,0.0,0.0,0.0,0.0,0.0,0.0,0.0,0.0,0.0,0.0,0.0,0.0,0.0,0.0,0.0,0.0,0.0,0.0,0.0,0.0,0.0,0.0,0.0,0.0,0.0,0.0,0.9169,0.0,0.0,0.0,0.0,0.0,0.0,0.0,0.0,0.0,0.0,0.9821,1.0884,1.3696,1.5861,1.8008,2.0857,2.3476,2.5761,2.707,2.751,2.7559,2.7119,2.4822,2.2314,2.0875,1.6159,1.2037,0.0,0.0,0.0,1.0436,1.2032,0.0,1.493,1.5297,0.0,1.3507,0.0,1.2226,1.0814,1.0632,1.0336,0.9657,0.9926,0.9552,0.8091,0.7998,0.7798,0.7482,0.7224,0.6994,0.69,0.2818,0.0498,-0.0,-0.0,-0.0,-0.0,-0.0,-0.0,-0.0,-0.0,-0.0,-0.0,-0.0,-0.0619,-0.1629,-0.1429,-0.0817,-0.0,-0.0,-0.0,-0.0,0.0,0.0,0.0,0.0,0.0,0.0,0.0,0.0,0.0,0.0,0.0,0.0,0.0,0.0,0.0,0.0,0.0,0.0,0.0,0.0,0.0,0.0,0.0,0.0,0.0,0.0,0.0,0.0,0.0,0.0,0.0,0.0,0.0,0.0,0.0,0.0,0.0,0.0,0.0,0.0,0.0,0.0,0.0,0.0,0.0,0.0,0.0,0.0,0.0,0.0,0.0,0.9371,1.1533,1.3244,1.4949,1.7389,0.0,2.1759,2.374,2.5973,2.791,2.8154,2.7939,2.7143,2.5149,2.2691,1.9823,1.6564,1.2708,0.0,0.8528,0.7641,0.0,0.0,0.0,0.0,1.4763,1.5264,1.4948,0.0,1.2884,0.0,1.0306,0.974,0.9149,0.8596,0.9083,0.8906,0.7787,0.7692,0.7692,0.7692,0.7465,0.6797,0.5613,0.1856,-0.0,-0.0,-0.0,-0.0,-0.0,-0.0,-0.0,-0.0,-0.0,-0.0,-0.0,-0.0,-0.0,-0.0,-0.0,-0.0,-0.0,-0.0,-0.0,-0.0,0.0,0.0,0.0,0.0,0.0,0.0,0.0,0.0,0.0,0.0,0.0,0.0,0.0,0.0,0.0,0.0,0.0,0.0,0.0,0.0,0.0,0.0,0.0,0.0,0.0,0.0,0.0,0.0,0.0,0.0,0.0,0.0,0.0,0.0,0.0,0.0,0.0,0.0,0.0,0.0,0.0,0.0,0.0,0.0,0.0,0.0,0.0,0.0,0.0,0.0,1.02,1.2963,1.4392,1.6631,1.9111,2.0578,2.2364,2.425,2.5767,2.7558,2.8906,2.8848,2.8164,2.6487,2.2597,2.042,1.7462,1.1421,0.0,0.7949,0.6433,0.6404,0.7382,0.9693,0.0,1.2352,1.4169,1.4602,1.4466,1.3724,1.2431,1.117,0.9899,0.8726,0.8038,0.8038,0.8788,0.8898,0.7841,0.7841,0.7834,0.7814,0.7699,0.6478,0.4085,0.138,-0.0,-0.0,-0.0,-0.0,-0.0,-0.0,-0.0,-0.0,-0.0,-0.0338,-0.0928,-0.0907,-0.0735,-0.0407,-0.0156,-0.0,-0.0,-0.0,-0.0,-0.0,0.0,0.0,0.0,0.0,0.0,0.0,0.0,0.0,0.0,0.0,0.0,0.0,0.0,0.0,0.0,0.0,0.0,0.0,0.0,0.0,0.0,0.0,0.0,0.0,0.0,0.0,0.0,0.0,0.0,0.0,0.0,0.0,0.0,0.0,0.0,0.0,0.0,0.0,0.0,0.0,0.0,0.0,0.0,0.0,0.0,0.0,0.0,0.0,0.0,0.0,1.1662,1.4328,1.7565,2.0114,2.2492,2.5096,2.6338,2.7143,2.8047,2.8581,2.8838,2.8486,2.75,2.5605,2.1774,1.8127,0.0,0.0,0.7468,0.5601,0.5754,0.6189,0.7187,0.9176,1.0725,1.2217,1.3773,1.3818,1.335,0.0,1.1068,0.9801,0.8432,0.8137,0.0,0.8038,0.8113,0.8195,0.8001,0.7997,0.7851,0.7741,0.7838,0.7488,0.651,0.2178,-0.0,-0.0,-0.0,-0.0,-0.0,-0.0,-0.0,-0.0,-0.0,-0.2249,-0.5895,-0.5852,-0.4689,-0.2748,-0.0743,-0.0,-0.0,-0.0,-0.0,-0.0,0.0,0.0,0.0,0.0,0.0,0.0,0.0,0.0,0.0,0.0,0.0,0.0,0.0,0.0,0.0,0.0,0.0,0.0,0.0,0.0,0.0,0.0,0.0,0.0,0.0,0.0,0.0,0.0,0.0,0.0,0.0,0.0,0.0,0.0,0.0,0.0,0.0,0.0,0.0,0.0,0.0,0.0,0.0,0.0,0.0,0.0,0.0,0.0,0.0,0.0,1.0017,1.3469,1.8255,2.1062,2.2698,2.3486,2.5405,2.7125,2.6511,2.7873,2.9434,2.8779,2.7324,2.4716,1.9471,0.0,0.0,0.0,0.5468,0.4473,0.5178,0.5684,0.0,0.8093,0.9429,1.0912,1.2771,1.2532,0.0,1.1879,1.0779,0.9509,0.8137,0.8038,0.8038,0.8038,0.8038,0.8038,0.8038,0.8038,0.7912,0.7848,0.6561,0.5745,0.5501,0.1846,-0.0,-0.0,-0.0,-0.0,-0.0,-0.0,-0.0,-0.0,-0.0,-0.2743,-0.7109,-0.7132,-0.6446,-0.5299,-0.4137,-0.2166,-0.0,-0.0,-0.0,-0.0,0.0,0.0,0.0,0.0,0.0,0.0,0.0,0.0,0.0,0.0,0.0,0.0,0.0,0.0,0.0,0.0,0.0,0.0,0.0,0.0,0.0,0.0,0.0,0.0,0.0,0.0,0.0,0.125,0.0,0.0,0.0,0.0,0.0,0.0,0.0,0.0,0.0,0.0,0.0,0.0,0.0,0.0,0.0,0.0,0.0,0.0,0.0,0.0,0.0,0.0,0.7783,1.1573,1.6667,1.9537,2.0903,2.0667,2.3231,2.5894,2.4802,2.7132,2.9717,2.8867,2.7109,2.3855,1.7377,1.4387,0.0,0.5484,0.3963,0.3902,0.4619,0.0,0.5569,0.0,0.7799,0.9079,1.1233,1.0918,1.0647,0.0,1.0364,0.0,0.8137,0.8038,0.8038,0.8038,0.8038,0.8038,0.8038,0.8038,0.8041,0.8045,0.5929,0.432,0.3112,0.1092,-0.0,-0.0,-0.0,-0.0,-0.0,-0.0,-0.0,-0.0,-0.0,-0.2424,-0.6385,-0.691,-0.7121,-0.7094,-0.7076,-0.4507,-0.0675,-0.0169,-0.0,-0.0,0.0,0.0,0.0,0.0,0.0,0.0,0.0,0.0,0.0,0.0,0.0,0.0,0.0,0.0,0.0,0.0,0.0,0.0,0.0,0.0,0.0,0.0,0.0,0.0,0.0,0.0,0.0,0.1118,0.1367,0.0,0.0,0.0,0.0,0.0,0.0,0.3928,0.0,0.0,0.0,0.0,0.0,0.0,0.0,0.0,0.0,0.0,0.0,0.0,0.0,0.0,0.0,0.8781,1.1395,1.4221,1.7054,1.954,0.0,0.0,2.5702,2.7611,2.8838,2.7988,2.6445,2.3496,1.7042,0.0,1.0891,0.5126,0.368,0.3578,0.4076,0.3954,0.4254,0.0,0.0,0.6918,0.0,0.8686,0.8893,0.9914,0.0,0.0,0.8038,0.8038,0.8038,0.8038,0.8038,0.8038,0.8038,0.8038,0.8048,0.7969,0.7775,0.5338,0.0402,0.0101,-0.0,-0.0,-0.0,-0.0,-0.0,-0.0,-0.0,-0.0,-0.0,-0.1523,-0.4109,-0.618,-0.7068,-0.7126,-0.7136,-0.5545,-0.3022,-0.0777,-0.0,-0.0,0.0,0.0,0.0,0.0,0.0,0.0,0.0,0.0,0.0,0.0,0.0,0.0,0.0,0.0,0.0,0.0,0.0,0.0,0.0,0.0,0.0,0.0,0.0,0.0,0.0,0.0,0.0,0.0,0.1304,0.0,0.0,0.0,0.0,0.0,0.0,0.3894,0.4411,0.0,0.0,0.0,0.0,0.0,0.0,0.0,0.0,0.0,0.0,0.0,0.0,0.0,0.0,0.0,0.616,0.7502,0.0,0.0,1.7388,2.134,2.1066,2.4889,2.8721,2.7881,2.5771,2.2342,1.6543,0.0,0.9918,0.4714,0.3376,0.3175,0.3286,0.319,0.3349,0.0,0.0,0.0,0.7295,0.7045,0.7265,0.9153,0.8374,0.0,0.0,0.0,0.8038,0.8038,0.8038,0.8038,0.8038,0.8038,0.8048,0.7972,0.7985,0.6971,0.4845,0.1614,-0.0,-0.0,-0.0,-0.0,-0.0,-0.0,-0.0,-0.0,-0.0,-0.147,-0.3977,-0.6164,-0.7145,-0.7292,-0.7118,-0.6514,-0.5222,-0.1412,-0.0,-0.0,0.0,0.0,0.0,0.0,0.0,0.0,0.0,0.0,0.0,0.0,0.0,0.0,0.0,0.0,0.0,0.0,0.0,0.0,0.0,0.0,0.0,0.0,0.0,0.0,0.0,0.0,0.0,0.0,0.0,0.0,0.0,0.0,0.2461,0.317,0.0,0.0,0.0,0.0,0.0,0.0,0.0,0.0,0.0,0.0,0.0,0.0,0.0,0.0,0.0,0.0,0.0,0.0,0.0,0.0,0.0,0.0,1.2765,1.721,1.7058,2.1405,2.605,2.6426,2.3928,2.0346,0.0,0.0,0.8588,0.4281,0.3071,0.2763,0.2599,0.251,0.2671,0.0,0.0,0.3577,0.5762,0.5505,0.57,0.0,0.0,0.6898,0.7377,0.771,0.8038,0.8038,0.8038,0.8038,0.8038,0.8045,0.7955,0.7972,0.7992,0.8009,0.8026,0.2726,-0.0,-0.0,-0.0,-0.0,-0.0,-0.0,-0.0,-0.0,-0.0,-0.1027,-0.3029,-0.6122,-0.7379,-0.7207,-0.6412,-0.6459,-0.6656,-0.3315,-0.1236,-0.0,0.0,0.0,0.0,0.0,0.0,0.0,0.0,0.0,0.0,0.0,0.0,0.0,0.0,0.0,0.0,0.0,0.0,0.0,0.0,0.0,0.0,0.0,0.0,0.0,0.0,0.0,0.0,0.0,0.0,0.0,0.0,0.0,0.2606,0.283,0.0,0.0,0.0,0.0,0.0,0.0,0.0,0.0,0.0,0.0,0.0,0.0,0.0,0.0,0.0,0.0,0.0,0.0,0.0,0.0,0.0,0.0,0.8342,1.0921,1.5036,1.7474,1.9644,2.2903,2.0674,1.7069,0.0,0.0,0.7026,0.3755,0.2743,0.2311,0.2047,0.2006,0.2215,0.2812,0.0,0.0,0.3749,0.4065,0.42,0.0,0.0,0.5355,0.5858,0.7221,0.8038,0.8038,0.8038,0.8038,0.8038,0.7962,0.7972,0.7972,0.8006,0.8026,0.8026,0.2726,-0.0,-0.0,-0.0,-0.0,-0.0,-0.0,-0.0,-0.0,-0.0,-0.0,-0.0474,-0.5772,-0.7677,-0.6841,-0.4506,-0.502,-0.7135,-0.7045,-0.408,-0.0,0.0,0.0,0.0,0.0,0.0,0.0,0.0,0.0,0.0,0.0,0.0,0.0,0.0,0.0,0.0,0.0,0.0,0.0,0.0,0.0,0.0,0.0,0.0,0.0,0.0,0.0,0.0,0.0,0.0,0.0,0.0,0.0,0.0,0.0,0.3254,0.0,0.0,0.0,0.0,0.0,0.0,0.0,0.0,0.0,0.0,0.0,0.0,0.0,0.0,0.0,0.0,0.0,0.0,0.0,0.0,0.0,0.0,0.0,1.1199,1.4103,1.6899,1.7364,1.5686,1.3408,1.1106,0.0,0.5872,0.3442,0.2505,0.2111,0.2014,0.174,0.1767,0.2501,0.2153,0.0,0.0,0.0,0.0,0.5231,0.6351,0.7104,0.0,0.7703,0.8038,0.8038,0.8038,0.8038,0.8038,0.7962,0.7153,0.5327,0.7083,0.6279,0.2524,0.0808,-0.0,-0.0,-0.0,-0.0,-0.0,-0.0,-0.0,-0.0,-0.0,-0.0,-0.0097,-0.186,-0.4547,-0.748,-0.4718,-0.3038,-0.2598,-0.5944,-0.6106,-0.4812,0.0,0.0,0.0,0.0,0.0,0.0,0.0,0.0,0.0,0.0,0.0,0.0,0.0,0.0,0.0,0.0,0.0,0.0,0.0,0.0,0.0,0.0,0.0,0.0,0.0,0.0,0.0,0.0,0.0,0.0,0.0,0.0,0.0,0.0,0.0,0.0,0.0,0.0,0.0,0.0,0.0,0.0,0.2529,0.0,0.0,0.0,0.0,0.0,0.0,0.0,0.0,0.0,0.0,0.0,0.0,0.0,0.4651,0.0,0.0,1.0118,1.2355,1.3283,1.1836,0.0,0.0,0.0,0.0,0.0,0.2111,0.1749,0.1816,0.1469,0.1415,0.2109,0.1847,0.1867,0.0,0.0,0.0,0.4828,0.0,0.0,0.7209,0.7707,0.8038,0.8038,0.8038,0.8038,0.8038,0.7965,0.7263,0.5534,0.5144,0.333,-0.0,-0.0,-0.0,-0.0,-0.0,-0.0,-0.0,-0.0,-0.0,-0.0,-0.0,-0.0,0.0,-0.0,-0.1943,-0.4804,-0.2995,-0.1342,-0.0538,-0.531,-0.595,-0.4587,0.0,0.0,0.0,0.0,0.0,0.0,0.0,0.0,0.0,0.0,0.0,0.0,0.0,0.0,0.0,0.0,0.0,0.0,0.0,0.0,0.0,0.0,0.0,0.0,0.0,0.0,0.0,0.0,0.1779,0.2119,0.2063,0.0,0.0,0.0,0.0,0.0,0.0,0.0,0.0,0.0,0.0,0.0,0.0,0.0,0.0,0.0,0.0,0.0,0.0,0.0,0.0,0.0,0.0,0.0,0.0,0.0,0.0,0.0,0.0,0.0,0.0,0.0,0.0,0.0,0.0,0.0,0.0,0.0,0.0,0.0,0.1447,0.1197,0.1166,0.1709,0.1465,0.1349,0.0,0.2075,0.0,0.0,0.4994,0.5985,0.5916,0.7222,0.8038,0.8038,0.8038,0.8038,0.8038,0.7969,0.7885,0.7682,0.2916,0.0201,-0.0,-0.0,-0.0,-0.0,-0.0,-0.0,-0.0,-0.0,-0.0,-0.0,-0.0,-0.0,-0.0,-0.0,-0.0,-0.0,-0.0,-0.0,-0.0539,-0.5315,-0.4318,-0.0808,0.0,0.0,0.0,0.0,0.0,0.0,0.0,0.0,0.0,0.0,0.0,0.0,0.0,0.0,0.0,0.0,0.0,0.0,0.0,0.0,0.0,0.0,0.0,0.0,0.0,0.0,0.0,0.1153,0.1546,0.1984,0.2464,0.2856,0.0,0.0,0.0,0.0,0.0,0.0,0.0,0.0,0.0,0.0,0.0,0.0,0.0,0.0,0.2219,0.2263,0.0,0.0,0.0,0.0,0.0,0.0,0.0,0.0,0.2463,0.2853,0.3403,0.0,0.3782,0.4445,0.4,0.3391,0.0,0.0,0.0,0.0,0.0,0.0,0.0,0.0,0.0983,0.1635,0.1503,0.1488,0.1936,0.0,0.0,0.4732,0.6349,0.7452,0.7374,0.769,0.8038,0.8038,0.8038,0.8038,0.8038,0.8045,0.7042,0.5027,0.3715,0.2112,-0.0,-0.0,-0.0,-0.0,-0.0,-0.0,-0.0,-0.0,-0.0,-0.0,-0.0,-0.0,-0.0,-0.0,-0.0,-0.0,-0.0,-0.0,-0.0539,-0.5315,-0.6406,-0.5492,0.0,0.0,0.0,0.0,0.0,0.0,0.0,0.0,0.0,0.0,0.0,0.0,0.0,0.0,0.0,0.0,0.0,0.0,0.0,0.0,0.0,0.0,0.0,0.0,0.0,0.0,0.0,0.0,0.0,0.1987,0.0,0.0,0.0,0.0,0.0,0.0,0.0,0.0,0.0,0.0,0.3086,0.0,0.0,0.0,0.0,0.0,0.2464,0.2485,0.0,0.2495,0.2386,0.2212,0.0,0.0,0.0,0.0,0.2326,0.2517,0.258,0.2801,0.2946,0.269,0.2507,0.2341,0.0,0.0,0.0,0.0,0.0,0.0,0.0,0.0,0.0,0.0,0.1835,0.0,0.0,0.0,0.5381,0.5476,0.6917,0.7929,0.7916,0.7991,0.8038,0.8038,0.8038,0.8038,0.8038,0.8048,0.735,0.5839,0.4628,0.2718,-0.0,-0.0,-0.0,-0.0,-0.0,-0.0,-0.0,-0.0,-0.0,-0.0,-0.0,-0.0,-0.0,-0.0,-0.0,-0.0,-0.0,-0.1348,-0.3414,-0.4938,-0.6204,-0.7115,0.0,0.0,0.0,0.0,0.0,0.0,0.0,0.0,0.0,0.0,0.0,0.0,0.0,0.0,0.0,0.0,0.0,0.0,0.0,0.0,0.0,0.0,0.0,0.0,0.0,0.0,0.0,0.0,0.0,0.0,0.0,0.0,0.0,0.0,0.0,0.0,0.0,0.0,0.0,0.0,0.291,0.0,0.0,0.0,0.0,0.0,0.0,0.0,0.0,0.2495,0.225,0.2008,0.203,0.0,0.0,0.0,0.0,0.0,0.2471,0.2808,0.3072,0.2904,0.2606,0.2311,0.0,0.0,0.0,0.0,0.0,0.0,0.0,0.0,0.0,0.0,0.0,0.0,0.3668,0.4868,0.5654,0.5756,0.7008,0.7889,0.7994,0.8024,0.8038,0.8038,0.8038,0.8038,0.8038,0.7959,0.7972,0.7985,0.5443,0.272,-0.0,-0.0,-0.0,-0.0,-0.0,-0.0,-0.0,-0.0,-0.0,-0.0,-0.0,-0.0,-0.0,-0.0,-0.0,-0.0,-0.0,-0.2876,-0.6863,-0.4837,-0.5371,-0.7098,0.0,0.0,0.0,0.0,0.0,0.0,0.0,0.0,0.0,0.0,0.0,0.0,0.0,0.0,0.0,0.0,0.0,0.0,0.0,0.0,0.0,0.0,0.0,0.0,0.0,0.0,0.0,0.0,0.0,0.0,0.2911,0.3507,0.3745,0.0,0.0,0.0,0.0,0.3013,0.3137,0.313,0.3422,0.0,0.0,0.0,0.0,0.0,0.0,0.0,0.0,0.2376,0.218,0.1964,0.1803,0.0,0.0,0.0,0.0,0.0,0.241,0.2808,0.3109,0.2812,0.2447,0.2081,0.0,0.0,0.0,0.0,0.0,0.0,0.0,0.0,0.0,0.0,0.0,0.4096,0.0,0.0,0.615,0.5544,0.691,0.7963,0.7858,0.7963,0.8038,0.8038,0.8038,0.8038,0.8038,0.8041,0.7955,0.7975,0.5432,0.2712,-0.0,-0.0,-0.0,-0.0,-0.0,-0.0,-0.0,-0.0,-0.0,-0.0,-0.0,-0.0,-0.0,-0.0,-0.0,-0.0,-0.0,-0.288,-0.7068,-0.6659,-0.6828,-0.7098,0.0,0.0,0.0,0.0,0.0,0.0,0.0,0.0,0.0,0.0,0.0,0.0,0.0,0.0,0.0,0.0,0.0,0.0,0.0,0.0,0.0,0.0,0.0,0.0,0.0,0.0,0.0,0.0,0.0,0.2268,0.2807,0.3454,0.3788,0.3847,0.0,0.0,0.0,0.2619,0.2584,0.2831,0.0,0.0,0.0,0.0,0.0,0.0,0.0,0.0,0.0,0.0,0.2004,0.1806,0.1651,0.0,0.0,0.0,0.0,0.0,0.2404,0.2543,0.2669,0.2907,0.2643,0.2298,0.0,0.0,0.0,0.0,0.0,0.0,0.0,0.0,0.3362,0.4684,0.0,0.5412,0.5663,0.6433,0.6886,0.6649,0.7331,0.7923,0.7933,0.7997,0.8038,0.8038,0.8038,0.8038,0.8038,0.8038,0.8048,0.7972,0.6753,0.4203,-0.0,-0.0,-0.0,-0.0,-0.0,-0.0,-0.0,-0.0,-0.0,-0.0,-0.0,-0.0,-0.0,-0.0,-0.0,-0.0,-0.0,-0.1348,-0.3592,-0.6192,-0.7094,-0.7088,0.0,0.0,0.0,0.0,0.0,0.0,0.0,0.0,0.0,0.0,0.0,0.0,0.0,0.0,0.0,0.0,0.0,0.0,0.0,0.0,0.0,0.0,0.0,0.0,0.0,0.0,0.0,0.122,0.1829,0.2346,0.2796,0.3407,0.3772,0.0,0.0,0.0,0.0,0.2387,0.2245,0.2559,0.0,0.0,0.0,0.0,0.0,0.0,0.0,0.0,0.0,0.0,0.0,0.0,0.0,0.0,0.0,0.1927,0.1986,0.2057,0.2341,0.2278,0.2281,0.2796,0.0,0.2933,0.0,0.0,0.0,0.0,0.0,0.0,0.0,0.42,0.0,0.5783,0.6254,0.6629,0.7202,0.7455,0.7573,0.7689,0.7797,0.7913,0.8028,0.8038,0.8038,0.8038,0.8038,0.8038,0.8038,0.8038,0.8048,0.7972,0.7952,0.6072,0.1956,0.0585,-0.0,-0.0,-0.0,-0.0,-0.0,-0.0,-0.0,-0.0,-0.0,-0.0,-0.0,-0.0,-0.0,-0.0,-0.0,-0.0,-0.0536,-0.4736,-0.6631,-0.7081,0.0,0.0,0.0,0.0,0.0,0.0,0.0,0.0,0.0,0.0,0.0,0.0,0.0,0.0,0.0,0.0,0.0,0.0,0.0,0.0,0.0,0.0,0.0,0.0,0.0,0.0505,0.084,0.129,0.1906,0.2584,0.334,0.3521,0.3612,0.0,0.0,0.0,0.0,0.2758,0.2643,0.2506,0.2543,0.0,0.0,0.0,0.0,0.0,0.0,0.0,0.0,0.0,0.0,0.0,0.0,0.0,0.165,0.1854,0.2084,0.2249,0.215,0.2211,0.2247,0.211,0.0,0.0,0.0,0.0,0.0,0.0,0.0,0.0,0.0,0.6634,0.6294,0.6447,0.7048,0.7624,0.7933,0.7984,0.7994,0.8007,0.8018,0.8028,0.8038,0.8038,0.8038,0.8038,0.8038,0.8038,0.8038,0.8038,0.8048,0.7972,0.796,0.7798,0.7397,0.2506,-0.0,-0.0,-0.0,-0.0,-0.0,-0.0,-0.0,-0.0,-0.0,-0.0,-0.0,-0.0,-0.0,-0.0,-0.0,-0.0,-0.0268,-0.2856,-0.5275,-0.7081,0.0,0.0,0.0,0.0,0.0,0.0,0.0,0.0,0.0,0.0,0.0,0.0,0.0,0.0,0.0,0.0,0.0,0.0,0.0,0.0,0.0,0.0,0.0,0.0186,0.0538,0.0906,0.1234,0.1491,0.2125,0.2704,0.3217,0.3302,0.0,0.0,0.0,0.0,0.0,0.0,0.2096,0.225,0.2099,0.1951,0.0,0.0,0.0,0.0,0.0,0.0,0.0,0.0,0.1252,0.0,0.0,0.0,0.1713,0.1892,0.2,0.2088,0.2243,0.2472,0.2812,0.3423,0.0,0.0,0.0,0.0,0.0,0.0,0.0,0.0,0.0,0.0,0.6939,0.7004,0.7461,0.7804,0.8011,0.8038,0.8038,0.8038,0.8038,0.8038,0.8038,0.8038,0.8038,0.8038,0.8038,0.8038,0.8038,0.8038,0.8007,0.8034,0.6396,0.6316,0.8015,0.2724,-0.0,-0.0,-0.0,-0.0,-0.0,-0.0,-0.0,-0.0,-0.0,-0.0,-0.0,-0.0,-0.0,-0.0,-0.0,-0.0,-0.009,-0.0983,-0.3755,-0.7094,0.0,0.0,0.0,0.0,0.0,0.0,0.0,0.0,0.0,0.0,0.0,0.0,0.0,0.0,0.0,0.0,0.0,0.0,0.0,0.0,0.0,0.0,0.0,0.0206,0.0657,0.112,0.1433,0.1561,0.222,0.2686,0.2982,0.0,0.0,0.0,0.0,0.0,0.0,0.0,0.0,0.1963,0.1768,0.163,0.0,0.0,0.0,0.0,0.0,0.0,0.0,0.0,0.0,0.0,0.0,0.0,0.0,0.0,0.202,0.2076,0.2317,0.2592,0.2942,0.0,0.0,0.0,0.0,0.0,0.0,0.0,0.0,0.0,0.0,0.0,0.0,0.0,0.8464,0.8499,0.8612,0.8233,0.8038,0.8038,0.8038,0.8038,0.8038,0.8038,0.8038,0.8038,0.8038,0.8018,0.797,0.7967,0.7913,0.7987,0.5398,0.4464,0.548,0.1839,-0.0,-0.0,-0.0,-0.0,-0.0,-0.0,-0.0,-0.0,-0.0,-0.0,-0.0,-0.0,-0.0,-0.0,-0.0,-0.0,-0.0,-0.0,-0.2503,-0.6097,0.0,0.0,0.0,0.0,0.0,0.0,0.0,0.0,0.0,0.0,0.0,0.0,0.0,0.0,0.0,0.0,0.0,0.0,0.0,0.0,0.0,0.0,0.0,0.0454,0.0589,0.1061,0.1373,0.1512,0.2093,0.2507,0.2697,0.0,0.0,0.0,0.0,0.0,0.0,0.0,0.0,0.1689,0.1689,0.1629,0.1502,0.0,0.0,0.0,0.0,0.0,0.0,0.0,0.0,0.0,0.0,0.0,0.0,0.0,0.2153,0.2323,0.238,0.2468,0.0,0.0,0.0,0.0,0.0,0.0,0.0,0.0,0.0,0.0,1.0831,0.0,0.0,1.0778,1.0338,0.9998,0.9998,0.8825,0.8038,0.8038,0.8038,0.8038,0.8038,0.8038,0.8035,0.8035,0.8035,0.797,0.7818,0.7811,0.7859,0.7946,0.5413,0.2672,-0.0,-0.0,-0.0,-0.0,-0.0,-0.0,-0.0,-0.0,-0.0,-0.0,-0.0,-0.0,-0.0,-0.0,-0.0,-0.0,-0.0,-0.0,-0.0,-0.0,-0.1518,-0.3926,0.0,0.0,0.0,0.0,0.0,0.0,0.0,0.0,0.0,0.0,0.0,0.0,0.0,0.0,0.0,0.0,0.0,0.0,0.0,0.0,0.0,0.0,0.0,0.0,0.0,0.0,0.1476,0.1851,0.2072,0.2294,0.0,0.0,0.0,0.0,0.0,0.0,0.0,0.0,0.0,0.1781,0.1781,0.1629,0.141,0.0,0.0,0.0,0.0,0.0,0.0,0.0,0.0,0.0,0.0,0.0,0.0,0.1635,0.2044,0.2509,0.2469,0.3125,0.0,0.0,0.0,0.0,0.0,0.0,0.0,0.0,0.0,0.0,0.9683,1.0351,0.0,1.1251,1.0501,0.9845,0.9981,0.8825,0.8038,0.8038,0.8038,0.7997,0.7889,0.7879,0.7838,0.7736,0.7729,0.7709,0.7665,0.7662,0.7657,0.7713,0.5257,0.2668,-0.0,-0.0,-0.0,-0.0,-0.0,-0.0,-0.0,-0.0,-0.0,-0.0,-0.0,-0.0,-0.0,-0.0,-0.0,-0.0,-0.0,-0.0,-0.0,-0.0,-0.0432,-0.166,0.0,0.0,0.0,0.0,0.0,0.0,0.0,0.0,0.0,0.0,0.0,0.0,0.0,0.0,0.0,0.0,0.0,0.0,0.0,0.0,0.0,0.0,0.0,0.0,0.0,0.1142,0.1559,0.0,0.0,0.0,0.0,0.0,0.0,0.0,0.0,0.0,0.0,0.0,0.0,0.1803,0.1828,0.1673,0.1433,0.0,0.0,0.0,0.0,0.0,0.0,0.0,0.0,0.0,0.0,0.0,0.0,0.1335,0.1868,0.2444,0.2529,0.0,0.0,0.0,0.0,0.0,0.0,0.0,0.0,0.0,0.0,1.3446,1.1772,1.2199,0.0,1.2538,1.1387,1.0423,0.9964,0.8769,0.7865,0.7865,0.7865,0.7828,0.7736,0.7726,0.7692,0.7607,0.76,0.7546,0.7424,0.7417,0.7389,0.7386,0.5065,0.2584,-0.0,-0.0,-0.0,-0.0,-0.0,-0.0,-0.0,-0.0,-0.0,-0.0,-0.0,-0.0,-0.0,-0.0,-0.0,-0.0,-0.0,-0.0,-0.0,-0.0,-0.0,-0.0428,0.0,0.0,0.0,0.0,0.0,0.0,0.0,0.0,0.0,0.0,0.0,0.0,0.0,0.0,0.0,0.0,0.0,0.0,0.0,0.0,0.0,0.0,0.0,0.0,0.0,0.0,0.0,0.0,0.0,0.0,0.0,0.0,0.0,0.0,0.0,0.0,0.0,0.0,0.0,0.1828,0.1894,0.1765,0.1566,0.167,0.0,0.0,0.0,0.0,0.0,0.0,0.0,0.0,0.0,0.0,0.0,0.1062,0.1593,0.2247,0.0,0.0,0.0,0.0,0.0,0.0,0.0,0.0,0.0,0.0,0.0,1.517,1.5498,1.5304,1.48,1.4058,1.2674,1.1204,0.9975,0.8524,0.76,0.76,0.76,0.7594,0.758,0.758,0.7567,0.7543,0.7539,0.7411,0.7115,0.7099,0.7076,0.7087,0.4858,0.2506,-0.0,-0.0,-0.0,-0.0,-0.0,-0.0,-0.0,-0.0,-0.0,-0.0,-0.0,-0.0,-0.0,-0.0,-0.0,-0.0,-0.0,-0.0,-0.0,-0.0,-0.0,-0.0,0.0,0.0,0.0,0.0,0.0,0.0,0.0,0.0,0.0,0.0,0.0,0.0,0.0,0.0,0.0,0.0,0.0,0.0,0.0,0.0,0.0,0.0,0.0,0.0,0.0,0.0,0.0,0.0,0.0,0.0,0.0,0.0,0.0,0.0,0.0,0.0,0.0,0.0,0.0,0.0,0.2056,0.199,0.1898,0.1872,0.1743,0.0,0.0,0.0,0.0,0.0,0.0,0.0,0.0,0.083,0.0909,0.082,0.1355,0.2041,0.0,0.0,0.0,0.0,0.0,0.0,0.0,0.0,0.0,1.13,1.3347,1.5213,1.3887,1.4552,1.4963,1.3948,1.2434,1.0979,0.9766,0.8449,0.76,0.76,0.76,0.7553,0.7434,0.7421,0.7322,0.7092,0.7075,0.699,0.6803,0.6797,0.6812,0.6749,0.5149,0.2912,-0.0,-0.0,-0.0,-0.0,-0.0,-0.0,-0.0,-0.0,-0.0,-0.0,-0.0,-0.0,-0.0,-0.0,-0.0,-0.0,-0.0,-0.0,-0.0,-0.0,-0.0,-0.0,0.0,0.0,0.0,0.0,0.0,0.0,0.0,0.0,0.0,0.0,0.0,0.0,0.0,0.0,0.0,0.0,0.0,0.0,0.0,0.0,0.0,0.0,0.0,0.0,0.0,0.0,0.0,0.0,0.0,0.0,0.0,0.0,0.0,0.0,0.0,0.0,0.0,0.0,0.0,0.0,0.0,0.2096,0.1964,0.2048,0.1916,0.1677,0.1585,0.0,0.0,0.0,0.0,0.0,0.0,0.0,0.0746,0.0674,0.1169,0.1882,0.0,0.0,0.0,0.0,0.0,0.0,0.0,0.0,0.0,1.1908,1.3768,1.5147,1.3644,1.3975,1.3938,1.2024,1.0899,0.9831,0.8654,0.7811,0.7302,0.7373,0.738,0.7322,0.7173,0.716,0.7065,0.6837,0.682,0.6753,0.66,0.659,0.6589,0.6482,0.4789,0.3587,0.3018,0.1002,-0.0,-0.0,-0.0,-0.0,-0.0,-0.0,-0.0,-0.0,-0.0,-0.0,-0.0,-0.0,-0.0,-0.0,-0.0,-0.0,-0.0,-0.0,-0.0,-0.0,0.0,0.0,0.0,0.0,0.0,0.0,0.0,0.0,0.0,0.0,0.0,0.0,0.0,0.0,0.0,0.0,0.0,0.0,0.0,0.0,0.0,0.0,0.0,0.0,0.0,0.0,0.0,0.0,0.0,0.0,0.0,0.0,0.0,0.0,0.0,0.0,0.0,0.0,0.0,0.0,0.0,0.0,0.0,0.2202,0.211,0.185,0.1781,0.156,0.1296,0.1116,0.0,0.0,0.0,0.0,0.0595,0.0594,0.0995,0.1553,0.0,0.0,0.0,0.0,0.0,0.0,0.0,0.0,0.0,1.2608,1.3872,1.4469,1.3531,1.3275,1.2395,0.9815,0.9199,0.8582,0.7413,0.7044,0.6932,0.7051,0.7065,0.7017,0.6902,0.6892,0.6824,0.6671,0.6661,0.6597,0.6444,0.6493,0.6383,0.6324,0.4218,0.4141,0.631,0.28,0.0687,-0.0,-0.0,-0.0,-0.0,-0.0,-0.0,-0.0,-0.0,-0.0,-0.0,-0.0,-0.0,-0.0,-0.0,-0.0,-0.0,-0.0,-0.0,-0.0,0.0,0.0,0.0,0.0,0.0,0.0,0.0,0.0,0.0,0.0,0.0,0.0,0.0,0.0,0.0,0.0,0.0,0.0,0.0067,0.0,0.0,0.0593,0.0,0.0,0.0,0.0,0.0,0.0,0.0,0.0,0.0,0.0,0.0,0.0,0.0,0.0,0.0,0.0,0.0,0.0,0.0,0.0,0.0,0.0,0.2202,0.203,0.1736,0.1516,0.1343,0.1027,0.0894,0.0,0.0,0.0,0.0595,0.0594,0.0669,0.073,0.0,0.0,0.0,0.0,0.0,0.0,0.0,0.0,1.0575,0.0,1.1657,1.1957,1.1778,1.1447,1.0727,0.9393,0.8806,0.8077,0.6951,0.6756,0.6736,0.6756,0.6759,0.6753,0.6732,0.6729,0.6668,0.6515,0.6502,0.6441,0.6295,0.6329,0.6331,0.6317,0.422,0.4106,0.6298,0.5735,0.3607,-0.0,-0.0,-0.0,-0.0,-0.0,-0.0,-0.0,-0.0,-0.0,-0.0,-0.0,-0.0,-0.0,-0.0,-0.0,-0.0,-0.0,-0.0,-0.0,0.0,0.0,0.0,0.0,0.0,0.0,0.0,0.0,0.0,0.0,0.0,0.0,0.0,0.0,0.0,-0.02,-0.0133,-0.0,0.02,0.029,0.039,0.0537,0.067,0.0,0.0,0.0,0.0,0.0,0.0,0.0,0.0,0.2797,0.2958,0.0,0.0,0.0,0.0,0.0,0.0,0.0,0.0,0.0,0.0,0.0,0.2267,0.2126,0.1949,0.1697,0.1443,0.1298,0.1092,0.0899,0.0861,0.0,0.0,0.0,0.0569,0.0,0.0,0.0,0.0,0.0,0.0,0.0,0.0,0.0,0.8229,0.911,0.8964,0.8852,0.9864,0.9861,0.9276,0.8001,0.7529,0.716,0.6771,0.6627,0.6603,0.6692,0.6624,0.6539,0.6461,0.6376,0.6261,0.6108,0.6095,0.6071,0.6006,0.6099,0.5666,0.4571,0.4742,0.4217,0.2792,0.2749,0.1831,-0.0,-0.0,-0.0,-0.0,-0.0,-0.0,-0.0,-0.0,-0.0,-0.0,-0.0,-0.0,-0.0,-0.0,-0.0,-0.0,-0.0,-0.0,-0.0,0.0,0.0,0.0,0.0,0.0,0.0,0.0,0.0,0.0,0.0,0.0,0.0,0.0,0.0,0.0,0.0,-0.0089,0.0089,0.0312,0.029,0.0346,0.0513,0.0637,0.0729,0.0,0.0,0.0,0.0,0.0,0.0,0.2659,0.288,0.3226,0.0,0.3433,0.0,0.0,0.0,0.0,0.0,0.0,0.0,0.0,0.0,0.0,0.0,0.2248,0.1976,0.1726,0.1636,0.1364,0.1078,0.1101,0.0967,0.0,0.0,0.0,0.0,0.0,0.0,0.0,0.0,0.0,0.0,0.0,0.0,0.6339,0.0,0.6682,0.6503,0.7841,0.8164,0.7855,0.6767,0.6491,0.6444,0.6519,0.643,0.6386,0.6461,0.6373,0.6261,0.6156,0.604,0.5925,0.581,0.58,0.5803,0.5878,0.5929,0.529,0.3923,0.4397,0.3199,-0.0,-0.0,-0.0,-0.0,-0.0,-0.0,-0.0,-0.0,-0.0,-0.0,-0.0,-0.0,-0.0,-0.0,-0.0,-0.0,-0.0,-0.0,-0.0,-0.0,-0.0,-0.0,0.0,0.0,0.0,0.0,0.0,0.0,0.0,0.0,0.0,0.0,0.0,0.0,0.0,-0.0357,-0.0368,-0.0301,-0.0111,0.0111,0.0379,0.0446,0.0513,0.0593,0.0659,0.0,0.0706,0.0,0.0,0.0,0.0,0.0,0.2792,0.2934,0.3325,0.3879,0.3867,0.3594,0.3114,0.0,0.0,0.0,0.0,0.0,0.0,0.0,0.0,0.0,0.0,0.2362,0.2306,0.1982,0.1739,0.1583,0.1637,0.1425,0.1123,0.0,0.0,0.0,0.0,0.0,0.0,0.0,0.0,0.0,0.0,0.0,0.5514,0.5662,0.5693,0.5671,0.5902,0.6245,0.6447,0.6362,0.6278,0.6224,0.6084,0.6057,0.6003,0.5864,0.584,0.5833,0.5827,0.5817,0.581,0.58,0.58,0.5878,0.5967,0.5849,0.5926,0.6146,0.2327,0.0203,-0.0,-0.0,-0.0,-0.0,-0.0,-0.0,-0.0,-0.0,-0.0,-0.0,-0.0,-0.0,-0.0,-0.0,-0.0,-0.0,-0.0,-0.0,-0.0,-0.0,-0.0,-0.0,0.0,0.0,0.0,0.0,0.0,0.0,0.0,0.0,0.0,0.0,0.0,0.0,0.0,-0.0189,-0.0178,-0.0111,0.0033,0.02,0.039,0.0457,0.049,0.0468,0.0659,0.074,0.0706,0.0,0.0,0.0,0.0,0.2028,0.2553,0.276,0.2978,0.3135,0.3526,0.3635,0.3477,0.3565,0.0,0.0,0.0,0.0,0.0,0.0,0.0,0.0,0.0,0.0,0.27,0.2688,0.2463,0.2183,0.2166,0.184,0.1344,0.0734,0.057,0.0,0.0,0.0,0.0,0.0,0.0,0.0,0.0,0.4263,0.459,0.4547,0.4902,0.5176,0.5226,0.5637,0.5966,0.5966,0.5966,0.5945,0.5891,0.5884,0.5864,0.581,0.5722,0.5664,0.5664,0.5576,0.5521,0.5532,0.5525,0.5597,0.5617,0.4455,0.4406,0.5704,0.2013,-0.0,-0.0,-0.0,-0.0,-0.0,-0.0,-0.0,-0.0,-0.0,-0.0,-0.0,-0.0,-0.0,-0.0,-0.0,-0.0,-0.0,-0.0,-0.0,-0.0,-0.0,-0.0,-0.0,0.0,0.0,0.0,0.0,0.0,0.0,0.0,0.0,0.0,0.0,0.0,0.0,0.0,0.0,-0.0,0.0157,0.0266,0.0367,0.0459,0.0513,0.0524,0.0502,0.0695,0.0773,0.074,0.0,0.0,0.0,0.0,0.0,0.0,0.0,0.2822,0.2929,0.3274,0.0,0.0,0.0,0.0,0.3637,0.0,0.0,0.396,0.0,0.0,0.0,0.0,0.0,0.3208,0.3258,0.3045,0.2745,0.2672,0.222,0.1613,0.1014,0.0848,0.0,0.0976,0.0,0.0,0.0,0.0,0.0,0.3111,0.0,0.3872,0.412,0.4529,0.4857,0.4911,0.524,0.5538,0.5637,0.5735,0.5786,0.5739,0.5732,0.5711,0.5661,0.5572,0.5511,0.5511,0.542,0.5432,0.5372,0.5432,0.5372,0.5393,0.3657,0.3004,0.3575,0.1232,-0.0,-0.0,-0.0,-0.0,-0.0,-0.0,-0.0,-0.0,-0.0,-0.0,-0.0,-0.0,-0.0,-0.0,-0.0,-0.0,-0.0,-0.0,-0.0,-0.0,-0.0,-0.0,-0.0,0.0,0.0,0.0,0.0,0.0,0.0,0.0,0.0,0.0,0.0,0.0,0.0,0.0,0.0,0.0,0.0479,0.0563,0.0599,0.0608,0.0599,0.0631,0.0701,0.0779,0.0813,0.0807,0.0,0.0,0.0,0.0,0.0,0.0,0.0,0.2911,0.0,0.3152,0.3256,0.3515,0.0,0.4096,0.4115,0.0,0.429,0.4338,0.0,0.0,0.0,0.4201,0.3976,0.0,0.3649,0.0,0.0,0.0,0.2591,0.1947,0.1609,0.1141,0.0,0.0,0.0,0.0,0.0,0.0,0.0,0.2808,0.0,0.3388,0.4271,0.4588,0.4718,0.4877,0.4908,0.5006,0.5294,0.5586,0.5728,0.5589,0.5569,0.5515,0.5432,0.5415,0.5415,0.5415,0.5418,0.5422,0.5422,0.5425,0.5372,0.5393,0.3654,0.1835,0.0062,-0.0,-0.0,-0.0,-0.0,-0.0,-0.0,-0.0,-0.0,-0.0,-0.0,-0.0,-0.0,-0.0,-0.0,-0.0,-0.0,-0.0,-0.0,-0.0,-0.0,-0.0,-0.0,-0.0,-0.0,0.0,0.0,0.0,0.0,0.0,0.0,0.0,0.0,0.0,0.0,0.0,0.0,0.0,0.0,0.061,0.0708,0.069,0.0712,0.0813,0.0686,0.0674,0.0835,0.1045,0.1091,0.0,0.0,0.0,0.0,0.0,0.0,0.0,0.0,0.0,0.0,0.2998,0.3159,0.3302,0.357,0.0,0.0,0.4259,0.4387,0.0,0.0,0.0,0.0,0.0,0.4433,0.4175,0.4209,0.4073,0.3711,0.0,0.0,0.0,0.0,0.0,0.0,0.1041,0.0,0.0,0.0,0.0,0.0,0.204,0.0,0.1545,0.3397,0.3696,0.3803,0.4485,0.4677,0.4779,0.4863,0.5036,0.5148,0.5111,0.5104,0.5087,0.5047,0.504,0.504,0.504,0.5135,0.5264,0.5406,0.537,0.5372,0.5393,0.2432,0.0496,-0.0,-0.0,-0.0,-0.0,-0.0,-0.0,-0.0,-0.0,-0.0,-0.0,-0.0,-0.0,-0.0,-0.0,-0.0,-0.0,-0.0,-0.0,-0.0,-0.0,-0.0,-0.0,-0.0,-0.0,-0.0,0.0,0.0,0.0,0.0,0.0,0.0,0.0,0.0,0.0,0.0,0.0,0.0,0.0,0.0,0.0,0.092,0.0915,0.0953,0.1062,0.0961,0.097,0.1139,0.1271,0.134,0.1327,0.0,0.0,0.0,0.0,0.0,0.0,0.0,0.0,0.0,0.0,0.0,0.0,0.0,0.0,0.0,0.4279,0.0,0.0,0.4784,0.4709,0.0,0.0,0.0,0.4383,0.4457,0.4319,0.4025,0.0,0.0,0.0,0.0,0.0,0.0,0.0,0.0,0.0,0.0,0.0,0.0,0.1208,0.1009,0.1149,0.2594,0.2759,0.2911,0.3717,0.3615,0.3594,0.3925,0.4056,0.4287,0.483,0.4918,0.4918,0.4918,0.4918,0.4918,0.4918,0.4992,0.507,0.5269,0.5229,0.5226,0.5382,0.197,-0.0,-0.0,-0.0,-0.0,-0.0,-0.0,-0.0,-0.0,-0.0,-0.0,-0.0,-0.0,-0.0,-0.0,-0.0,-0.0,-0.0,-0.0,-0.0,-0.0,-0.0,-0.0,-0.0,-0.0,-0.0,-0.0,0.0,0.0,0.0,0.0,0.0,0.0,0.0,0.0,0.0,0.0,0.0,0.0,0.0,0.0,0.0,0.0,0.121,0.1283,0.138,0.1357,0.1384,0.1522,0.1485,0.1574,0.1801,0.0,0.0,0.0,0.0,0.0,0.0,0.0,0.0,0.0,0.0,0.0,0.0,0.0,0.0,0.4354,0.4324,0.4617,0.0,0.0,0.4717,0.4829,0.4745,0.4579,0.4515,0.4553,0.4411,0.4244,0.431,0.4078,0.3659,0.0,0.3046,0.0,0.0,0.0,0.0,0.0,0.0841,0.0,0.0648,0.1057,0.1549,0.1928,0.1918,0.2,0.2718,0.2224,0.195,0.2738,0.2928,0.3431,0.4687,0.4867,0.4867,0.4867,0.4867,0.4867,0.4867,0.4884,0.4945,0.5074,0.4982,0.4987,0.5097,0.2237,0.0406,-0.0,-0.0,-0.0,-0.0,-0.0,-0.0,-0.0,-0.0,-0.0,-0.0,-0.0,-0.0,-0.0,-0.0,-0.0,-0.0,-0.0,-0.0,-0.0,-0.0,-0.0,-0.0,-0.0,-0.0,-0.0,0.015,0.0,0.0,0.0,0.0,0.0,0.0,0.0,0.0,0.0,0.0,0.0,0.0,0.0,0.0,0.0,0.157,0.1626,0.185,0.1669,0.1579,0.1666,0.1801,0.1862,0.1806,0.2283,0.0,0.0,0.0,0.0,0.0,0.0,0.0,0.0,0.0,0.0,0.0,0.0,0.0,0.4785,0.4599,0.0,0.4674,0.4703,0.4619,0.4548,0.4532,0.4543,0.4553,0.4748,0.4573,0.4421,0.5112,0.4674,0.3951,0.4355,0.4026,0.0,0.0,0.0,0.2018,0.1394,0.1212,0.0,0.1496,0.1235,0.1172,0.1992,0.1617,0.1339,0.1867,0.1791,0.1695,0.1845,0.2481,0.333,0.4448,0.4551,0.4551,0.4551,0.4551,0.4551,0.4551,0.4663,0.4748,0.4775,0.4937,0.4502,0.3297,0.3957,0.3025,0.0112,-0.0,-0.0,-0.0,-0.0,-0.0,-0.0,-0.0,-0.0,-0.0,-0.0,-0.0,-0.0,-0.0,-0.0,-0.0,-0.0,-0.0,-0.0,-0.0,-0.0,-0.0,-0.0,-0.0,-0.0,0.0136,0.0,0.0,0.0,0.0,0.0,0.0,0.0,0.0,0.0,0.0,0.0,0.0,0.0,0.0,0.0,0.0,0.0,0.0,0.1924,0.1865,0.1903,0.1985,0.2066,0.2102,0.2501,0.2593,0.0,0.0,0.0,0.0,0.0,0.0,0.0,0.0,0.0,0.0,0.0,0.4095,0.4488,0.4521,0.0,0.5061,0.5085,0.4899,0.4681,0.4922,0.4787,0.4549,0.4714,0.4654,0.4719,0.5623,0.5167,0.4491,0.5135,0.4702,0.3794,0.3128,0.2808,0.2498,0.1924,0.1608,0.0,0.0,0.121,0.1056,0.2163,0.135,0.0583,0.1192,0.0808,0.0506,0.0862,0.1343,0.1969,0.2985,0.39,0.4519,0.4519,0.4519,0.4519,0.4519,0.4587,0.4575,0.4575,0.479,0.4216,0.2522,0.264,0.1881,0.0056,-0.0,-0.0,-0.0,-0.0,-0.0,-0.0,-0.0,-0.0,-0.0,-0.0,-0.0,-0.0,-0.0,-0.0,-0.0,-0.0,-0.0,-0.0,-0.0,-0.0,-0.0,-0.0,-0.0,-0.0,0.0066,0.0,0.0,0.0,0.0,0.0,0.0,0.0,0.0,0.0,0.0,0.0,0.0,0.0,0.0,0.0,0.0,0.0,0.0,0.2173,0.2165,0.2203,0.2158,0.2232,0.2425,0.2594,0.2651,0.0,0.0,0.0,0.0,0.0,0.0,0.0,0.0,0.0,0.0,0.0,0.0,0.4341,0.0,0.4854,0.5343,0.5369,0.5125,0.4831,0.5317,0.5164,0.4714,0.5018,0.5015,0.5113,0.6118,0.5795,0.5101,0.5754,0.5189,0.4185,0.3605,0.3228,0.289,0.2482,0.2022,0.1674,0.0,0.0,0.0,0.2032,0.0997,0.0074,0.0596,-0.0117,-0.0618,-0.008,0.0205,0.0628,0.1344,0.2859,0.3909,0.3909,0.3912,0.4041,0.4149,0.4371,0.4519,0.4519,0.4646,0.4143,0.2738,0.0949,-0.0,-0.0,-0.0,-0.0,-0.0,-0.0,-0.0,-0.0,-0.0,-0.0,-0.0,-0.0,-0.0,-0.0,-0.0,-0.0,-0.0,-0.0,-0.0,-0.0,-0.0,-0.0,-0.0,-0.0,-0.0,-0.0,-0.0,0.008,0.0,0.0,0.0,0.0,0.0,0.0,0.0,0.0,0.0,0.0,0.0,0.0,0.0,0.0,0.0,0.0,0.2792,0.2465,0.2364,0.2527,0.2377,0.2381,0.2565,0.2609,0.2579,0.2509,0.0,0.0,0.0,0.0,0.0,0.0,0.3249,0.0,0.0,0.0,0.4577,0.0,0.4847,0.4782,0.0,0.4816,0.4695,0.4681,0.5263,0.5433,0.5538,0.6504,0.6166,0.5645,0.6892,0.6552,0.5722,0.5996,0.5435,0.4638,0.4144,0.3674,0.3232,0.2763,0.2482,0.2208,0.1796,0.0,0.1535,0.1035,0.0,0.0272,0.0069,0.0,0.0,-0.0622,-0.0149,0.0316,0.0516,0.1207,0.1688,0.1734,0.1923,0.2262,0.2921,0.3924,0.4519,0.4519,0.4543,0.4442,0.4255,0.1562,-0.0,-0.0,-0.0,-0.0,-0.0,-0.0,-0.0,-0.0,-0.0,-0.0,-0.0,-0.0,-0.0,-0.0,-0.0,-0.0,-0.0,-0.0,-0.0,-0.0,-0.0,-0.0,-0.0,-0.0,-0.0,-0.0,-0.0078,0.009,0.0,0.0,0.0,0.0,0.0,0.0,0.0,0.0,0.0,0.0,0.0,0.0,0.0,0.0,0.0,0.2989,0.3228,0.2959,0.0,0.3213,0.2814,0.2686,0.2894,0.2736,0.2656,0.2681,0.2693,0.0,0.0,0.0,0.0,0.0,0.3515,0.0,0.4155,0.0,0.4578,0.0,0.0,0.5058,0.0,0.5504,0.6064,0.6352,0.6225,0.6145,0.6218,0.6905,0.6858,0.6737,0.7378,0.6945,0.6243,0.6442,0.5712,0.49,0.525,0.465,0.3965,0.4077,0.34,0.2617,0.2188,0.1852,0.1556,0.1281,0.0,0.0,0.0,0.0,0.0,0.0,-0.0314,-0.0251,-0.0539,-0.0297,0.0277,0.1228,0.1421,0.1837,0.278,0.2771,0.2951,0.3447,0.3568,0.3841,0.4491,0.3281,0.1785,0.0056,-0.0,-0.0,-0.0,-0.0,-0.0,-0.0,-0.0,-0.0,-0.0,-0.0,-0.0,-0.0,-0.0,-0.0,-0.0,-0.0,-0.0,-0.0,-0.0,-0.0,-0.0,-0.0,-0.0,-0.0,-0.01,0.0,0.0,0.0,0.0,0.0,0.0,0.0,0.0,0.0,0.0,0.0,0.3055,0.3061,0.0,0.0,0.3612,0.3546,0.3662,0.3331,0.3291,0.3679,0.3223,0.3001,0.3097,0.3022,0.2949,0.2915,0.0,0.0,0.0,0.0,0.0,0.0,0.0,0.4227,0.4614,0.0,0.4809,0.4863,0.5193,0.529,0.5323,0.6082,0.6801,0.7343,0.702,0.6912,0.7003,0.7516,0.765,0.7654,0.794,0.7622,0.7115,0.6819,0.6056,0.5457,0.611,0.5327,0.4522,0.5431,0.4322,0.3058,0.2988,0.2312,0.1675,0.1587,0.1168,0.0,0.0,0.0,0.0134,-0.0134,0.0,-0.0538,-0.0976,-0.1076,-0.0675,0.0448,0.0803,0.1229,0.2102,0.1679,0.1684,0.2415,0.2472,0.2891,0.388,0.4299,0.3515,0.1284,0.0451,-0.0,-0.0,-0.0,-0.0,-0.0,-0.0,-0.0,-0.0,-0.0,-0.0,-0.0,-0.0,-0.0,-0.0,-0.0,-0.0,-0.0,-0.0,-0.0,-0.0,-0.0,-0.0,-0.0,-0.0033,0.0114,0.0,0.0,0.0,0.0,0.0,0.0,0.0,0.0,0.0,0.0,0.0,0.0,0.0,0.0,0.4213,0.4045,0.4154,0.3515,0.3291,0.3679,0.3509,0.3301,0.3109,0.3457,0.3505,0.3186,0.0,0.0,0.0,0.0,0.0,0.0,0.0,0.4976,0.562,0.5367,0.5475,0.569,0.5031,0.5442,0.6489,0.5925,0.6082,0.675,0.7402,0.767,0.7818,0.8802,0.8726,0.8273,0.8695,0.8843,0.8533,0.7035,0.6573,0.6499,0.6362,0.5379,0.4827,0.6601,0.5114,0.3417,0.4233,0.3271,0.2037,0.1592,0.1343,0.1111,0.085,0.0639,0.0471,0.0,-0.0067,0.0,0.0,-0.0808,-0.1114,-0.1223,-0.0517,0.0039,0.0276,0.0976,0.1468,0.1611,0.1517,0.1755,0.2447,0.3749,0.4473,0.4333,0.1504,-0.0,-0.0,-0.0,-0.0,-0.0,-0.0,-0.0,-0.0,-0.0,-0.0,-0.0,-0.0,-0.0,-0.0,-0.0,-0.0,-0.0,-0.0,-0.0,-0.0,-0.0,-0.0,-0.0,0.0,0.0,0.0,0.0,0.0,0.0,0.0,0.1422,0.0,0.2462,0.2742,0.3315,0.4386,0.4536,0.4727,0.5226,0.4959,0.4765,0.4807,0.44,0.4245,0.4501,0.4171,0.398,0.3879,0.3763,0.357,0.3346,0.0,0.0,0.0,0.0,0.0,0.0,0.0,0.5027,0.0,0.0,0.0,0.0,0.0,0.5237,0.6209,0.6294,0.7004,0.8103,0.8321,0.8427,0.8551,0.9253,0.9361,0.9189,0.9198,0.9122,0.8901,0.7924,0.7491,0.728,0.7528,0.6673,0.5993,0.7094,0.5556,0.3926,0.4517,0.3519,0.2344,0.1848,0.1759,0.1623,0.1256,0.1065,0.0,0.0,0.0,0.0067,0.0,-0.0706,-0.0942,-0.1009,-0.1039,-0.0689,0.0116,-0.0152,-0.0153,0.0447,0.049,0.0806,0.1614,0.2589,0.3226,0.3514,0.317,0.2588,0.1819,0.0587,-0.0,-0.0,-0.0,-0.0,-0.0,-0.0,-0.0,-0.0,-0.0,-0.0,-0.0,-0.0,-0.0,-0.0,-0.0,-0.0,-0.0,-0.0,-0.0,-0.0,0.0409,0.0,0.0,0.0,0.0,0.0,0.0,0.1698,0.2148,0.2555,0.3188,0.3876,0.4582,0.4894,0.5171,0.5552,0.5336,0.515,0.5128,0.4831,0.4716,0.4904,0.4563,0.4352,0.4248,0.3999,0.3778,0.359,0.0,0.3639,0.0,0.0,0.0,0.0,0.0,0.5213,0.5885,0.5908,0.5897,0.0,0.0,0.5238,0.6105,0.6317,0.7176,0.8368,0.8374,0.8586,0.8878,0.9365,0.9593,0.9708,0.9624,0.9648,0.9532,0.8833,0.8417,0.8259,0.8505,0.7532,0.6685,0.7868,0.6178,0.44,0.5019,0.4061,0.2918,0.2524,0.2328,0.2082,0.179,0.1436,0.1191,0.0,0.0,0.0,0.0,-0.0571,-0.0706,-0.0739,-0.1074,-0.1,-0.0258,-0.084,-0.1037,-0.0479,-0.0445,-0.0,0.0927,0.1874,0.2478,0.2722,0.3957,0.4287,0.3468,0.2414,0.1286,-0.0,-0.0,-0.0,-0.0,-0.0,-0.0,-0.0,-0.0,-0.0,-0.0,-0.0,-0.0,-0.0,-0.0,-0.0,-0.0,-0.0,-0.0,-0.0,0.0793,0.0,0.0,0.0,0.0867,0.0,0.1274,0.2079,0.2566,0.2376,0.3506,0.4316,0.437,0.488,0.5325,0.561,0.5477,0.5321,0.5172,0.481,0.4694,0.4918,0.4718,0.4488,0.422,0.426,0.4138,0.3912,0.0,0.0,0.0,0.0,0.0,0.0,0.5108,0.0,0.6179,0.5677,0.5689,0.5911,0.5209,0.5391,0.6154,0.5982,0.6573,0.7492,0.7664,0.8156,0.8851,0.909,0.9439,0.9733,1.0027,1.0321,1.0428,0.9594,0.9338,0.9338,0.9338,0.7908,0.6894,0.8764,0.6837,0.478,0.5778,0.4894,0.3765,0.3542,0.3026,0.2508,0.2352,0.1786,0.1293,0.0,0.0,0.0,-0.037,-0.0472,-0.0472,-0.0504,-0.0708,-0.0877,-0.0875,-0.1076,-0.1179,-0.1111,-0.1179,-0.0735,0.0351,0.17,0.2367,0.2216,0.394,0.4894,0.49,0.5231,0.3606,0.0257,0.0061,-0.0,-0.0,-0.0,-0.0,-0.0,-0.0,-0.0,-0.0,-0.0,-0.0,-0.0,-0.0,-0.0,-0.0,-0.0,-0.0,-0.0,0.0588,0.0707,0.0831,0.0,0.0932,0.1071,0.1448,0.1699,0.2113,0.3011,0.3739,0.4465,0.5163,0.5691,0.6044,0.6084,0.5844,0.5671,0.563,0.5384,0.5178,0.5077,0.5111,0.5078,0.4805,0.4794,0.466,0.4365,0.4429,0.0,0.4312,0.0,0.0,0.0,0.0,0.0,0.6213,0.6375,0.6251,0.5869,0.4942,0.4952,0.5496,0.5062,0.5982,0.7492,0.7664,0.8156,0.8851,0.909,0.9439,0.9733,1.0027,1.0321,1.0561,1.0301,1.0301,1.011,0.9466,0.8462,0.7693,0.8195,0.656,0.4995,0.5835,0.5124,0.4229,0.3811,0.3698,0.3453,0.2623,0.2329,0.1994,0.1336,0.0878,0.0405,-0.0068,-0.0174,-0.0246,-0.0338,-0.0244,-0.0316,-0.0708,-0.0976,-0.1111,-0.111,-0.1179,-0.0748,0.0282,0.1781,0.2647,0.2626,0.4133,0.4882,0.4928,0.4775,0.4335,0.3611,0.1178,-0.0,-0.0,-0.0,-0.0,-0.0,-0.0,-0.0,-0.0,-0.0,-0.0,-0.0,-0.0,-0.0,-0.0,-0.0,-0.0,-0.0,0.0574,0.0814,0.1045,0.1038,0.1142,0.1297,0.1607,0.2116,0.2716,0.3266,0.4299,0.5084,0.5312,0.5793,0.6034,0.5973,0.5749,0.561,0.561,0.5454,0.5321,0.5237,0.525,0.5174,0.497,0.4772,0.461,0.4518,0.4547,0.0,0.4427,0.0,0.0,0.0,0.0,0.5497,0.5842,0.6069,0.6049,0.5713,0.4996,0.4901,0.0,0.4791,0.5492,0.6622,0.6735,0.761,0.8851,0.909,0.9439,0.9733,1.0027,1.0321,1.0624,1.0624,1.0624,1.0491,0.9977,0.8935,0.8027,0.8027,0.657,0.5234,0.5664,0.5279,0.4793,0.4553,0.4398,0.4128,0.3522,0.2968,0.2288,0.1448,0.0943,0.0612,0.06,0.0429,0.0214,-0.0,0.0035,-0.0035,-0.0371,-0.0653,-0.0829,-0.091,-0.0976,-0.0503,0.0535,0.1375,0.2098,0.2796,0.3594,0.3856,0.3451,0.3627,0.3766,0.393,0.2841,0.1559,-0.0,-0.0,-0.0,-0.0,-0.0,-0.0,-0.0,-0.0,-0.0,-0.0,-0.0,-0.0,-0.0,-0.0,-0.0,-0.0,0.064,0.0968,0.0,0.0,0.144,0.1662,0.1785,0.2788,0.3498,0.3302,0.4728,0.5577,0.5074,0.547,0.5752,0.563,0.5481,0.5466,0.5416,0.5449,0.5435,0.5459,0.5243,0.5094,0.4948,0.4596,0.4405,0.4496,0.4441,0.4464,0.0,0.0,0.0,0.0,0.0,0.0,0.0,0.537,0.5462,0.5444,0.5046,0.4901,0.5014,0.4901,0.5113,0.5487,0.5487,0.6789,0.8579,0.8802,0.9143,0.9434,0.9652,0.9998,1.0231,1.0231,1.0231,1.0231,1.0231,0.9064,0.7832,0.7832,0.6597,0.5428,0.5428,0.5428,0.5428,0.5428,0.5024,0.4651,0.4613,0.3565,0.2408,0.1608,0.1166,0.106,0.1375,0.1199,0.0925,0.0589,0.0452,0.0,0.0136,-0.0211,-0.0496,-0.0675,-0.0706,-0.0291,0.0684,0.0652,0.1166,0.2316,0.2678,0.2388,0.1405,0.1878,0.2219,0.2358,0.3967,0.3221,0.0574,0.0187,-0.0,-0.0,-0.0,-0.0,-0.0,-0.0,-0.0,-0.0,-0.0,-0.0,-0.0,-0.0,-0.0,-0.0,0.0665,0.0,0.0,0.0,0.1783,0.1847,0.2313,0.2303,0.2609,0.3561,0.4224,0.4736,0.5031,0.5538,0.5789,0.5766,0.5633,0.5599,0.5718,0.5498,0.5416,0.5545,0.5403,0.525,0.5098,0.4918,0.472,0.4406,0.4722,0.4798,0.4607,0.0,0.0,0.0,0.0,0.0,0.5639,0.5462,0.5211,0.4927,0.4671,0.457,0.4629,0.457,0.4948,0.5487,0.5487,0.6145,0.7003,0.7226,0.7512,0.7752,0.7926,0.8159,0.8479,0.8479,0.8479,0.8479,0.8479,0.7697,0.6915,0.6915,0.6141,0.5428,0.5428,0.5428,0.5428,0.5428,0.5321,0.5077,0.4522,0.3416,0.2551,0.2326,0.1928,0.1621,0.1568,0.2007,0.2234,0.1903,0.1845,0.1561,0.0874,0.0035,-0.0509,-0.0538,-0.0639,-0.065,-0.0567,0.0275,0.0472,-0.0139,0.1835,0.2058,0.0301,-0.0388,-0.0264,0.0447,0.0772,0.1888,0.3607,0.1162,-0.0,-0.0,-0.0,-0.0,-0.0,-0.0,-0.0,-0.0,-0.0,-0.0,-0.0,-0.0,-0.0,-0.0,0.0752,0.0,0.0,0.0,0.1687,0.1804,0.2096,0.2297,0.2277,0.1893,0.3064,0.4273,0.5143,0.5521,0.5661,0.5579,0.5511,0.5501,0.5569,0.5365,0.5274,0.5348,0.5209,0.506,0.4904,0.488,0.4723,0.4379,0.462,0.4633,0.45,0.0,0.0,0.0,0.0,0.5468,0.0,0.5273,0.5046,0.4823,0.4616,0.4519,0.4519,0.4519,0.468,0.5003,0.5003,0.5222,0.5652,0.6735,0.7203,0.735,0.7694,0.7876,0.8027,0.8027,0.8027,0.8027,0.8027,0.7372,0.6719,0.6719,0.6075,0.5428,0.5428,0.5428,0.5428,0.5428,0.5428,0.5202,0.4596,0.4036,0.355,0.3217,0.2756,0.2443,0.244,0.2692,0.2769,0.251,0.2226,0.1775,0.1029,0.0394,-0.0101,-0.037,-0.0437,-0.0516,-0.069,-0.0298,-0.0081,-0.0095,0.0572,0.0712,0.0335,-0.0317,-0.0583,-0.0361,-0.0128,0.0775,0.2106,0.0638,-0.0,-0.0,-0.0,-0.0,-0.0,-0.0,-0.0,-0.0,-0.0,-0.0,-0.0,-0.0,-0.0,-0.0,0.0885,0.1011,0.0,0.1106,0.1362,0.172,0.1953,0.245,0.2096,0.0217,0.1995,0.3892,0.5266,0.5477,0.5494,0.5439,0.5428,0.5415,0.5315,0.5199,0.5114,0.5087,0.4979,0.4847,0.4694,0.4691,0.4612,0.4415,0.445,0.4451,0.4478,0.4768,0.0,0.0,0.0,0.5291,0.5351,0.5058,0.4918,0.4824,0.474,0.4736,0.4736,0.4736,0.4736,0.4684,0.4608,0.4567,0.4777,0.6329,0.6791,0.6889,0.731,0.7442,0.7442,0.7442,0.7442,0.7442,0.7442,0.692,0.6396,0.6396,0.5881,0.5428,0.5428,0.5428,0.5428,0.5428,0.5428,0.5291,0.4862,0.4648,0.4429,0.3972,0.3489,0.3197,0.3148,0.3243,0.324,0.2957,0.2541,0.2043,0.1337,0.0896,0.0439,-0.0103,-0.0135,-0.0248,-0.0434,-0.0681,-0.046,0.0244,-0.0244,-0.0247,0.0357,0.0425,0.0126,-0.0527,-0.0194,-0.0,-0.0,-0.0,-0.0,-0.0,-0.0,-0.0,-0.0,-0.0,-0.0,-0.0,-0.0,-0.0,-0.0,-0.0,-0.0,-0.0,0.1008,0.0,0.0946,0.0756,0.1061,0.1613,0.2515,0.2427,0.1743,0.0217,0.1595,0.348,0.5218,0.5389,0.5446,0.5428,0.5428,0.5301,0.5162,0.5138,0.5074,0.4945,0.4925,0.4847,0.4694,0.4691,0.4659,0.4477,0.4455,0.4485,0.467,0.4889,0.5266,0.5678,0.5475,0.5305,0.5221,0.5198,0.4937,0.4604,0.516,0.5433,0.5433,0.5433,0.5433,0.5348,0.4844,0.467,0.4773,0.5192,0.5206,0.5214,0.5524,0.5624,0.5624,0.5624,0.5624,0.5624,0.5624,0.5557,0.5491,0.5491,0.5491,0.5428,0.5428,0.5428,0.5428,0.5428,0.5428,0.5352,0.5325,0.4905,0.4461,0.4141,0.3853,0.348,0.3058,0.3811,0.4187,0.367,0.3427,0.308,0.2597,0.1674,0.0928,0.0469,0.0138,-0.0108,-0.0291,-0.0476,-0.0596,-0.0768,0.0087,0.0276,-0.0318,0.1089,0.1175,-0.0066,-0.0,-0.0,-0.0,-0.0,-0.0,-0.0,-0.0,-0.0,-0.0,-0.0,-0.0,-0.0,-0.0,-0.0,-0.0,-0.0,-0.0,-0.0,0.0397,0.0606,0.0749,0.0786,0.0823,0.1062,0.1837,0.2109,0.165,0.0218,0.0637,0.2198,0.5065,0.5382,0.5369,0.5428,0.5277,0.5196,0.5135,0.505,0.4938,0.4789,0.4782,0.4711,0.4558,0.4555,0.458,0.4519,0.4264,0.4365,0.4756,0.4714,0.4921,0.5272,0.5119,0.494,0.4709,0.4754,0.4684,0.4515,0.4787,0.4893,0.4893,0.4893,0.5164,0.5513,0.5474,0.5427,0.5428,0.5767,0.5468,0.5084,0.5294,0.5428,0.5428,0.5428,0.5428,0.5428,0.5428,0.5428,0.5428,0.5428,0.5428,0.5428,0.5428,0.5428,0.5428,0.5428,0.5428,0.5428,0.5428,0.5272,0.509,0.4732,0.472,0.4451,0.3648,0.432,0.4541,0.3685,0.3694,0.3667,0.3411,0.2234,0.1533,0.1617,0.0826,0.0173,-0.0111,-0.0152,-0.0329,-0.0651,-0.0384,-0.0461,-0.0793,0.0237,0.0247,-0.0832,-0.0265,-0.0,-0.0,-0.0,-0.0,-0.0,-0.0,-0.0,-0.0,-0.0,-0.0,-0.0,-0.0,-0.0,-0.0,-0.0,-0.0,-0.0,-0.0064,0.0187,0.0425,0.062,0.0586,0.0678,0.1106,0.1378,0.1191,0.0146,-0.0,0.115,0.4239,0.5109,0.5372,0.5428,0.526,0.5179,0.5135,0.5036,0.4914,0.4765,0.4758,0.4684,0.4587,0.4584,0.4584,0.4584,0.4273,0.4389,0.4811,0.4639,0.4699,0.4965,0.4854,0.4638,0.4483,0.4539,0.456,0.4515,0.4736,0.4787,0.4787,0.4787,0.5109,0.5513,0.5588,0.5574,0.5612,0.591,0.5665,0.5216,0.5328,0.5428,0.5428,0.5428,0.5428,0.5428,0.5428,0.5428,0.5428,0.5428,0.5428,0.5428,0.5428,0.5428,0.5428,0.5428,0.5428,0.5428,0.5428,0.5488,0.5474,0.5061,0.5233,0.5084,0.4021,0.4607,0.4797,0.3805,0.3843,0.394,0.3924,0.2818,0.2156,0.238,0.1464,0.0649,0.0144,0.0039,-0.0127,-0.0327,-0.0581,-0.0776,-0.0915,-0.0527,-0.0546,-0.0952,-0.0331,-0.0,-0.0,-0.0,-0.0,-0.0,-0.0,-0.0,-0.0,-0.0,-0.0,-0.0,-0.0,-0.0,-0.0,-0.0,-0.0,-0.0,-0.0077,-0.0,-0.0,-0.0,0.0411,0.0674,0.0674,0.0353,-0.0,-0.0,-0.0,0.0694,0.2552,0.4359,0.5372,0.5428,0.5425,0.5294,0.5142,0.5128,0.5064,0.4921,0.4914,0.4847,0.4691,0.4687,0.4687,0.4687,0.4587,0.465,0.4922,0.4703,0.4822,0.5204,0.4857,0.4684,0.4684,0.4687,0.4602,0.457,0.5218,0.5483,0.5483,0.5483,0.5487,0.5458,0.4916,0.4789,0.4938,0.5081,0.5233,0.5425,0.5428,0.5428,0.5428,0.5428,0.5428,0.5428,0.5428,0.5428,0.5428,0.5428,0.5428,0.5428,0.5428,0.5428,0.5428,0.5428,0.5428,0.5428,0.5428,0.5488,0.5376,0.4804,0.5169,0.5109,0.3939,0.4663,0.504,0.4267,0.3997,0.4031,0.4275,0.348,0.2815,0.2413,0.2013,0.1378,0.0462,0.0154,-0.0,-0.0,-0.0207,-0.0351,-0.0532,-0.0907,-0.0755,-0.0,-0.0,-0.0,-0.0,-0.0,-0.0,-0.0,-0.0,-0.0,-0.0,-0.0,-0.0,-0.0,-0.0,-0.0,-0.0,-0.0,-0.0,-0.0,-0.0077,-0.0,-0.0,-0.0,0.0151,0.0224,0.022,0.0073,-0.0,-0.0,-0.0,0.0205,0.0826,0.3601,0.5396,0.5386,0.5415,0.5392,0.5279,0.5202,0.5067,0.4925,0.5013,0.4945,0.4697,0.4691,0.4691,0.4691,0.4594,0.4652,0.491,0.4958,0.4951,0.4959,0.4797,0.4633,0.4591,0.4591,0.4563,0.4515,0.4732,0.4853,0.4955,0.4955,0.5304,0.5839,0.5844,0.5746,0.5662,0.5888,0.5605,0.5203,0.5203,0.5277,0.5428,0.5428,0.5428,0.5428,0.5428,0.5428,0.5428,0.5428,0.5428,0.5428,0.5428,0.5428,0.5428,0.5428,0.5428,0.5459,0.5498,0.5637,0.5586,0.5071,0.5488,0.5467,0.4301,0.4796,0.4996,0.4229,0.4257,0.4438,0.4565,0.3946,0.3477,0.3374,0.2609,0.165,0.0549,0.0401,0.024,-0.0,-0.0054,-0.0113,-0.0183,-0.0597,-0.0557,-0.0,-0.0,-0.0,-0.0,-0.0,-0.0,-0.0,-0.0,-0.0,-0.0,-0.0,-0.0,-0.0,-0.0,-0.0,-0.0,-0.0,-0.0,-0.0,-0.0078,-0.0,-0.0,-0.0,-0.0,-0.0,-0.0,-0.0,-0.0,-0.0,-0.0,-0.0,-0.0,0.2052,0.3636,0.4303,0.4623,0.4903,0.537,0.5236,0.5118,0.5087,0.5064,0.4965,0.4779,0.4721,0.4663,0.4606,0.4565,0.4674,0.4921,0.5064,0.5026,0.483,0.4796,0.466,0.4519,0.4519,0.4519,0.4519,0.4519,0.4577,0.4613,0.467,0.5038,0.5553,0.5715,0.567,0.5593,0.5755,0.5524,0.5142,0.5199,0.5284,0.5428,0.5428,0.5428,0.5428,0.5428,0.5428,0.5428,0.5428,0.5428,0.5428,0.5428,0.5428,0.5428,0.5428,0.5428,0.5459,0.5488,0.5623,0.561,0.527,0.5627,0.557,0.4644,0.5026,0.5161,0.4366,0.4509,0.4707,0.4833,0.4426,0.4135,0.4027,0.3205,0.2117,0.0678,0.0546,0.0414,0.022,0.0058,-0.0,-0.0,-0.0312,-0.0318,-0.0,-0.0,-0.0,-0.0,-0.0,-0.0,-0.0,-0.0,-0.0,-0.0,-0.0,-0.0,-0.0,-0.0,-0.0,-0.0,-0.0,-0.0,-0.0,-0.0,-0.0,-0.0,-0.0,-0.0,-0.0,-0.0,-0.0,-0.0,-0.0,-0.0,-0.0,-0.0,-0.0,0.0672,0.2344,0.3009,0.3949,0.5312,0.5233,0.5213,0.5355,0.5098,0.4945,0.4935,0.4782,0.4629,0.4532,0.4619,0.4769,0.4921,0.5053,0.4962,0.4697,0.484,0.4741,0.4519,0.4519,0.4522,0.4532,0.4522,0.4536,0.458,0.4657,0.4711,0.4721,0.4721,0.4799,0.4904,0.4904,0.4999,0.5142,0.5284,0.5411,0.5428,0.5428,0.5428,0.5428,0.5428,0.5428,0.5428,0.5428,0.5428,0.5428,0.5428,0.5428,0.5428,0.5428,0.5428,0.5432,0.5442,0.5494,0.5542,0.5466,0.5606,0.5583,0.5003,0.5277,0.5349,0.4748,0.4686,0.486,0.5121,0.488,0.4636,0.4419,0.3846,0.276,0.0933,0.0648,0.0523,0.0487,0.0168,-0.0,-0.0,-0.0,-0.0,-0.0,-0.0,-0.0,-0.0,-0.0,-0.0,-0.0,-0.0,-0.0,-0.0,-0.0,-0.0,-0.0,-0.0,-0.0,-0.0,-0.0,-0.0,-0.0,-0.0314,-0.0,-0.0,-0.0,-0.0,-0.0,-0.0,-0.0,-0.0,-0.0,-0.0,-0.0,-0.0,-0.0,0.0202,0.0605,0.0737,0.2143,0.5199,0.5352,0.5269,0.5166,0.5232,0.5203,0.5084,0.4938,0.4792,0.4636,0.4674,0.4769,0.4918,0.4952,0.487,0.4694,0.4728,0.464,0.4519,0.4519,0.4584,0.4626,0.4567,0.4667,0.4965,0.4894,0.4931,0.5026,0.5026,0.4904,0.4745,0.4745,0.4847,0.4975,0.5013,0.5179,0.5428,0.5428,0.5428,0.5428,0.5428,0.5428,0.5428,0.5428,0.5428,0.5428,0.5428,0.5428,0.5428,0.5428,0.5428,0.5463,0.5515,0.5566,0.5579,0.5542,0.5596,0.5538,0.5232,0.5188,0.5192,0.5128,0.5047,0.5061,0.5298,0.5254,0.5018,0.4575,0.4786,0.3911,0.1589,0.101,0.0558,0.0128,0.0064,-0.0,-0.0,-0.0,-0.0,-0.0,-0.0,-0.0,-0.0,-0.0,-0.0,-0.0,-0.0,-0.0,-0.0,-0.0,-0.0,-0.0,-0.0,-0.0,-0.0,-0.0,-0.0,-0.0,-0.0392,-0.0,-0.0,-0.0,-0.0,-0.0,-0.0,-0.0,-0.0,-0.0,-0.0,-0.0,-0.0,-0.0,-0.0,-0.0,-0.0,0.0804,0.282,0.3716,0.448,0.5212,0.5142,0.5182,0.5237,0.4955,0.4772,0.4691,0.4619,0.4629,0.4711,0.4782,0.4731,0.4589,0.466,0.4606,0.4519,0.4519,0.4551,0.4684,0.4599,0.4755,0.5033,0.502,0.5064,0.5121,0.5057,0.4931,0.4796,0.4796,0.485,0.4942,0.5077,0.5233,0.5428,0.5428,0.5428,0.5428,0.5428,0.5428,0.5428,0.5428,0.5428,0.5428,0.5428,0.5428,0.5428,0.5428,0.5428,0.5452,0.5471,0.5488,0.5488,0.5488,0.5498,0.5446,0.5369,0.5268,0.5268,0.5332,0.5278,0.5307,0.5411,0.5428,0.5294,0.5001,0.4882,0.4377,0.3428,0.1897,0.0715,-0.0,-0.0,-0.0,-0.0,-0.0,-0.0,-0.0,-0.0,-0.0,-0.0,-0.0,-0.0,-0.0,-0.0,-0.0,-0.0,-0.0,-0.0,-0.0,-0.0,-0.0,-0.0,-0.0,-0.0,-0.0,-0.047,-0.0,-0.0,-0.0,-0.0,-0.0,-0.0,-0.0,-0.0,-0.0,-0.0,-0.0,-0.0,-0.0,-0.0,-0.0,-0.0,-0.0,-0.0,0.1437,0.3089,0.491,0.4648,0.4753,0.5287,0.4935,0.4714,0.4691,0.4594,0.4519,0.4522,0.4596,0.4585,0.4522,0.4599,0.4582,0.4519,0.4519,0.4565,0.4721,0.4701,0.4809,0.4996,0.5094,0.5114,0.5087,0.4986,0.4921,0.4887,0.4911,0.4931,0.4996,0.5247,0.5408,0.5428,0.5428,0.5428,0.5428,0.5428,0.5428,0.5428,0.5428,0.5428,0.5428,0.5428,0.5428,0.5428,0.5428,0.5428,0.5428,0.5428,0.5428,0.5411,0.5367,0.5387,0.5366,0.5318,0.5355,0.5385,0.5385,0.5364,0.5428,0.5428,0.5428,0.5428,0.5428,0.4702,0.4547,0.5147,0.3179,0.1446,0.0262,0.0069,-0.0,-0.0,-0.0,-0.0,-0.0,-0.0,-0.0,-0.0,-0.0,-0.0,-0.0,-0.0,-0.0,-0.0,-0.0,-0.0,-0.0,-0.0,-0.0,-0.0,-0.0,-0.0,-0.0,-0.0783,-0.0,-0.0,-0.0,-0.0,-0.0,-0.0,-0.0,-0.0,-0.0,-0.0,-0.0,-0.0,-0.0,-0.0,-0.0,-0.0,-0.0,-0.0,0.0262,0.1223,0.3033,0.3053,0.3658,0.4931,0.504,0.4953,0.4691,0.4594,0.4519,0.4519,0.4543,0.4539,0.4519,0.4543,0.4539,0.4519,0.4519,0.4626,0.487,0.4745,0.4931,0.5281,0.5172,0.5057,0.4965,0.506,0.4938,0.4745,0.4874,0.4999,0.5104,0.5152,0.5257,0.5428,0.5428,0.5428,0.5428,0.5428,0.5428,0.5428,0.5428,0.5428,0.5428,0.5428,0.5428,0.5428,0.5428,0.5428,0.5428,0.5428,0.5428,0.5343,0.5144,0.5301,0.5351,0.5072,0.5272,0.5389,0.5336,0.5371,0.5428,0.5428,0.5428,0.5428,0.5428,0.5309,0.4934,0.4352,0.4574,0.3692,0.1247,0.0428,-0.0,-0.0,-0.0,-0.0,-0.0,-0.0,-0.0,-0.0,-0.0,-0.0,-0.0,-0.0,-0.0,-0.0,-0.0,-0.0,-0.0,-0.0,-0.0,-0.0,-0.0,-0.0,-0.0,-0.3771,-0.1569,-0.0,-0.0,-0.0,-0.0,-0.0,-0.0,-0.0,-0.0,-0.0,-0.0,-0.0,-0.0,-0.0,-0.0,-0.0,-0.0,-0.0,-0.0,0.0391,0.1198,0.1259,0.1965,0.3409,0.4652,0.5116,0.476,0.4609,0.4492,0.4519,0.4519,0.4519,0.4519,0.4519,0.4519,0.4522,0.4551,0.4714,0.4918,0.4925,0.5101,0.5422,0.5281,0.5213,0.5155,0.5138,0.5043,0.4938,0.5009,0.5077,0.5145,0.5226,0.5304,0.5428,0.5428,0.5428,0.5428,0.5428,0.5428,0.5428,0.5428,0.5428,0.5428,0.5428,0.5428,0.5428,0.5428,0.5428,0.5428,0.5428,0.5428,0.5353,0.5258,0.5326,0.5363,0.5235,0.5295,0.5385,0.5332,0.5368,0.5428,0.5428,0.5437,0.5484,0.5484,0.5427,0.4815,0.3442,0.326,0.2443,0.0731,0.0225,-0.0,-0.0,-0.0,-0.0,-0.0,-0.0,-0.0,-0.0,-0.0,-0.0,-0.0,-0.0,-0.0,-0.0,-0.0,-0.0,-0.0,-0.0,-0.0,-0.0,-0.0,-0.0,-0.0,-0.6165,-0.2909,-0.0,-0.0,-0.0,-0.0,-0.0,-0.0,-0.0,-0.0,-0.0,-0.0,-0.0,-0.0,-0.0,-0.0,-0.0,-0.0,-0.0,-0.0,-0.0,-0.0,-0.0,0.0515,0.1671,0.3288,0.4212,0.4297,0.4471,0.4558,0.4518,0.4518,0.4553,0.4519,0.4519,0.4519,0.4525,0.4585,0.4748,0.4928,0.5036,0.5196,0.5428,0.5428,0.5338,0.5298,0.5213,0.5162,0.5135,0.5172,0.5182,0.5206,0.5325,0.5428,0.5428,0.5428,0.5428,0.5428,0.5428,0.5428,0.5428,0.5428,0.5456,0.5406,0.5435,0.5456,0.547,0.5435,0.5428,0.5428,0.5428,0.5428,0.5367,0.5367,0.5352,0.54,0.5334,0.54,0.5475,0.5428,0.5494,0.5464,0.5464,0.5572,0.564,0.5647,0.5512,0.486,0.3375,0.1881,0.0764,-0.0,-0.0,-0.0,-0.0,-0.0,-0.0,-0.0,-0.0,-0.0,-0.0,-0.0,-0.0,-0.0,-0.0,-0.0,-0.0,-0.0,-0.0,-0.0,-0.0,-0.0,-0.0,-0.0,-0.0,-0.0,-0.5921,-0.2909,-0.0,-0.0,-0.0,-0.0,-0.0,-0.0,-0.0,-0.0,-0.0,-0.0,-0.0,-0.0,-0.0,-0.0,-0.0,-0.0,-0.0,-0.0,-0.0,-0.0,-0.0,0.0064,0.0129,0.0322,0.1221,0.2885,0.4173,0.4657,0.451,0.4619,0.4599,0.4519,0.4519,0.4519,0.4519,0.4529,0.465,0.4921,0.4928,0.5108,0.5428,0.5428,0.5274,0.5165,0.5298,0.5254,0.5152,0.5294,0.5411,0.5348,0.5425,0.5428,0.5428,0.5428,0.5428,0.5428,0.5428,0.5428,0.5428,0.5428,0.5467,0.5535,0.5459,0.5471,0.5535,0.5459,0.5428,0.5428,0.5428,0.5428,0.5332,0.5156,0.5275,0.5321,0.5136,0.5454,0.5671,0.5573,0.5674,0.5769,0.5769,0.5779,0.5793,0.5669,0.5744,0.5607,0.5231,0.1932,0.0078,-0.0,-0.0,-0.0,-0.0,-0.0,-0.0,-0.0,-0.0,-0.0,-0.0,-0.0,-0.0,-0.0,-0.0,-0.0,-0.0,-0.0,-0.0,-0.0,-0.0,-0.0,-0.0,-0.0,-0.0,-0.0,-0.2512,-0.1099,-0.0,-0.0,-0.0,-0.0,-0.0,-0.0,-0.0,-0.0,-0.0,-0.0,-0.0,-0.0,-0.0,-0.0,-0.0,-0.0,-0.0,-0.0,-0.0,-0.0,-0.0,-0.0,-0.0,-0.0,0.0328,0.1029,0.1589,0.2803,0.4736,0.4787,0.4641,0.4498,0.4606,0.4551,0.4525,0.4565,0.467,0.4785,0.488,0.504,0.5216,0.5216,0.524,0.5281,0.5342,0.5325,0.5284,0.5342,0.5428,0.5428,0.5428,0.5428,0.5428,0.5428,0.5428,0.5428,0.5428,0.5428,0.5428,0.5428,0.5477,0.5576,0.5515,0.5616,0.5681,0.5535,0.5504,0.5474,0.5446,0.5428,0.536,0.5273,0.5399,0.5494,0.5399,0.5596,0.5728,0.5708,0.5769,0.58,0.58,0.5888,0.5912,0.5868,0.4767,0.4678,0.5893,0.2207,-0.0,-0.0,-0.0,-0.0,-0.0,-0.0,-0.0,-0.0,-0.0,-0.0,-0.0,-0.0,-0.0,-0.0,-0.0,-0.0,-0.0,-0.0,-0.0,-0.0,-0.0,-0.0,-0.0,-0.0,-0.0,0.0401,-0.0392,-0.0,-0.0,-0.0,-0.0,-0.0,-0.0,-0.0,-0.0,-0.0,-0.0,-0.0,-0.0,-0.0,-0.0,-0.0,-0.0,-0.0,-0.0,-0.0,-0.0,-0.0,-0.0,-0.0,-0.0,-0.0,-0.0,-0.0,-0.0,0.1156,0.3377,0.3874,0.4305,0.4604,0.4713,0.4626,0.4488,0.4646,0.4718,0.4772,0.4877,0.5003,0.5131,0.5131,0.5196,0.5287,0.5287,0.5321,0.5428,0.5428,0.5428,0.5428,0.5428,0.5428,0.5428,0.5428,0.5428,0.5428,0.5428,0.5428,0.5428,0.5428,0.5511,0.5644,0.5599,0.5735,0.583,0.5688,0.5657,0.5623,0.5518,0.5501,0.5535,0.5495,0.559,0.5689,0.5655,0.5789,0.5874,0.5874,0.5915,0.5945,0.5952,0.6047,0.61,0.611,0.4841,0.4157,0.432,0.1602,-0.0,-0.0,-0.0,-0.0,-0.0,-0.0,-0.0,-0.0,-0.0,-0.0,-0.0,-0.0,-0.0,-0.0,-0.0,-0.0,-0.0,-0.0,-0.0,-0.0,-0.0,-0.0,-0.0,-0.0,-0.0,0.0651,-0.0392,-0.0,-0.0,-0.0,-0.0,-0.0,-0.0,-0.0,-0.0,-0.0,-0.0,-0.0,-0.0,-0.0,-0.0,-0.0,-0.0,-0.0,-0.0,-0.0,-0.0,-0.0,-0.0,-0.0,-0.0,-0.0,-0.0,-0.0,-0.0,-0.0,0.0064,0.1865,0.3491,0.4832,0.4816,0.4667,0.4526,0.4636,0.4779,0.4918,0.4918,0.5003,0.5131,0.5131,0.5131,0.5131,0.5131,0.5233,0.5428,0.5428,0.5428,0.5428,0.5428,0.5428,0.5428,0.5428,0.5428,0.5428,0.5428,0.5428,0.5428,0.5428,0.5586,0.5766,0.5627,0.582,0.5986,0.5833,0.5803,0.5803,0.58,0.58,0.58,0.58,0.5803,0.5803,0.5803,0.5935,0.603,0.603,0.6166,0.6268,0.6278,0.6278,0.6277,0.6299,0.6231,0.441,0.0244,-0.0,-0.0,-0.0,-0.0,-0.0,-0.0,-0.0,-0.0,-0.0,-0.0,-0.0,-0.0,-0.0,-0.0,-0.0,-0.0,-0.0,-0.0,-0.0,-0.0,-0.0,-0.0,-0.0,-0.0,-0.0,-0.0,0.0732,-0.0382,-0.0,-0.0,-0.0,-0.0,-0.0,-0.0,-0.0,-0.0,-0.0,-0.0,-0.0,-0.0,-0.0,-0.0,-0.0,-0.0,-0.0,-0.0,-0.0,-0.0,-0.0,-0.0,-0.0,-0.0,-0.0,-0.0,-0.0,-0.0,-0.0,-0.0,0.053,0.1043,0.1522,0.3038,0.4114,0.4707,0.4697,0.4718,0.4769,0.4874,0.5003,0.5131,0.5131,0.5199,0.5291,0.5291,0.5321,0.5428,0.5428,0.5428,0.5428,0.5428,0.5428,0.5428,0.5428,0.5428,0.5428,0.5428,0.544,0.5521,0.5521,0.5661,0.582,0.5884,0.6051,0.6146,0.5993,0.5962,0.5928,0.582,0.58,0.58,0.58,0.5891,0.5962,0.5962,0.6095,0.6193,0.6193,0.624,0.6315,0.6265,0.4973,0.4656,0.615,0.3587,0.1356,0.0083,-0.0,-0.0,-0.0,-0.0,-0.0,-0.0,-0.0,-0.0,-0.0,-0.0,-0.0,-0.0,-0.0,-0.0,-0.0,-0.0,-0.0,-0.0,-0.0,-0.0,-0.0,-0.0,-0.0,-0.0,-0.0,0.2092,0.4957,-0.0373,-0.0,-0.0,-0.0,-0.0,-0.0,-0.0,-0.0,-0.0,-0.0,-0.0,-0.0,-0.0,-0.0,-0.0,-0.0,-0.0,-0.0,-0.0,-0.0,-0.0,-0.0,-0.0,-0.0,-0.0,-0.0,-0.0,-0.0,-0.0,-0.0,-0.0,-0.0,-0.0,0.0065,0.141,0.3005,0.4712,0.4817,0.487,0.4877,0.4965,0.5053,0.5131,0.5131,0.5189,0.527,0.527,0.5311,0.5428,0.5428,0.5428,0.5428,0.5428,0.5428,0.5428,0.5428,0.5428,0.5442,0.5437,0.5518,0.5616,0.5735,0.5827,0.5915,0.601,0.6149,0.6234,0.6139,0.6122,0.6091,0.6,0.5983,0.5983,0.5983,0.6061,0.6122,0.6122,0.6203,0.6281,0.6339,0.6359,0.594,0.5086,0.4606,0.418,0.3821,0.1479,-0.0,-0.0,-0.0,-0.0,-0.0,-0.0,-0.0,-0.0,-0.0,-0.0,-0.0,-0.0,-0.0,-0.0,-0.0,-0.0,-0.0,-0.0,-0.0,-0.0,-0.0,-0.0,-0.0,-0.0,-0.0,0.0253,0.2104,0.4619,0.6907,-0.0435,-0.0,-0.0,-0.0,-0.0,-0.0,-0.0,-0.0,-0.0,-0.0,-0.0,-0.0,-0.0,-0.0,-0.0,-0.0,-0.0,-0.0,-0.0,-0.0,-0.0,-0.0,-0.0,-0.0,-0.0,-0.0,-0.0,-0.0,-0.0,-0.0,-0.0,-0.0,-0.0,-0.0,-0.0,0.1516,0.4145,0.4641,0.4954,0.5088,0.5088,0.5152,0.5152,0.5152,0.5152,0.5152,0.5152,0.5243,0.5428,0.5428,0.5428,0.5428,0.5428,0.5428,0.5428,0.5428,0.5428,0.5463,0.5549,0.5599,0.5677,0.5959,0.604,0.6051,0.6051,0.6159,0.6338,0.6338,0.6338,0.6338,0.6338,0.6338,0.6338,0.6338,0.6271,0.6281,0.6281,0.6291,0.6349,0.6478,0.6431,0.5505,0.327,0.4734,0.4104,0.0261,-0.0,-0.0,-0.0,-0.0,-0.0,-0.0,-0.0,-0.0,-0.0,-0.0,-0.0,-0.0,-0.0,-0.0,-0.0,-0.0,-0.0,-0.0,-0.0,-0.0,-0.0,-0.0,-0.0,-0.0,-0.0,0.0254,0.1185,0.5521,0.7076,0.7101,-0.0423,-0.0,-0.0,-0.0,-0.0,-0.0,-0.0,-0.0,-0.0,-0.0,-0.0,-0.0,-0.0,-0.0,-0.0,-0.0,-0.0,-0.0,-0.0,-0.0,-0.0,-0.0,-0.0,-0.0,-0.0,-0.0,-0.0,-0.0,-0.0,-0.0,-0.0,-0.0,-0.0,-0.0,-0.0,0.0388,0.103,0.2314,0.367,0.4987,0.5229,0.5332,0.5325,0.5325,0.5318,0.5311,0.5311,0.5332,0.5428,0.5428,0.5428,0.5428,0.5428,0.5428,0.5428,0.5428,0.5428,0.5463,0.5549,0.5671,0.58,0.5983,0.6122,0.621,0.621,0.6237,0.6338,0.6338,0.6338,0.6338,0.6338,0.6338,0.6338,0.6338,0.6356,0.6427,0.6427,0.6529,0.6617,0.6647,0.6595,0.5728,0.3346,0.2013,0.0976,0.0089,-0.0,-0.0,-0.0,-0.0,-0.0,-0.0,-0.0,-0.0,-0.0,-0.0,-0.0,-0.0,-0.0,-0.0,-0.0,-0.0,-0.0,-0.0,-0.0,-0.0,-0.0,-0.0,-0.0,-0.0,-0.0,0.2303,0.5689,0.6678,0.7132,0.7132,-0.1638,-0.1302,-0.1029,-0.0137,-0.0,-0.0,-0.0,-0.0,-0.0,-0.0,-0.0,-0.0,-0.0,-0.0,-0.0,-0.0,-0.0,-0.0,-0.0,-0.0,-0.0,-0.0,-0.0,-0.0,-0.0,-0.0,-0.0,-0.0,-0.0,-0.0,-0.0,-0.0,-0.0,-0.0,-0.0,-0.0,0.0066,0.0853,0.1704,0.263,0.3671,0.4095,0.4223,0.504,0.5376,0.5369,0.5428,0.5428,0.5428,0.5428,0.5428,0.5428,0.5428,0.5428,0.5428,0.5428,0.5428,0.5476,0.563,0.5745,0.5857,0.6084,0.62,0.6338,0.6338,0.6338,0.6338,0.6338,0.6315,0.6363,0.6363,0.642,0.6471,0.6471,0.6532,0.658,0.658,0.6651,0.6725,0.68,0.6753,0.5349,0.1934,0.0624,-0.0,-0.0,-0.0,-0.0,-0.0,-0.0,-0.0,-0.0,-0.0,-0.0,-0.0,-0.0,-0.0,-0.0,-0.0,-0.0,-0.0,-0.0,-0.0,-0.0,-0.0,-0.0,-0.0,-0.0,-0.0,0.027,0.2516,0.4949,0.7135,0.7118,0.7094,0.7068,-0.3469,-0.3153,-0.2683,-0.1207,-0.0402,-0.0,-0.0,-0.0,-0.0,-0.0,-0.0,-0.0,-0.0,-0.0,-0.0,-0.0,-0.0,-0.0,-0.0,-0.0,-0.0,-0.0,-0.0,-0.0,-0.0,-0.0,-0.0,-0.0,-0.0,-0.0,-0.0,-0.0,-0.0,-0.0,-0.0,-0.0,-0.0,-0.0,-0.0,0.0134,0.1608,0.2412,0.288,0.4361,0.5106,0.5376,0.5432,0.5428,0.5428,0.5428,0.5428,0.5428,0.5428,0.5428,0.5432,0.5459,0.5466,0.5464,0.5762,0.584,0.5908,0.619,0.6278,0.6298,0.6298,0.6298,0.6298,0.6298,0.641,0.6512,0.6512,0.6614,0.6702,0.6702,0.6722,0.6739,0.6742,0.6766,0.6827,0.6959,0.685,0.4963,0.0451,-0.0,-0.0,-0.0,-0.0,-0.0,-0.0,-0.0,-0.0,-0.0,-0.0,-0.0,-0.0,-0.0,-0.0,-0.0,-0.0,-0.0,-0.0,-0.0,-0.0,-0.0,-0.0,-0.0,-0.0,-0.0,0.0449,0.1616,0.5584,0.7131,0.7125,0.7091,0.7068,0.7139,-0.5049,-0.5007,-0.4956,-0.4684,-0.2091,-0.0,-0.0,-0.0,-0.0,-0.0,-0.0,-0.0,-0.0,-0.0,-0.0,-0.0,-0.0,-0.0,-0.0,-0.0,-0.0,-0.0,-0.0,-0.0,-0.0,-0.0,-0.0,-0.0,-0.0,-0.0,-0.0,-0.0,-0.0,-0.0,-0.0,-0.0,-0.0,-0.0,-0.0,-0.0,0.0269,0.1277,0.2751,0.2948,0.4023,0.5376,0.5432,0.5428,0.5428,0.5428,0.5428,0.5428,0.5428,0.5428,0.5456,0.5518,0.5559,0.5623,0.5918,0.5996,0.604,0.6217,0.6352,0.6444,0.6444,0.6444,0.6444,0.6444,0.6563,0.6668,0.6668,0.6685,0.6702,0.6702,0.681,0.6813,0.6823,0.6937,0.7034,0.7064,0.7021,0.5158,0.0461,-0.0,-0.0,-0.0,-0.0,-0.0,-0.0,-0.0,-0.0,-0.0,-0.0,-0.0,-0.0,-0.0,-0.0,-0.0,-0.0,-0.0,-0.0,-0.0,-0.0,-0.0,-0.0,-0.0,-0.0,-0.0,0.2426,0.6224,0.6863,0.7118,0.7088,0.7064,0.7143,0.7139,-0.4082,-0.3902,-0.4185,-0.5218,-0.4053,-0.2357,-0.0337,-0.0,-0.0,-0.0,-0.0,-0.0,-0.0,-0.0,-0.0,-0.0,-0.0,-0.0,-0.0,-0.0,-0.0,-0.0,-0.0,-0.0,-0.0,-0.0,-0.0,-0.0,-0.0,-0.0,-0.0,-0.0,-0.0,-0.0,-0.0,-0.0,-0.0,-0.0,-0.0,-0.0,-0.0,0.0471,0.1412,0.3431,0.4712,0.5386,0.5369,0.5428,0.5428,0.5428,0.5428,0.5428,0.5428,0.5428,0.5459,0.5545,0.5589,0.5654,0.5949,0.603,0.6088,0.6322,0.6427,0.6495,0.658,0.6664,0.6702,0.6617,0.6722,0.6827,0.6827,0.6892,0.6949,0.6963,0.6934,0.6984,0.6991,0.5933,0.5673,0.698,0.706,0.519,0.047,-0.0,-0.0,-0.0,-0.0,-0.0,-0.0,-0.0,-0.0,-0.0,-0.0,-0.0,-0.0,-0.0,-0.0,-0.0,-0.0,-0.0,-0.0,-0.0,-0.0,-0.0,-0.0,-0.0,0.0182,0.2886,0.5223,0.7135,0.7115,0.7091,0.7064,0.7143,0.7139,0.7139]},{"header":{"parameterUnit":"m.s-1","parameterCategory":1,"la1":30.6,"la2":28.766,"lo1":-90.7593,"lo2":-88.6598,"dy":0.0162,"dx":0.0183,"nx":116,"ny":114,"refTime":"2023-06-29T00:00:00:Z","depth":0,"parameterNumber":3,"parameterNumberName":"V-component_of_WINDS"},"data":[0.0,0.0,0.0,0.0,0.0,0.0,0.0,0.0,0.0,0.0,0.0,0.0,0.0,0.0,0.0,0.0,0.0,0.0,0.0,0.0,0.0,0.0,0.0,0.0,0.0,0.0,0.0,0.0,0.0,0.0,0.0,0.0,0.0,0.0,0.0,0.0,0.0,0.0,0.0,0.0,0.0,0.0,0.0,0.0,0.0,0.0,0.0,0.0,0.0,0.0,0.0,0.0,0.0,0.0,0.0,0.0,0.0,0.0,0.0,0.0,0.0,0.0,0.0,0.0,0.0,0.0,0.0,0.0,0.0,0.0,0.0,0.0,0.0,0.0,0.0,0.0,0.0,0.0,0.0,0.0,0.0,0.0,0.0,0.0,0.0,0.0,0.0,0.0,0.0,0.0,0.0,0.0,0.0,0.0,0.0,0.0,0.0,0.0,0.0,0.0,0.0,0.0,0.0,0.0,0.0,0.0,0.0,0.0,0.0,0.0,0.0,0.0,0.0,0.0,0.0,0.0,0.0,0.0,0.0,0.0,0.0,0.0,0.0,0.0,0.0,0.0,0.0,0.0,0.0,0.0,0.0,0.0,0.0,0.0,0.0,0.0,0.0,0.0,0.0,0.0,0.0,0.0,0.0,0.0,0.0,0.0,0.0,0.0,0.0,0.0,0.0,0.0,0.0,0.0,0.0,0.0,0.0,0.0,0.0,0.0,0.0,0.0,0.0,0.0,0.0,0.0,0.0,0.0,0.0,0.0,0.0,0.0,0.0,0.0,0.0,0.0,0.0,0.0,0.0,0.0,0.0,0.0,0.0,0.0,0.0,0.0,0.0,0.0,0.0,0.0,0.0,0.0,0.0,0.0,0.0,0.0,0.0,0.0,0.0,0.0,0.0,0.0,0.0,0.0,0.0,0.0,0.0,0.0,0.0,0.0,0.0,0.0,0.0,0.0,0.0,0.0,0.0,0.0,0.0,0.0,0.0,0.0,0.0,0.0,0.0,0.0,0.0,0.0,0.0,0.0,0.0,0.0,0.0,0.0,0.0,0.0,0.0,0.0,0.0,0.0,0.0,0.0,0.0,0.0,0.0,0.0,0.0,0.0,0.0,0.0,0.0,0.0,0.0,0.0,0.0,0.0,0.0,0.0,0.0,0.0,0.0,0.0,0.0,0.0,0.0,0.0,0.0,0.0,0.0,0.0,0.0,0.0,0.0,0.0,0.0,0.0,0.0,0.0,0.0,0.0,0.0,0.0,0.0,0.0,0.0,0.0,0.0,0.0,0.0,0.0,0.0,0.0,0.0,0.0,0.0,0.0,0.0,0.0,0.0,0.0,0.0,0.0,0.0,0.0,0.0,0.0,0.0,0.0,0.0,0.0,0.0,0.0,0.0,0.0,0.0,0.0,0.0,0.0,0.0,0.0,0.0,0.0,0.0,0.0,0.0,0.0,0.0,0.0,0.0,0.0,0.0,0.0,0.0,0.0,0.0,0.0,0.0,0.0,0.0,0.0,0.0,0.0,0.0,0.0,0.0,0.0,0.0,0.0,0.0,0.0,0.0,0.0,0.0,0.0,0.0,0.0,0.0,0.0,0.0,0.0,0.0,0.0,0.0,0.0,0.0,0.0,0.0,0.0,0.0,0.0,0.0,0.0,0.0,0.0,0.0,0.0,0.0,0.0,0.0,0.0,0.0,0.0,0.0,0.0,0.0,0.0,0.0,0.0,0.0,0.0,0.0,0.0,0.0,0.0,0.0,0.0,0.0,0.0,0.0,0.0,0.0,0.0,0.0,0.0,0.0,0.0,0.0,0.0,0.0,0.0,0.0,0.0,0.0,0.0,0.0,0.0,0.0,0.0,0.0,0.0,0.0,0.0,0.0,0.0,0.0,0.0,0.0,0.0,0.0,0.0,0.0,0.0,0.0,0.0,0.0,0.0,0.0,0.0,0.0,0.0,0.0,0.0,0.0,0.0,0.0,0.0,0.0,0.0,0.0,0.0,0.0,0.0,0.0,0.0,0.0,0.0,0.0,0.0,0.0,0.0,0.0,0.0,0.0,0.0,0.0,0.0,0.0,0.0,0.0,0.0,0.0,0.0,0.0,0.0,0.0,0.0,0.0,0.0,0.0,0.0,0.0,0.0,0.0,0.0,0.0,0.0,0.0,0.0,0.0,0.0,0.0,0.0,0.0,0.0,0.0,0.0,0.0,0.0,0.0,0.0,0.0,0.0,0.0,0.0,0.0,0.0,0.0,0.0,0.0,0.0,0.0,0.0,0.0,0.0,0.0,0.0,0.0,0.0,0.0,0.0,0.0,0.0,0.0,0.0,0.0,0.0,0.0,0.0,0.0,0.0,0.0,0.0,0.0,0.0,0.0,0.0,0.0,0.0,0.0,0.0,0.0,0.0,0.0,0.0,0.0,0.0,0.0,0.0,0.0,0.0,0.0,0.0,0.0,0.0,0.0,0.0,0.0,0.0,0.0,0.0,0.0,0.0,0.0,0.0,0.0,0.0,0.0,0.0,0.0,0.0,0.0,0.0,0.0,0.0,0.0,0.0,0.0,0.0,0.0,0.0,0.0,0.0,0.0,0.0,0.0,0.0,0.0,0.0,0.0,0.0,0.0,0.0,0.0,0.0,0.0,0.0,0.0,0.0,0.0,0.0,0.0,0.0,0.0,0.0,0.0,0.0,0.0,0.0,0.0,0.0,0.0,0.0,0.0,0.0,0.0,0.0,0.0,0.0,0.0,0.0,0.0,0.0,0.0,0.0,0.0,0.0,0.0,0.0,0.0,0.0,0.0,0.0,0.0,0.0,0.0,0.0,0.0,0.0,0.0,0.0,0.0,0.0,0.0,0.0,0.0,0.0,0.0,0.0,0.0,0.0,0.0,0.0,0.0,0.0,0.0,0.0,0.0,0.0,0.0,0.0,0.0,0.0,0.0,0.0,0.0,0.0,0.0,0.0,0.0,0.0,0.0,0.0,0.0,0.0,0.0,0.0,0.0,0.0,0.0,0.0,0.0,0.0,0.0,0.0,0.0,0.0,0.0,0.0,0.0,0.0,0.0,0.0,0.0,0.0,0.0,0.0,0.0,0.0,0.0,0.0,0.0,0.0,0.0,0.0,0.0,0.0,0.0,0.0,0.0,0.0,0.0,0.0,0.0,0.0,0.0,0.0,0.0,0.0,0.0,0.0,0.0,0.0,0.0,0.0,0.0,0.0,0.0,0.0,0.0,0.0,0.0,0.0,0.0,0.0,0.0,0.0,0.0,0.0,0.0,0.0,0.0,0.0,0.0,0.0,0.0,0.0,0.0,0.0,0.0,0.0,0.0,0.0,0.0,0.0,0.0,0.0,0.0,0.0,0.0,0.0,0.0,0.0,0.0,0.0,0.0,0.0,0.0,0.0,0.0,0.0,0.0,0.0,0.0,0.0,0.0,0.0,0.0,0.0,0.0,0.0,0.0,0.0,0.0,0.0,0.0,0.0,0.0,0.0,0.0,0.0,0.0,0.0,0.0,0.0,0.0,0.0,0.0,0.0,0.0,0.0,0.0,0.0,0.0,0.0,0.0,0.0,0.0,0.0,0.0,0.0,0.0,0.0,0.0,0.0,0.0,0.0,0.0,0.0,0.0,0.0,0.0,0.0,0.0,0.0,0.0,0.0,0.0,0.0,0.0,0.0,0.0,0.0,0.0,0.0,0.0,0.0,0.0,0.0,0.0,0.0,0.0,0.0,0.0,0.0,0.0,0.0,0.0,0.0,0.0,0.0,0.0,0.0,0.0,0.0,0.0,0.0,0.0,0.0,0.0,0.0,0.0,0.0,0.0,0.0,0.0,0.0,0.0,0.0,0.0,0.0,0.0,0.0,0.0,0.0,0.0,0.0,0.0,0.0,0.0,0.0,0.0,0.0,0.0,0.0,0.0,0.0,0.0,0.0,0.0,0.0,0.0,0.0,0.0,0.0,0.0,0.0,0.0,0.0,0.0,0.0,0.0,0.0,0.0,0.0,0.0,0.0,0.0,0.0,0.0,0.0,0.0,0.0,0.0,0.0,0.0,0.0,0.0,0.0,0.0,0.0,0.0,0.0,0.0,0.0,0.0,0.0,0.0,0.0,0.0,0.0,0.0,0.0,0.0,0.0,0.0,0.0,0.0,0.0,0.0,0.0,0.0,0.0,0.0,0.0,0.0,0.0,0.0,0.0,0.0,0.0,0.0,0.0,0.0,0.0,0.0,0.0,0.0,0.0,0.0,0.0,0.0,0.0,0.0,0.0,0.0,0.0,0.0,0.0,0.0,0.0,0.0,0.0,0.0,0.0,0.0,0.0,0.0,0.0,0.0,0.0,0.0,0.0,0.0,0.0,0.0,0.0,0.0,0.0,0.0,0.0,0.0,0.0,0.0,0.0,0.0,0.0,0.0,0.0,0.0,0.0,0.0,0.0,0.0,0.0,0.0,0.0,0.0,0.0,0.0,0.0,0.0,0.0,0.0,0.0,0.0,0.0,0.0,0.0,0.0,0.0,0.0,0.0,0.0,0.0,0.0,0.0,0.0,0.0,0.0,0.0,0.0,0.0,0.0,0.0,0.0,0.0,0.0,0.0,0.0,0.0,0.0,0.0,0.0,0.0,0.0,0.0,0.0,0.0,0.0,0.0,0.0,0.0,0.0,0.0,0.0,0.0,0.0,0.0,0.0,0.0,0.0,0.0,0.0,0.0,0.0,0.0,0.0,0.0,0.0,0.0,0.0,0.0,0.0,0.0,0.0,0.0,0.0,0.0,0.0,0.0,0.0,0.0,0.0,0.0,0.0,0.0,0.0,0.0,0.0,0.0,0.0,0.0,0.0,0.0,0.0,0.0,0.0,0.0,0.0,0.0,0.0,0.0,0.0,0.0,0.0,0.0,0.0,0.0,0.0,0.0,0.0,0.0,0.0,0.0,0.0,0.0,0.0,0.0,0.0,0.0,0.0,0.0,0.0,0.0,0.0,0.0,0.0,0.0,0.0,0.0,0.0,0.0,0.0,0.0,0.0,0.0,0.0,0.0,0.0,0.0,0.0,0.0,0.0,0.0,0.0,0.0,0.0,0.0,0.0,0.0,0.0,0.0,0.0,0.0,0.0,0.0,0.0,0.0,0.0,0.0,0.0,0.0,0.0,0.0,0.0,0.0,0.0,0.0,0.0,0.0,0.0,0.0,0.0,0.0,0.0,0.0,0.0,0.0,0.0,0.0,0.0,0.0,0.0,0.0,0.0,0.0,0.0,0.0,0.0,0.0,0.0,0.0,0.0,0.0,0.0,0.0,0.0,0.0,0.0,0.0,0.0,0.0,0.0,0.0,0.0,0.0,0.0,0.0,0.0,0.0,0.0,0.0,0.0,0.0,0.0,0.0,0.0,0.0,0.0,0.0,0.0,0.0,0.0,0.0,0.0,0.0,0.0,0.0,0.0,0.0,0.0,0.0,0.0,0.0,0.0,0.0,0.0,0.0,0.0,0.0,0.0,0.0,0.0,0.0,0.0,0.0,0.0,0.0,0.0,0.0,0.0,0.0,0.0,0.0,0.0,0.0,0.0,0.0,0.0,0.0,0.0,0.0,0.0,0.0,0.0,0.0,0.0,0.0,0.0,0.0,0.0,0.0,0.0,0.0,0.0,0.0,0.0,0.0,0.0,0.0,0.0,0.0,0.0,0.0,0.0,0.0,0.0,0.0,0.0,0.0,0.0,0.0,0.0,0.0,0.0,0.0,0.0,0.0,0.0,0.0,0.0,0.0,0.0,0.0,0.0,0.0,0.0,0.0,0.0,0.0,0.0,0.0,0.0,0.0,0.0,0.0,0.0,0.0,0.0,0.0,0.0,0.0,0.0,0.0,0.0,0.0,0.0,0.0,0.0,0.0,0.0,0.0,0.0,0.0,0.0,0.0,0.0,0.0,0.0,0.0,0.0,0.0,0.0,0.0,0.0,0.0,0.0,0.0,0.0,0.0,0.0,0.0,0.0,0.0,0.0,0.0,0.0,0.0,0.0,0.0,0.0,0.0,0.0,0.0,0.0,0.0,0.0,0.0,0.0,0.0,0.0,0.0,0.0,0.0,0.0,0.0,0.0,0.0,0.0,0.0,0.4662,0.4902,0.0,0.0,0.0,0.0,0.0,0.0,0.0,0.0,0.0,0.0,0.0,0.0,0.0,0.0,0.0,0.0,0.0,0.0,0.0,0.0,0.0,0.0,0.0,0.0,0.0,0.0,0.0,0.0,0.0,0.0,0.0,0.0,0.0,0.0,0.0,0.0,0.0,0.0,0.0,0.0,0.0,0.0,0.0,0.0,0.0,0.0,0.0,0.0,0.0,0.0,0.0,0.0,0.0,0.0,0.0,0.0,0.0,0.0,0.0,0.0,0.0,0.0,0.0,0.0,0.0,0.0,0.0,0.0,0.0,0.0,0.0,0.0,0.0,0.0,0.0,0.0,0.0,0.0,0.0,0.0,0.0,0.0,0.0,0.0,0.0,0.0,0.0,0.0,0.0,0.0,0.0,0.0,0.0,0.0,0.0,0.0,0.0,0.0,0.0,0.0,0.0,0.0,0.0,0.0,0.0,0.0,0.0,0.0,0.0,0.0,0.0,0.0,0.0,0.0,0.2897,0.4181,0.0,0.0,0.0,0.0,0.0,0.0,0.0,0.0,0.0,0.0,0.0,0.0,0.0,0.0,0.0,0.0,0.0,0.0,0.0,0.0,0.0,0.0,0.0,0.0,0.0,0.0,0.0,0.0,0.0,0.0,0.0,0.0,0.0,0.0,0.0,0.0,0.0,0.0,0.0,0.0,0.0,0.0,0.0,0.0,0.0,0.0,0.0,0.0,0.0,0.0,0.0,0.0,0.0,0.0,0.0,0.0,0.0,0.0,0.0,0.0,0.0,0.0,0.0,0.0,0.0,0.0,0.0,0.0,0.0,0.0,0.0,0.0,0.0,0.0,0.0,0.0,0.0,0.0,0.0,0.0,0.0,0.0,0.0,0.0,0.0,0.0,0.0,0.0,0.0,0.0,0.0,0.0,0.0,0.0,0.0,0.0,0.0,0.0,0.0,0.0,0.0,0.0,0.0,0.0,0.0,0.0,0.0,0.0,-0.4544,-0.5058,-0.6062,-0.5229,-0.4466,-0.3626,0.0315,0.234,0.2834,0.3141,0.0,0.0,0.0,0.0,0.0,0.0,0.0,0.0,0.0,0.0,0.0,0.0,0.0,0.0,0.0,0.0,0.0,0.0,0.0,0.0,0.0,0.0,0.0,0.0,0.0,0.0,0.0,0.0,0.0,0.0,0.0,0.0,0.0,0.0,0.0,0.0,0.0,0.0,0.0,0.0,0.0,0.0,0.0,0.0,0.0,0.0,0.0,0.0,0.0,0.0,0.0,0.0,0.0,0.0,0.0,0.0,0.0,0.0,0.0,0.0,0.0,0.0,0.0,0.0,0.0,0.0,0.0,0.0,0.0,0.0,0.0,0.0,0.0,0.0,0.0,0.0,0.0,0.0,0.0,0.0,0.0,0.0,0.0,0.0,0.0,0.0,-0.2091,-0.259,0.0,0.0,0.0,0.0,0.0,0.0,0.0,0.0,0.0,0.0,0.0,0.0,0.0,-0.2535,-0.195,-0.5913,-0.7716,-0.7392,-0.8326,-0.8358,-0.7598,-0.719,-0.5899,-0.4036,-0.5506,0.0,0.0176,0.2016,0.0,0.0,0.0,0.0,0.0,0.0,0.0,0.0,0.0,0.0,0.0,0.0,0.0,0.0,0.0,0.0,0.0,0.0,0.0,0.0,0.0,0.0,0.0,0.0,0.0,0.0,0.0,0.0,0.0,0.0,0.0,0.0,0.0,0.0,0.0,0.0,0.0,0.0,0.0,0.0,0.0,0.0,0.0,0.0,0.0,0.0,0.0,0.0,0.0,0.0,0.0,0.0,0.0,0.0,0.0,0.0,0.0,0.0,0.0,0.0,0.0,0.0,0.0,0.0,0.0,0.0,0.0,0.0,0.0,0.0,0.0,0.0,0.0,0.0,0.0,0.0,0.0,0.0,0.0,0.0,0.0,0.0,0.0,0.0,0.0,-0.4024,-0.6065,-0.7754,-0.7138,-0.6222,0.0,0.0,0.0,0.0,0.0,0.0,0.0,0.0,0.0,-0.3537,-0.5424,-0.5748,-0.4389,-0.6283,-0.8648,-1.139,-1.0796,-1.0294,-0.9928,-0.9856,-0.9428,-0.8773,-0.9857,-0.9655,-0.815,-0.2925,-0.045,0.0069,0.0,0.0,0.0,0.0,0.3929,0.3664,0.0,0.0,0.0,0.0,0.0,0.0,0.0,0.0,0.0,0.0,0.0,0.0,0.0,0.0,0.0,0.0,0.0,0.0,0.0,0.0,0.0,0.0,0.0,0.0,0.0,0.0,0.0,0.0,0.0,0.0,0.0,0.0,0.0,0.0,0.0,0.0,0.0,0.0,0.0,0.0,0.0,0.0,0.0,0.0,0.0,0.0,0.0,0.0,0.0,0.0,0.0,0.0,0.0,0.0,0.0,0.0,0.0,0.0,0.0,0.0,0.0,0.0,0.0,0.0,0.0,0.0,0.0,0.0,0.0,0.0,0.0,0.0,0.0,0.0,0.0,0.0,0.0,-0.6447,-0.8865,-1.0953,-1.036,-0.9356,0.0,0.0,0.0,0.0,0.0,0.0,-0.4299,-0.6014,-0.6557,-0.55,-0.7452,-0.7968,-0.6916,-0.7742,-1.0093,-1.3871,-1.2796,-1.2343,-1.2469,-1.283,-1.2997,-1.3025,-1.326,-1.3971,-1.4508,-0.8633,-0.5785,-0.4966,-0.3103,-0.1954,-0.1094,0.0579,0.0958,0.0572,0.0,0.0,0.0,0.0,0.0,0.0,0.0,0.0,0.0,0.0,0.0,0.0,0.0,0.0,0.0,0.0,0.0,0.0,0.0,0.0,0.0,0.0,0.0,0.0,0.0,0.0,0.0,0.0,0.0,0.0,0.0,0.0,0.0,0.0,0.0,0.0,0.0,0.0,0.0,0.0,0.0,0.0,0.0,0.0,0.0,0.0,0.0,0.0,0.0,0.0,0.0,0.0,0.0,0.0,0.0,0.0,0.0,0.0,0.0,0.0,0.0,0.0,0.0,0.0,0.0,0.0,0.0,0.0,0.0,0.0,0.0,0.0,0.0,0.0,0.0,0.0,0.0,0.0,0.0,-0.9995,-1.0845,0.0,0.0,0.0,0.0,-0.9555,-0.9552,-0.9972,-1.0959,-1.0588,-1.0021,-0.9232,-0.7856,-0.7645,-0.8849,-1.2808,-1.4283,-1.327,-1.4564,-1.5121,-1.5046,-1.6078,-1.5874,-1.4747,-1.5625,-1.5783,-1.5285,-1.4061,-1.1926,-0.9378,-0.9169,-0.7365,-0.4712,-0.359,-0.3129,-0.3221,0.0,0.0,0.0,0.0,0.0,0.0,0.0,0.0,0.0,0.0,0.0,0.0,0.0,0.0,0.0,0.0,0.0,0.0,0.0,0.0,0.0,0.0,0.0,0.0,0.0,0.0,0.0,0.0,0.0,0.0,0.0,0.0,0.0,0.0,0.0,0.0,0.0,0.0,0.0,0.0,0.0,0.0,0.0,0.0,0.0,0.0,0.0,0.0,0.0,0.0,0.0,0.0,0.0,0.0,0.0,0.0,0.0,0.0,0.0,0.0,0.0,0.0,0.0,0.0,0.0,0.0,0.0,0.0,0.0,0.0,0.0,0.0,0.0,0.0,0.0,0.0,0.0,0.0,0.0,-1.3115,-1.4015,0.0,-1.3223,-1.2781,-1.245,-1.2159,-1.2125,-1.2105,-1.2074,-1.2099,-1.1703,-1.0745,-1.1031,-1.1363,-1.1781,-1.3938,-1.5598,-1.6692,-1.742,-1.7839,-1.7986,-1.8357,-1.8144,-1.7453,-1.7694,-1.7757,-1.7624,-1.7085,-1.4819,-1.1571,-1.0331,-0.8912,-0.745,-0.6721,-0.6249,-0.6011,0.0,0.0,0.0,0.0,0.0,0.0,0.0,0.0,0.0,0.0,0.0,0.0,0.0,0.0,0.0,0.0,0.0,0.0,0.0,0.0,0.0,0.0,0.0,0.0,0.0,0.0,0.0,0.0,0.0,0.0,0.0,0.0,0.0,0.0,0.0,0.0,0.0,0.0,0.0,0.0,0.0,0.0,-1.6186,0.0,0.0,0.0,0.0,0.0,0.0,0.0,0.0,0.0,0.0,0.0,0.0,0.0,0.0,0.0,0.0,0.0,0.0,0.0,0.0,0.0,0.0,0.0,0.0,0.0,0.0,0.0,0.0,0.0,0.0,0.0,0.0,0.0,0.0,-1.3249,-1.4659,-1.5759,-1.6432,-1.6584,-1.6002,-1.551,-1.5029,-1.4485,-1.4383,-1.4262,-1.4016,-1.4084,-1.3828,-1.3279,-1.425,-1.4719,-1.4663,-1.5976,-1.7454,-1.9016,-1.9213,-1.929,-1.9314,-1.9668,-1.9525,-1.9003,-1.9224,-1.9331,-1.9335,-1.8853,-1.7179,-1.4737,-1.2756,-1.1367,-1.0358,-0.969,-0.9172,-0.8784,0.0,0.0,0.0,0.0,0.0,0.0,0.0,0.0,0.0,0.0,0.0,0.0,0.0,0.0,0.0,0.0,0.0,0.0,0.0,0.0,0.0,0.0,0.0,0.0,0.0,0.0,0.0,0.0,0.0,0.0,0.0,0.0,0.0,0.0,0.0,0.0,0.0,0.0,0.0,0.0,0.0,0.0,-2.0089,0.0,0.0,0.0,0.0,0.0,0.0,0.0,0.0,0.0,0.0,0.0,0.0,0.0,0.0,0.0,0.0,0.0,0.0,0.0,0.0,0.0,0.0,0.0,0.0,0.0,0.0,0.0,0.0,0.0,0.0,0.0,0.0,0.0,-1.4818,-1.6281,-1.7515,-1.7543,-1.7969,-1.7863,-1.6832,-1.6656,-1.6606,-1.6557,-1.6515,-1.6692,-1.7221,-1.6687,-1.6568,-1.697,-1.7183,-1.7338,-1.7423,-1.9222,-2.0029,-1.9844,-1.9753,-1.9444,-1.8979,-2.0018,-2.0011,-1.925,-2.0113,-2.0404,-2.0216,-1.9518,-1.918,-1.8882,-1.6771,-1.499,-1.3468,-1.2559,-1.1985,-1.156,0.0,0.0,0.0,0.0,0.0,0.0,0.0,0.0,0.0,0.0,0.0,0.0,0.0,0.0,0.0,0.0,0.0,0.0,0.0,0.0,0.0,0.0,0.0,0.0,0.0,0.0,0.0,0.0,0.0,0.0,0.0,0.0,0.0,0.0,0.0,0.0,0.0,0.0,0.0,0.0,0.0,0.0,-2.313,0.0,0.0,0.0,0.0,0.0,0.0,0.0,0.0,0.0,0.0,0.0,0.0,0.0,0.0,0.0,0.0,0.0,0.0,0.0,0.0,0.0,0.0,0.0,0.0,0.0,0.0,0.0,0.0,0.0,0.0,0.0,-1.8435,-1.945,-1.8275,-1.9984,-2.1294,-2.1049,-2.1649,-2.1462,-1.9868,-1.9276,-1.8796,-1.8416,-1.8212,-1.8214,-1.8345,-1.8489,-1.8596,-1.8774,-1.9391,-1.9984,-2.0556,-2.0645,-2.0689,-2.0676,-2.0264,-2.0043,-2.0007,-2.028,-1.9941,-1.9179,-2.0057,-2.0053,-1.9471,-1.9883,-1.9723,-1.9034,-1.7728,-1.6457,-1.5344,-1.4987,-1.413,-1.3035,0.0,0.0,0.0,0.0,0.0,0.0,0.0,0.0,0.0,0.0,0.0,0.0,0.0,0.0,0.0,0.0,0.0,0.0,0.0,0.0,0.0,0.0,0.0,0.0,0.0,0.0,0.0,0.0,0.0,0.0,0.0,0.0,0.0,0.0,0.0,0.0,0.0,0.0,0.0,0.0,0.0,0.0,-2.6723,-2.474,-2.266,-2.0679,-1.9712,-1.9578,-1.9517,-1.6952,0.0,0.0,0.0,0.0,0.0,0.0,0.0,0.0,0.0,0.0,0.0,0.0,0.0,0.0,0.0,0.0,0.0,0.0,0.0,0.0,0.0,0.0,0.0,0.0,-2.1884,-2.3604,-2.3502,-2.4165,-2.459,-2.4388,-2.4322,-2.3881,-2.2848,-2.1857,-2.1024,-2.0376,-2.0264,-2.0061,-1.9753,-2.0076,-2.0413,-2.0718,-2.1308,-2.1856,-2.2337,-2.2075,-2.1874,-2.1714,-2.15,-2.1461,-2.1539,-2.1539,-2.1211,-2.0721,-2.1228,-2.1141,-2.0691,-2.1235,-2.1177,-2.0582,0.0,0.0,0.0,0.0,-1.5445,-1.4589,0.0,0.0,0.0,0.0,0.0,0.0,0.0,0.0,0.0,0.0,0.0,0.0,0.0,0.0,0.0,0.0,0.0,0.0,0.0,0.0,0.0,0.0,0.0,0.0,0.0,0.0,0.0,0.0,0.0,0.0,0.0,0.0,0.0,0.0,0.0,0.0,0.0,0.0,0.0,0.0,0.0,0.0,-3.0513,-2.8909,-2.7063,-2.5292,-2.5181,-2.3904,-2.2242,-2.2061,0.0,0.0,0.0,0.0,0.0,0.0,0.0,0.0,0.0,0.0,0.0,0.0,0.0,0.0,0.0,0.0,0.0,0.0,0.0,0.0,0.0,0.0,0.0,0.0,-2.5189,-2.7879,-2.9316,-2.854,-2.7673,-2.7267,-2.6433,-2.5809,-2.5571,-2.4253,-2.3176,-2.2499,-2.2391,-2.2086,-2.1408,-2.176,0.0,0.0,0.0,-2.3193,-2.3279,-2.3397,-2.3259,-2.2879,-2.303,-2.3104,-2.3093,-2.3084,-2.3007,-2.2881,-2.2881,-2.2852,-2.2793,-2.2868,-2.2887,-2.2651,-2.0287,-1.8848,-1.7988,-1.6762,-1.6289,-1.6106,0.0,0.0,0.0,0.0,0.0,0.0,0.0,0.0,0.0,0.0,0.0,0.0,0.0,0.0,0.0,0.0,0.0,0.0,0.0,0.0,0.0,0.0,0.0,0.0,0.0,0.0,0.0,0.0,0.0,0.0,0.0,0.0,0.0,0.0,0.0,0.0,0.0,0.0,0.0,0.0,0.0,0.0,-3.3499,-3.1985,-3.0451,-2.9117,-2.9506,-2.9849,-2.9864,-2.8025,-2.7144,-2.62,-2.2562,0.0,0.0,0.0,0.0,0.0,0.0,0.0,0.0,0.0,0.0,0.0,0.0,0.0,0.0,0.0,0.0,0.0,0.0,0.0,0.0,-2.6375,-2.8796,-3.0891,-3.2341,-3.2343,-3.113,-2.8318,-2.881,-2.8772,-2.7138,-2.5731,-2.4847,-2.4703,-2.4232,-2.388,-2.3745,-2.4417,-2.4625,-2.4275,-2.4577,-2.4633,-2.4385,-2.405,-2.3923,-2.3985,-2.339,0.0,-2.3029,-2.2951,-2.2901,-2.2831,-2.2831,-2.2812,-2.2793,-2.2821,-2.2851,-2.2722,-2.0948,-1.9726,-1.8847,-1.7894,-1.7456,-1.7273,0.0,0.0,0.0,0.0,0.0,0.0,0.0,0.0,0.0,0.0,0.0,0.0,0.0,0.0,0.0,0.0,0.0,0.0,0.0,0.0,0.0,0.0,0.0,0.0,0.0,0.0,0.0,0.0,0.0,0.0,0.0,0.0,0.0,0.0,0.0,0.0,0.0,0.0,0.0,0.0,0.0,0.0,-3.7394,-3.5326,-3.4261,-3.3854,-3.3696,-3.414,-3.4457,-3.2283,-3.1601,-3.1085,-2.7879,-2.4441,-2.1113,0.0,0.0,0.0,0.0,0.0,0.0,0.0,0.0,0.0,0.0,0.0,0.0,0.0,0.0,-2.2569,0.0,0.0,-2.8681,-3.0577,-3.2292,-3.366,-3.4404,-3.4506,-3.3592,-3.1089,-3.1139,-3.0824,-2.9443,-2.8312,-2.737,-2.6627,-2.6116,-2.5708,-2.533,-2.5796,-2.5954,-2.5772,-2.6171,-2.6393,-2.6338,-2.5721,-2.5698,-2.6246,-2.5449,-2.5018,-2.4946,-2.4887,-2.4582,-2.4101,-2.4062,-2.4043,-2.4043,-2.4043,-2.3822,-2.3417,-2.2623,-2.1828,-2.1054,-2.0166,-1.9791,-1.9564,0.0,0.0,0.0,0.0,0.0,0.0,0.0,0.0,0.0,0.0,0.0,0.0,0.0,0.0,0.0,0.0,0.0,0.0,0.0,0.0,0.0,0.0,0.0,0.0,0.0,0.0,0.0,0.0,0.0,0.0,0.0,0.0,0.0,0.0,0.0,0.0,0.0,0.0,0.0,0.0,0.0,0.0,-4.0819,-3.8286,-3.7482,-3.7672,-3.6946,-3.6538,-3.6201,-3.5232,-3.4591,-3.3972,-3.2754,-3.0196,-2.6995,-2.3715,-2.1979,0.0,0.0,0.0,0.0,0.0,0.0,0.0,0.0,0.0,-2.2745,-2.4913,-2.6177,-2.7382,-2.899,-3.1076,-3.2929,-3.4165,-3.5297,-3.6062,-3.6062,-3.5926,-3.5447,-3.4355,-3.3337,-3.2425,-3.1698,-3.0835,-2.9841,-2.8642,-2.8127,-2.7644,-2.714,-2.7224,-2.7321,-2.7344,-2.7669,-2.7911,-2.8027,-2.7392,-2.7459,-2.821,-2.7554,-2.7209,-2.714,-2.7082,-2.6641,-2.589,-2.5659,-2.5457,-2.5303,-2.5303,-2.4928,-2.4351,-2.4361,-2.4051,-2.3462,-2.242,-2.2037,-2.1836,0.0,0.0,0.0,0.0,0.0,0.0,0.0,0.0,0.0,0.0,0.0,0.0,0.0,0.0,0.0,0.0,0.0,0.0,0.0,0.0,0.0,0.0,0.0,0.0,0.0,0.0,0.0,0.0,0.0,0.0,0.0,0.0,0.0,0.0,0.0,0.0,0.0,0.0,0.0,0.0,0.0,0.0,-4.2232,-4.005,-3.8823,-3.8252,-3.7864,-3.565,-3.342,-3.6449,-3.5792,-3.4023,-3.5984,-3.4195,-3.0889,-2.8287,0.0,-2.0254,-1.6443,-1.6043,-1.7029,-1.8297,-2.0182,-2.3017,0.0,0.0,-2.9675,-3.1833,-3.3406,-3.4092,-3.3008,-3.4668,-3.6243,-3.6412,-3.7157,-3.7652,-3.7652,-3.7077,-3.678,-3.7008,-3.5369,-3.3964,-3.3237,-3.1884,-3.1164,-3.1353,-3.0445,-3.0006,-3.0348,-3.0244,-2.9883,-2.9287,-2.8938,-2.8548,-2.8093,-2.8068,-2.8126,-2.8296,-2.8144,-2.8053,-2.8057,-2.7998,-2.7852,-2.7661,-2.6813,-2.6024,-2.5303,-2.5303,-2.5284,-2.5255,-2.5332,-2.5322,-2.512,-2.3464,-2.2891,-2.2904,0.0,0.0,0.0,0.0,0.0,0.0,0.0,0.0,0.0,0.0,0.0,0.0,0.0,0.0,0.0,0.0,0.0,0.0,0.0,0.0,0.0,0.0,0.0,0.0,0.0,0.0,0.0,0.0,0.0,0.0,0.0,0.0,0.0,0.0,0.0,0.0,0.0,0.0,0.0,0.0,0.0,0.0,-4.2905,-4.0635,-3.8954,-3.7633,-3.5764,-3.4653,0.0,0.0,-3.4249,-3.4306,-3.5952,-3.4181,-3.1109,-2.9307,-2.6302,0.0,-2.3775,-2.201,-2.1409,0.0,-2.7848,-2.8904,-3.3107,-3.4406,-3.5074,-3.6383,-3.7483,-3.8024,-3.7398,-3.8058,-3.87,0.0,-3.8616,-3.8506,-3.834,-3.7261,-3.6534,-3.6549,-3.5841,-3.5218,-3.4944,-3.4373,-3.389,-3.3617,-3.3001,-3.2583,-3.2475,-3.2325,-3.1958,-3.1358,-3.0858,-3.0498,-3.0308,-2.9419,-2.9244,-2.9805,-2.9277,-2.9002,-2.9008,-2.8949,-2.8573,-2.7975,-2.7593,-2.7189,-2.6813,-2.6813,-2.6851,-2.6919,-2.6939,-2.6718,-2.6216,-2.5007,-2.459,-2.4531,0.0,0.0,0.0,0.0,0.0,0.0,0.0,0.0,0.0,0.0,0.0,0.0,0.0,0.0,0.0,0.0,0.0,0.0,0.0,0.0,0.0,0.0,0.0,0.0,0.0,0.0,0.0,0.0,0.0,0.0,0.0,0.0,0.0,0.0,0.0,0.0,0.0,0.0,0.0,0.0,0.0,0.0,-4.2873,-4.023,-3.8113,-3.6203,-3.3603,-3.2629,0.0,0.0,-3.1002,-3.1855,-3.3261,-3.204,-2.9798,-2.8506,-2.5918,-2.4157,-2.7327,-2.6116,-2.5637,-3.2704,-3.431,-3.4908,-3.7682,-3.8886,-3.958,-4.0104,-4.0442,-4.066,-4.066,-4.0319,-4.0146,-4.0528,-3.9802,-3.9196,-3.9181,-3.7833,-3.6741,-3.645,-3.6061,-3.5883,-3.6057,-3.6025,-3.5758,-3.5116,-3.4878,-3.4654,-3.4455,-3.4207,-3.3828,-3.3309,-3.2779,-3.2424,-3.2266,-3.1115,-3.0787,-3.125,-3.0625,-3.0195,-2.9961,-2.9863,-2.9442,-2.8764,-2.8502,-2.8332,-2.8245,-2.8014,-2.8093,-2.8326,-2.8116,-2.772,-2.7209,-2.6621,-2.6103,-2.5605,0.0,0.0,0.0,0.0,0.0,0.0,0.0,0.0,0.0,0.0,0.0,0.0,0.0,0.0,0.0,0.0,0.0,0.0,0.0,0.0,0.0,0.0,0.0,0.0,0.0,0.0,0.0,0.0,0.0,0.0,0.0,0.0,0.0,0.0,0.0,0.0,0.0,0.0,0.0,0.0,0.0,0.0,-4.1992,-3.8781,-3.6131,-3.3899,-3.2238,0.0,0.0,0.0,-2.5987,-2.5187,-2.752,-2.7867,0.0,-2.6033,-2.2351,-1.9446,-2.3338,-2.5306,-2.7512,-3.2576,-3.7405,-4.1119,-4.1948,-4.2709,-4.3267,-4.3284,-4.2638,-4.205,-4.205,-4.0804,-4.0234,-4.1558,-4.0639,-3.9956,-4.0458,-3.9217,-3.8138,-3.7774,-3.6438,-3.5729,-3.6245,-3.6119,-3.5865,-3.5519,-3.5512,-3.5878,-3.6577,-3.6104,-3.5569,-3.503,-3.4506,-3.3884,-3.3167,-3.3188,-3.2832,-3.2168,-3.2129,-3.168,-3.0859,-3.0723,-3.0683,-3.0662,-2.9752,-2.9279,-2.9094,-2.8318,-2.8506,-2.9166,-2.8398,-2.8158,-2.8261,-2.8232,-2.7151,-2.5703,0.0,0.0,0.0,0.0,0.0,0.0,0.0,0.0,0.0,0.0,0.0,0.0,0.0,0.0,0.0,0.0,0.0,0.0,0.0,0.0,0.0,0.0,0.0,0.0,0.0,0.0,0.0,0.0,0.0,0.0,0.0,0.0,0.0,0.0,0.0,0.0,0.0,0.0,0.0,0.0,0.0,0.0,-3.9496,-3.5735,-3.2495,-2.9617,0.0,0.0,0.0,0.0,0.0,0.0,-2.5058,0.0,0.0,-2.2305,-2.2464,-2.3668,-2.8667,-3.1368,-3.3904,-3.8722,-4.2091,-4.4384,-4.5111,-4.5094,-4.4654,-4.3623,-4.0998,-3.8622,-3.7577,-3.5127,-3.4088,-3.6688,-3.7132,-3.7875,-4.0045,-3.9888,-3.9068,-3.7767,-3.7137,0.0,-3.4798,-3.6067,-3.7028,-3.71,-3.7589,-3.7973,-3.8085,-3.7924,-3.7584,-3.7037,-3.5806,-3.5059,-3.4859,-3.3824,-3.3203,-3.3008,-3.3008,-3.2832,-3.2559,-3.2519,-3.248,-3.2441,-3.2124,-3.1932,-3.1837,-3.156,-3.1646,-3.1865,-3.1013,-3.0418,-2.9962,-2.9374,-2.8424,-2.7344,0.0,0.0,0.0,0.0,0.0,0.0,0.0,0.0,0.0,0.0,0.0,0.0,0.0,0.0,0.0,0.0,0.0,0.0,0.0,0.0,0.0,0.0,0.0,0.0,0.0,0.0,0.0,0.0,0.0,0.0,0.0,0.0,0.0,0.0,0.0,0.0,0.0,0.0,0.0,0.0,0.0,0.0,-3.5744,-3.2318,-2.9259,0.0,0.0,0.0,0.0,0.0,0.0,0.0,0.0,-2.099,-1.9855,-2.1869,-2.3286,-2.5696,-3.2559,-3.5574,-3.7974,-4.2792,-4.5218,-4.6549,-4.6752,-4.6227,-4.51,-4.2925,-3.9686,-3.6661,-3.4719,-3.187,-3.0932,-3.4351,-3.4848,-3.606,-3.9586,-3.9855,-3.9322,-3.8456,-3.8195,-3.7479,0.0,0.0,-3.8375,-3.7515,-3.8771,-3.9596,-3.968,-3.97,-3.9449,-3.8911,-3.7603,-3.6829,-3.6631,-3.5606,-3.4835,-3.4316,-3.3691,-3.3555,-3.3848,-3.3535,-3.3555,-3.3789,-3.3476,-3.347,-3.368,-3.3361,-3.3442,-3.3641,-3.2466,-3.1734,-3.1269,-3.0391,-2.9512,-2.8633,0.0,0.0,0.0,0.0,0.0,0.0,0.0,0.0,0.0,0.0,0.0,0.0,0.0,0.0,0.0,0.0,0.0,0.0,0.0,0.0,0.0,0.0,0.0,0.0,0.0,0.0,0.0,0.0,0.0,0.0,0.0,0.0,0.0,0.0,0.0,0.0,0.0,0.0,0.0,0.0,0.0,0.0,-3.0998,-2.8667,0.0,0.0,0.0,0.0,0.0,0.0,0.0,0.0,0.0,-1.9263,-2.0615,-2.4783,-2.5026,-2.5888,-3.4816,-3.7939,-3.9853,-4.4609,-4.687,-4.7733,-4.6972,-4.6075,-4.4555,-4.1288,-3.8485,-3.5812,0.0,0.0,-3.0578,-3.4347,-3.396,-3.4782,-3.9392,-3.9405,-3.9203,0.0,0.0,0.0,0.0,0.0,-3.9797,-3.7131,-3.9141,-4.0779,-4.1359,-4.1399,-4.115,-4.0642,-3.9796,-3.9056,-3.8425,-3.8354,-3.7566,-3.6055,-3.4394,-3.4004,-3.4746,-3.3965,-3.4043,-3.4785,-3.3965,-3.4023,-3.4668,-3.3809,-3.3921,-3.4494,-3.281,-3.2221,-3.2226,-3.1348,-3.0488,-2.9609,0.0,0.0,0.0,0.0,0.0,0.0,0.0,0.0,0.0,0.0,0.0,0.0,0.0,0.0,0.0,0.0,0.0,0.0,0.0,0.0,0.0,0.0,0.0,0.0,0.0,0.0,0.0,0.0,0.0,0.0,0.0,0.0,0.0,0.0,0.0,0.0,0.0,0.0,0.0,0.0,0.0,0.0,-2.7805,0.0,0.0,0.0,0.0,0.0,0.0,0.0,0.0,0.0,0.0,-2.4006,-2.5955,-3.0054,-3.1987,-3.4047,-3.9853,-4.3014,-4.5072,-4.6887,-4.7648,-4.7733,-4.6972,-4.4323,-4.1312,-3.8648,-3.3688,-2.924,0.0,0.0,0.0,-3.0964,-3.3283,0.0,-4.102,-4.2029,0.0,-4.1263,0.0,-4.0622,-3.9665,-4.0382,-4.07,-4.0224,-4.1345,-4.2214,-4.2618,-4.2635,-4.2593,-4.2431,-4.0969,-4.0177,-4.0154,-3.9078,-3.8004,-3.6953,-3.6523,-3.6074,-3.5684,-3.6113,-3.6426,-3.6621,-3.6406,-3.6426,-3.6543,-3.5664,-3.5444,-3.5529,-3.4443,-3.4033,-3.3965,-3.3086,-3.2246,-3.1504,0.0,0.0,0.0,0.0,0.0,0.0,0.0,0.0,0.0,0.0,0.0,0.0,0.0,0.0,0.0,0.0,0.0,0.0,0.0,0.0,0.0,0.0,0.0,0.0,0.0,0.0,0.0,0.0,0.0,0.0,0.0,0.0,0.0,0.0,0.0,0.0,0.0,0.0,0.0,0.0,0.0,0.0,0.0,0.0,0.0,0.0,0.0,0.0,0.0,0.0,0.0,-2.5063,-2.7504,-2.9401,-3.1517,-3.5653,0.0,-3.9457,-4.4182,-4.6857,-4.8342,-4.8765,-4.8392,-4.7251,-4.4678,-4.1574,-3.8079,-3.3774,-2.9402,0.0,-2.4081,-2.3516,0.0,0.0,0.0,0.0,-4.0561,-4.1937,-4.2507,0.0,-4.281,0.0,-4.2117,-4.2612,-4.3042,-4.3216,-4.3196,-4.3292,-4.3607,-4.3624,-4.3624,-4.3624,-4.2335,-4.1735,-4.1931,-4.0485,-3.9492,-3.9004,-3.8242,-3.7617,-3.7168,-3.7656,-3.7871,-3.7871,-3.7871,-3.7871,-3.7793,-3.6934,-3.6562,-3.6445,-3.5195,-3.4707,-3.459,-3.3711,-3.3105,-3.2734,0.0,0.0,0.0,0.0,0.0,0.0,0.0,0.0,0.0,0.0,0.0,0.0,0.0,0.0,0.0,0.0,0.0,0.0,0.0,0.0,0.0,0.0,0.0,0.0,0.0,0.0,0.0,0.0,0.0,0.0,0.0,0.0,0.0,0.0,0.0,0.0,0.0,0.0,0.0,0.0,0.0,0.0,0.0,0.0,0.0,0.0,0.0,0.0,0.0,0.0,-2.8026,-3.0356,-3.31,-3.5064,-3.7106,-4.1049,-4.2282,-4.3301,-4.7705,-4.9462,-5.0067,-4.9965,-4.8781,-4.6343,-4.1403,-3.8405,-3.4833,-2.8268,0.0,-2.3929,-2.2253,-2.2708,-2.4722,-2.8968,0.0,-3.4641,-3.9737,-4.0951,-4.2013,-4.386,-4.4447,-4.48,-4.5118,-4.5419,-4.5586,-4.5586,-4.4691,-4.4231,-4.447,-4.447,-4.4432,-4.4316,-4.3662,-4.3347,-4.3421,-4.2165,-4.1426,-4.1172,-3.9668,-3.8828,-3.8594,-3.8711,-3.8769,-3.8769,-3.8769,-3.8768,-3.868,-3.7802,-3.7434,-3.7283,-3.5781,-3.5117,-3.4922,-3.4199,-3.3769,-3.3574,0.0,0.0,0.0,0.0,0.0,0.0,0.0,0.0,0.0,0.0,0.0,0.0,0.0,0.0,0.0,0.0,0.0,0.0,0.0,0.0,0.0,0.0,0.0,0.0,0.0,0.0,0.0,0.0,0.0,0.0,0.0,0.0,0.0,0.0,0.0,0.0,0.0,0.0,0.0,0.0,0.0,0.0,0.0,0.0,0.0,0.0,0.0,0.0,0.0,0.0,-3.14,-3.3149,-3.7668,-4.0342,-4.2302,-4.5043,-4.6316,-4.7251,-4.9321,-5.0006,-4.9949,-4.934,-4.7631,-4.48,-3.9894,-3.5963,0.0,0.0,-2.2483,-2.0721,-2.0233,-2.1408,-2.4657,-3.1483,-3.3255,-3.5991,-4.2389,-4.2846,-4.2994,0.0,-4.4806,-4.514,-4.5495,-4.5568,0.0,-4.5586,-4.5433,-4.532,-4.5374,-4.5355,-4.5103,-4.4468,-4.4451,-4.4155,-4.3559,-4.3363,-4.2578,-4.1191,-4.0898,-3.998,-3.8613,-3.9355,-3.9668,-3.9668,-3.9668,-3.9604,-3.9445,-3.8582,-3.819,-3.8104,-3.7844,-3.7324,-3.668,-3.6641,-3.5703,-3.4473,0.0,0.0,0.0,0.0,0.0,0.0,0.0,0.0,0.0,0.0,0.0,0.0,0.0,0.0,0.0,0.0,0.0,0.0,0.0,0.0,0.0,0.0,0.0,0.0,0.0,0.0,0.0,0.0,0.0,0.0,0.0,0.0,0.0,0.0,0.0,0.0,0.0,0.0,0.0,0.0,0.0,0.0,0.0,0.0,0.0,0.0,0.0,0.0,0.0,0.0,-2.8485,-3.1923,-3.9372,-4.3423,-4.5033,-4.3031,-4.5832,-4.9188,-4.734,-4.9016,-5.098,-4.9847,-4.7327,-4.3464,-3.7205,0.0,0.0,0.0,-2.0231,-1.9373,-1.9156,-2.0496,0.0,-2.7994,-3.0367,-3.3584,-3.9305,-4.0672,0.0,-4.4334,-4.4896,-4.5222,-4.5568,-4.5586,-4.5586,-4.5586,-4.5586,-4.5586,-4.5586,-4.5586,-4.5449,-4.5084,-4.5249,-4.5163,-4.48,-4.4512,-4.3965,-4.3164,-4.2266,-4.1387,-4.0586,-4.0586,-4.0586,-4.0586,-4.0586,-4.0493,-4.0315,-3.9438,-3.9042,-3.8938,-3.8548,-3.8142,-3.7793,-3.793,-3.7168,-3.6055,0.0,0.0,0.0,0.0,0.0,0.0,0.0,0.0,0.0,0.0,0.0,0.0,0.0,0.0,0.0,0.0,0.0,0.0,0.0,0.0,0.0,0.0,0.0,0.0,0.0,0.0,0.0,-0.8621,0.0,0.0,0.0,0.0,0.0,0.0,0.0,0.0,0.0,0.0,0.0,0.0,0.0,0.0,0.0,0.0,0.0,0.0,0.0,0.0,0.0,0.0,-2.4497,-2.9007,-3.7434,-4.2136,-4.3825,-4.0127,-4.3922,-4.87,-4.5917,-4.8447,-5.1471,-4.9999,-4.6955,-4.238,-3.4853,-3.0853,0.0,-1.9943,-1.8446,-1.8359,-1.8354,0.0,-2.1154,0.0,-2.6758,-3.0167,-3.5901,-3.8075,-4.0438,0.0,-4.4893,0.0,-4.5568,-4.5586,-4.5586,-4.5586,-4.5586,-4.5586,-4.5586,-4.5586,-4.5605,-4.5624,-4.5809,-4.591,-4.5949,-4.5495,-4.5176,-4.498,-4.3613,-4.2851,-4.2656,-4.1836,-4.1465,-4.1445,-4.1269,-4.11,-4.0891,-4.0211,-3.9877,-3.9723,-3.9131,-3.8802,-3.8666,-3.8789,-3.8184,-3.7305,0.0,0.0,0.0,0.0,0.0,0.0,0.0,0.0,0.0,0.0,0.0,0.0,0.0,0.0,0.0,0.0,0.0,0.0,0.0,0.0,0.0,0.0,0.0,0.0,0.0,0.0,0.0,-0.7712,-0.7652,0.0,0.0,0.0,0.0,0.0,0.0,-0.877,0.0,0.0,0.0,0.0,0.0,0.0,0.0,0.0,0.0,0.0,0.0,0.0,0.0,0.0,0.0,-2.5503,-2.9685,-3.2706,-3.5555,-3.9841,0.0,0.0,-4.8338,-4.9812,-4.9949,-4.8477,-4.5805,-4.1529,-3.3995,0.0,-2.5973,-1.913,-1.7129,-1.6831,-1.748,-1.7128,-1.8802,0.0,0.0,-2.7241,0.0,-3.7624,-3.9299,-4.3373,0.0,0.0,-4.5586,-4.5586,-4.5586,-4.5586,-4.5586,-4.5586,-4.5586,-4.5586,-4.5643,-4.5776,-4.5849,-4.596,-4.6072,-4.6152,-4.5781,-4.5,-4.4844,-4.4355,-4.3555,-4.2676,-4.2285,-4.2246,-4.1523,-4.1046,-4.0809,-4.0745,-4.06,-4.0412,-4.0469,-4.0087,-3.9494,-3.9563,-3.8613,-3.7305,0.0,0.0,0.0,0.0,0.0,0.0,0.0,0.0,0.0,0.0,0.0,0.0,0.0,0.0,0.0,0.0,0.0,0.0,0.0,0.0,0.0,0.0,0.0,0.0,0.0,0.0,0.0,0.0,-0.679,0.0,0.0,0.0,0.0,0.0,0.0,-0.8118,-0.93,0.0,0.0,0.0,0.0,0.0,0.0,0.0,0.0,0.0,0.0,0.0,0.0,0.0,0.0,0.0,-2.1132,-2.3089,0.0,0.0,-3.6867,-4.2568,-4.1568,-4.5603,-4.9746,-4.8291,-4.4637,-3.9691,-3.3,0.0,-2.4093,-1.8067,-1.6594,-1.6335,-1.6153,-1.5854,-1.6838,0.0,0.0,0.0,-3.0386,-3.2447,-3.5315,-4.0862,-4.2583,0.0,0.0,0.0,-4.5586,-4.5586,-4.5586,-4.5586,-4.5586,-4.5586,-4.5643,-4.5796,-4.5873,-4.5959,-4.6094,-4.6222,-4.6133,-4.5781,-4.5254,-4.4824,-4.4453,-4.3574,-4.3183,-4.3144,-4.2285,-4.2084,-4.2274,-4.1241,-4.1043,-4.1354,-4.0889,-4.0554,-4.0347,-4.0444,-3.9746,-3.8769,0.0,0.0,0.0,0.0,0.0,0.0,0.0,0.0,0.0,0.0,0.0,0.0,0.0,0.0,0.0,0.0,0.0,0.0,0.0,0.0,0.0,0.0,0.0,0.0,0.0,0.0,0.0,0.0,0.0,0.0,0.0,0.0,-0.566,-0.6646,0.0,0.0,0.0,0.0,0.0,0.0,0.0,0.0,0.0,0.0,0.0,0.0,0.0,0.0,0.0,0.0,0.0,0.0,0.0,0.0,0.0,0.0,-3.1201,-3.7982,-3.7214,-4.2009,-4.7238,-4.7186,-4.3167,-3.7669,0.0,0.0,-2.2227,-1.7331,-1.6176,-1.5875,-1.5328,-1.5204,-1.5752,0.0,0.0,-2.055,-2.599,-2.8656,-3.1917,0.0,0.0,-4.1224,-4.35,-4.487,-4.5586,-4.5586,-4.5586,-4.5586,-4.5586,-4.5624,-4.5699,-4.5796,-4.5911,-4.6007,-4.6103,-4.6228,-4.6308,-4.6289,-4.5683,-4.5371,-4.5351,-4.4473,-4.4082,-4.4023,-4.2891,-4.28,-4.3312,-4.1583,-4.1319,-4.1944,-4.1065,-4.0781,-4.0868,-4.0979,-4.0469,-3.9766,0.0,0.0,0.0,0.0,0.0,0.0,0.0,0.0,0.0,0.0,0.0,0.0,0.0,0.0,0.0,0.0,0.0,0.0,0.0,0.0,0.0,0.0,0.0,0.0,0.0,0.0,0.0,0.0,0.0,0.0,0.0,0.0,-0.5852,-0.5834,0.0,0.0,0.0,0.0,0.0,0.0,0.0,0.0,0.0,0.0,0.0,0.0,0.0,0.0,0.0,0.0,0.0,0.0,0.0,0.0,0.0,0.0,-2.6061,-2.9405,-3.7929,-4.0428,-4.1417,-4.4709,-4.1241,-3.5786,0.0,0.0,-2.0551,-1.7112,-1.5759,-1.5236,-1.5293,-1.524,-1.5763,-1.751,0.0,0.0,-2.4717,-2.7612,-2.9882,0.0,0.0,-3.751,-3.9194,-4.315,-4.5586,-4.5586,-4.5586,-4.5586,-4.5586,-4.5738,-4.5796,-4.5796,-4.5988,-4.6103,-4.6103,-4.6228,-4.6308,-4.6308,-4.6289,-4.6289,-4.6269,-4.5371,-4.498,-4.4883,-4.3144,-4.2851,-4.3454,-4.1732,-4.1423,-4.2005,-4.1141,-4.0884,-4.0985,-4.1001,-4.0518,-3.9902,0.0,0.0,0.0,0.0,0.0,0.0,0.0,0.0,0.0,0.0,0.0,0.0,0.0,0.0,0.0,0.0,0.0,0.0,0.0,0.0,0.0,0.0,0.0,0.0,0.0,0.0,0.0,0.0,0.0,0.0,0.0,0.0,0.0,0.0,-0.5901,0.0,0.0,0.0,0.0,0.0,0.0,0.0,0.0,0.0,0.0,0.0,0.0,0.0,0.0,0.0,0.0,0.0,0.0,0.0,0.0,0.0,0.0,0.0,-2.9174,-3.2629,-3.5629,-3.5601,-3.2702,-2.8918,-2.5541,0.0,-1.8484,-1.6021,-1.5383,-1.5265,-1.5298,-1.5272,-1.582,-1.7518,-1.7859,0.0,0.0,0.0,0.0,-3.3026,-3.8998,-4.3031,0.0,-4.4831,-4.5586,-4.5586,-4.5586,-4.5586,-4.5586,-4.5738,-4.5812,-4.5863,-4.602,-4.6137,-4.624,-4.6282,-4.6308,-4.6308,-4.6308,-4.6308,-4.6289,-4.6016,-4.5566,-4.4961,-4.4414,-4.4277,-4.4297,-4.2596,-4.2374,-4.2967,-4.1412,-4.0883,-4.1011,-4.0997,-4.0855,-4.0654,0.0,0.0,0.0,0.0,0.0,0.0,0.0,0.0,0.0,0.0,0.0,0.0,0.0,0.0,0.0,0.0,0.0,0.0,0.0,0.0,0.0,0.0,0.0,0.0,0.0,0.0,0.0,0.0,0.0,0.0,0.0,0.0,0.0,0.0,0.0,0.0,0.0,0.0,0.0,0.0,0.0,0.0,-0.9957,0.0,0.0,0.0,0.0,0.0,0.0,0.0,0.0,0.0,0.0,0.0,0.0,0.0,-1.8829,0.0,0.0,-2.7244,-2.9828,-3.0367,-2.7885,0.0,0.0,0.0,0.0,0.0,-1.5265,-1.535,-1.5342,-1.5615,-1.6169,-1.7176,-1.7952,-1.8951,0.0,0.0,0.0,-3.2791,0.0,0.0,-4.3667,-4.485,-4.5586,-4.5586,-4.5586,-4.5586,-4.5586,-4.5757,-4.5854,-4.5898,-4.6042,-4.6169,-4.6308,-4.6308,-4.6308,-4.6308,-4.6308,-4.6308,-4.6308,-4.6308,-4.5996,-4.5449,-4.4805,-4.4648,0.0,-4.2715,-4.2377,-4.2994,-4.1533,-4.0994,-4.1071,-4.1025,-4.1036,-4.1053,0.0,0.0,0.0,0.0,0.0,0.0,0.0,0.0,0.0,0.0,0.0,0.0,0.0,0.0,0.0,0.0,0.0,0.0,0.0,0.0,0.0,0.0,0.0,0.0,0.0,0.0,0.0,0.0,-0.658,-0.6929,-0.6209,0.0,0.0,0.0,0.0,0.0,0.0,0.0,0.0,0.0,0.0,0.0,0.0,0.0,0.0,0.0,0.0,0.0,0.0,0.0,0.0,0.0,0.0,0.0,0.0,0.0,0.0,0.0,0.0,0.0,0.0,0.0,0.0,0.0,0.0,0.0,0.0,0.0,0.0,0.0,-1.5381,-1.6108,-1.6678,-1.6611,-1.8105,-1.9289,0.0,-2.2581,0.0,0.0,-3.6693,-4.0043,-4.0804,-4.3744,-4.5586,-4.5586,-4.5586,-4.5586,-4.5586,-4.5776,-4.589,-4.5905,-4.6021,-4.6152,-4.6308,-4.6308,-4.6308,-4.6308,-4.6308,-4.6308,-4.6308,-4.6308,-4.6269,-4.6113,-4.4551,-4.4277,-4.4726,-4.2344,-4.1777,-4.2324,-4.1504,-4.1191,-4.1188,-4.1064,-4.1082,-4.1144,0.0,0.0,0.0,0.0,0.0,0.0,0.0,0.0,0.0,0.0,0.0,0.0,0.0,0.0,0.0,0.0,0.0,0.0,0.0,0.0,0.0,0.0,0.0,0.0,0.0,0.0,0.0,-0.6003,-0.6318,-0.6644,-0.6959,-0.7251,0.0,0.0,0.0,0.0,0.0,0.0,0.0,0.0,0.0,0.0,0.0,0.0,0.0,0.0,-1.0011,-1.0001,0.0,0.0,0.0,0.0,0.0,0.0,0.0,0.0,-1.4717,-1.5779,-1.7106,0.0,-1.8185,-1.8517,-1.7858,-1.7049,0.0,0.0,0.0,0.0,0.0,0.0,0.0,0.0,-1.667,-1.6599,-1.8082,-1.9455,-2.0102,0.0,0.0,-3.5349,-4.066,-4.3943,-4.3481,-4.4754,-4.5586,-4.5586,-4.5586,-4.5586,-4.5586,-4.5624,-4.575,-4.5897,-4.5924,-4.6065,-4.6308,-4.6308,-4.6308,-4.6308,-4.6308,-4.6308,-4.6308,-4.6308,-4.5937,-4.5312,-4.5586,-4.5058,-4.3965,-4.3359,-4.2832,-4.2324,-4.1504,-4.1191,-4.1188,-4.1064,-4.1026,-4.1021,0.0,0.0,0.0,0.0,0.0,0.0,0.0,0.0,0.0,0.0,0.0,0.0,0.0,0.0,0.0,0.0,0.0,0.0,0.0,0.0,0.0,0.0,0.0,0.0,0.0,0.0,0.0,0.0,0.0,-0.6928,0.0,0.0,0.0,0.0,0.0,0.0,0.0,0.0,0.0,0.0,-0.8479,0.0,0.0,0.0,0.0,0.0,-0.9974,-0.9968,0.0,-1.0006,-1.0334,-1.0751,0.0,0.0,0.0,0.0,-1.4284,-1.5243,-1.5212,-1.5491,-1.5703,-1.5253,-1.5185,-1.5211,0.0,0.0,0.0,0.0,0.0,0.0,0.0,0.0,0.0,0.0,-1.9052,0.0,0.0,0.0,-3.5473,-3.7197,-4.1894,-4.497,-4.4893,-4.5316,-4.5586,-4.5586,-4.5586,-4.5586,-4.5586,-4.5643,-4.5761,-4.5899,-4.5959,-4.6092,-4.6308,-4.6308,-4.6308,-4.6308,-4.6308,-4.6308,-4.6308,-4.6308,-4.6035,-4.5605,-4.5664,-4.4941,-4.3672,-4.3262,-4.2617,-4.1816,-4.1367,-4.1169,-4.1089,-4.0953,-4.0899,-4.087,0.0,0.0,0.0,0.0,0.0,0.0,0.0,0.0,0.0,0.0,0.0,0.0,0.0,0.0,0.0,0.0,0.0,0.0,0.0,0.0,0.0,0.0,0.0,0.0,0.0,0.0,0.0,0.0,0.0,0.0,0.0,0.0,0.0,0.0,0.0,0.0,0.0,0.0,0.0,0.0,-0.7732,0.0,0.0,0.0,0.0,0.0,0.0,0.0,0.0,-1.0006,-1.0044,-1.0095,-1.0091,0.0,0.0,0.0,0.0,0.0,-1.5171,-1.5152,-1.5101,-1.5114,-1.5168,-1.5236,0.0,0.0,0.0,0.0,0.0,0.0,0.0,0.0,0.0,0.0,0.0,0.0,-2.9342,-3.3575,-3.6735,-3.7945,-4.1879,-4.4739,-4.5336,-4.5509,-4.5586,-4.5586,-4.5586,-4.5586,-4.5586,-4.5719,-4.5796,-4.5873,-4.5987,-4.6131,-4.6269,-4.6289,-4.6308,-4.6308,-4.6172,-4.6094,-4.6094,-4.5957,-4.5898,-4.5859,-4.5117,-4.4316,-4.3437,-4.2695,-4.1933,-4.1191,-4.1191,-4.113,-4.1012,-4.0867,-4.08,-4.0773,0.0,0.0,0.0,0.0,0.0,0.0,0.0,0.0,0.0,0.0,0.0,0.0,0.0,0.0,0.0,0.0,0.0,0.0,0.0,0.0,0.0,0.0,0.0,0.0,0.0,0.0,0.0,0.0,0.0,0.0,-0.8335,-0.9135,-0.904,0.0,0.0,0.0,0.0,-0.6611,-0.6963,-0.7328,-0.8686,0.0,0.0,0.0,0.0,0.0,0.0,0.0,0.0,-0.9995,-1.0039,-1.0104,-1.0094,0.0,0.0,0.0,0.0,0.0,-1.5003,-1.5152,-1.5113,-1.5171,-1.5234,-1.5289,0.0,0.0,0.0,0.0,0.0,0.0,0.0,0.0,0.0,0.0,0.0,-3.0094,0.0,0.0,-3.9386,-3.8233,-4.2429,-4.5163,-4.4566,-4.5163,-4.5586,-4.5586,-4.5586,-4.5586,-4.5586,-4.5605,-4.5699,-4.5815,-4.5891,-4.5994,-4.6133,-4.623,-4.6308,-4.6289,-4.5547,-4.5195,-4.5176,-4.4433,-4.4101,-4.4082,-4.3965,-4.3398,-4.2598,-4.2461,-4.1933,-4.1191,-4.1191,-4.1188,-4.1135,-4.0887,-4.08,-4.0773,0.0,0.0,0.0,0.0,0.0,0.0,0.0,0.0,0.0,0.0,0.0,0.0,0.0,0.0,0.0,0.0,0.0,0.0,0.0,0.0,0.0,0.0,0.0,0.0,0.0,0.0,0.0,0.0,0.0,-0.8249,-0.8576,-0.9239,-0.9318,-0.8848,0.0,0.0,0.0,-0.6208,-0.6602,-0.7886,0.0,0.0,0.0,0.0,0.0,0.0,0.0,0.0,0.0,0.0,-1.0076,-1.0113,-1.014,0.0,0.0,0.0,0.0,0.0,-1.4964,-1.5199,-1.5534,-1.692,-1.6231,-1.5376,0.0,0.0,0.0,0.0,0.0,0.0,0.0,0.0,-2.3925,-2.8762,0.0,-3.4658,-3.6793,-3.9499,-4.1147,-4.0829,-4.323,-4.4932,-4.4989,-4.5355,-4.5586,-4.5586,-4.5586,-4.5586,-4.5586,-4.5586,-4.5643,-4.5796,-4.5873,-4.5745,-4.5391,-4.5527,-4.582,-4.6289,-4.543,-4.5,-4.4961,-4.4101,-4.3691,-4.3691,-4.3691,-4.3203,-4.2402,-4.2402,-4.1933,-4.1191,-4.1191,-4.1169,-4.1054,-4.0822,-4.0754,-4.0716,0.0,0.0,0.0,0.0,0.0,0.0,0.0,0.0,0.0,0.0,0.0,0.0,0.0,0.0,0.0,0.0,0.0,0.0,0.0,0.0,0.0,0.0,0.0,0.0,0.0,0.0,0.0,-0.7598,-0.8337,-0.8754,-0.8867,-0.936,-0.9577,0.0,0.0,0.0,0.0,-0.6427,-0.6807,-0.8571,0.0,0.0,0.0,0.0,0.0,0.0,0.0,0.0,0.0,0.0,0.0,0.0,0.0,0.0,0.0,-1.2706,-1.3487,-1.4188,-1.4994,-1.5241,-1.5734,-1.7651,0.0,-1.6221,0.0,0.0,0.0,0.0,0.0,0.0,0.0,-2.51,0.0,-3.4103,-3.6876,-3.909,-4.137,-4.2277,-4.2951,-4.3605,-4.422,-4.4874,-4.5528,-4.5586,-4.5586,-4.5586,-4.5586,-4.5586,-4.5586,-4.5586,-4.5643,-4.5796,-4.568,-4.5357,-4.4801,-4.4723,-4.5039,-4.5683,-4.4805,-4.4394,-4.4355,-4.3496,-4.3105,-4.3105,-4.3105,-4.2734,-4.2129,-4.2129,-4.1758,-4.1191,-4.1191,-4.1113,-4.0973,-4.078,-4.0714,-4.0677,0.0,0.0,0.0,0.0,0.0,0.0,0.0,0.0,0.0,0.0,0.0,0.0,0.0,0.0,0.0,0.0,0.0,0.0,0.0,0.0,0.0,0.0,0.0,0.0,0.0,-0.7698,-0.7669,-0.7606,-0.834,-0.9012,-0.9633,-0.9609,-0.9597,0.0,0.0,0.0,0.0,-0.8304,-0.8382,-0.8668,-0.9408,0.0,0.0,0.0,0.0,0.0,0.0,0.0,0.0,0.0,0.0,0.0,0.0,0.0,-1.174,-1.3407,-1.3947,-1.4198,-1.5062,-1.5251,-1.5265,-1.5502,0.0,0.0,0.0,0.0,0.0,0.0,0.0,0.0,0.0,-3.335,-3.6155,-3.7516,-4.0485,-4.3239,-4.4989,-4.5278,-4.5336,-4.5413,-4.547,-4.5528,-4.5586,-4.5586,-4.5586,-4.5586,-4.5586,-4.5586,-4.5586,-4.5586,-4.5643,-4.5796,-4.5143,-4.4795,-4.4804,-4.4128,-4.3828,-4.3887,-4.3008,-4.2598,-4.2558,-4.1758,-4.1387,-4.1387,-4.1387,-4.1348,-4.1289,-4.1289,-4.125,-4.1191,-4.1191,-4.1113,-4.0976,-4.0838,-4.0754,-4.0677,0.0,0.0,0.0,0.0,0.0,0.0,0.0,0.0,0.0,0.0,0.0,0.0,0.0,0.0,0.0,0.0,0.0,0.0,0.0,0.0,0.0,0.0,0.0,-0.8514,-0.8499,-0.8997,-0.9215,-0.9157,-0.9391,-0.9587,-0.9757,-0.9728,0.0,0.0,0.0,0.0,0.0,0.0,-0.8032,-0.9463,-0.9277,-0.9589,0.0,0.0,0.0,0.0,0.0,0.0,0.0,0.0,-1.0197,0.0,0.0,0.0,-1.1632,-1.285,-1.3584,-1.4183,-1.5009,-1.6792,-1.8538,-1.8931,0.0,0.0,0.0,0.0,0.0,0.0,0.0,0.0,0.0,0.0,-3.9354,-4.0235,-4.2316,-4.4259,-4.5432,-4.5586,-4.5586,-4.5586,-4.5586,-4.5586,-4.5586,-4.5586,-4.5586,-4.5586,-4.5586,-4.5586,-4.5586,-4.5586,-4.5413,-4.4991,-4.48,-4.4239,-4.3248,-4.3,-4.2637,-4.2148,-4.2324,-4.2402,-4.2363,-4.1562,-4.1191,-4.1191,-4.1191,-4.1191,-4.1191,-4.1191,-4.1191,-4.1191,-4.1191,-4.1172,-4.1113,-4.0965,-4.0863,-4.0754,0.0,0.0,0.0,0.0,0.0,0.0,0.0,0.0,0.0,0.0,0.0,0.0,0.0,0.0,0.0,0.0,0.0,0.0,0.0,0.0,0.0,0.0,0.0,-0.8591,-0.8588,-0.9642,-1.0035,-0.9719,-0.9911,-0.9936,-0.9831,0.0,0.0,0.0,0.0,0.0,0.0,0.0,0.0,-0.9985,-0.9425,-0.9609,0.0,0.0,0.0,0.0,0.0,0.0,0.0,0.0,0.0,0.0,0.0,0.0,0.0,0.0,-1.3719,-1.454,-1.5057,-1.7346,-1.9684,0.0,0.0,0.0,0.0,0.0,0.0,0.0,0.0,0.0,0.0,0.0,0.0,0.0,-4.3043,-4.4767,-4.5361,-4.5531,-4.5586,-4.5586,-4.5586,-4.5586,-4.5586,-4.5586,-4.5586,-4.5586,-4.5586,-4.547,-4.5201,-4.5182,-4.4874,-4.4166,-4.3967,-4.3384,-4.2342,-4.2128,-4.1738,-4.1211,-4.1758,-4.2012,-4.1992,-4.1445,-4.1191,-4.1191,-4.1191,-4.1191,-4.1191,-4.1191,-4.1191,-4.1191,-4.1191,-4.1191,-4.1172,-4.1055,-4.092,-4.0797,0.0,0.0,0.0,0.0,0.0,0.0,0.0,0.0,0.0,0.0,0.0,0.0,0.0,0.0,0.0,0.0,0.0,0.0,0.0,0.0,0.0,0.0,0.0,-0.7701,-0.7692,-0.9315,-0.9767,-0.8916,-0.9639,-0.9963,-0.9893,0.0,0.0,0.0,0.0,0.0,0.0,0.0,0.0,-1.0094,-1.0094,-1.0143,-1.0203,0.0,0.0,0.0,0.0,0.0,0.0,0.0,0.0,0.0,0.0,0.0,0.0,0.0,-1.4627,-1.5313,-1.5245,-1.6516,0.0,0.0,0.0,0.0,0.0,0.0,0.0,0.0,0.0,0.0,-3.8404,0.0,0.0,-3.9534,-4.2652,-4.5096,-4.5096,-4.54,-4.5586,-4.5586,-4.5586,-4.5586,-4.5586,-4.5586,-4.5566,-4.5566,-4.5566,-4.5201,-4.4335,-4.4297,-4.4011,-4.34,-4.2548,-4.2181,-4.2363,-4.1562,-4.1172,-4.1172,-4.1172,-4.1191,-4.1191,-4.1191,-4.1191,-4.1191,-4.1191,-4.1191,-4.1191,-4.1191,-4.1191,-4.1172,-4.1172,-4.1172,-4.1152,-4.1035,-4.0909,-4.0768,0.0,0.0,0.0,0.0,0.0,0.0,0.0,0.0,0.0,0.0,0.0,0.0,0.0,0.0,0.0,0.0,0.0,0.0,0.0,0.0,0.0,0.0,0.0,0.0,0.0,0.0,-0.8823,-0.9748,-0.9963,-1.0034,0.0,0.0,0.0,0.0,0.0,0.0,0.0,0.0,0.0,-1.0098,-1.0098,-1.0143,-1.0196,0.0,0.0,0.0,0.0,0.0,0.0,0.0,0.0,0.0,0.0,0.0,0.0,-1.3082,-1.5018,-1.7043,-1.7029,-2.0011,0.0,0.0,0.0,0.0,0.0,0.0,0.0,0.0,0.0,0.0,-3.8126,-3.9668,0.0,-4.1267,-4.2913,-4.441,-4.502,-4.54,-4.5586,-4.5586,-4.5586,-4.5355,-4.4739,-4.4682,-4.4451,-4.3874,-4.3835,-4.372,-4.347,-4.3451,-4.2876,-4.1615,-4.1327,-4.0713,-3.9746,-3.9492,-3.9375,-3.9375,-3.998,-4.0605,-4.1172,-4.0566,-4.0625,-4.1172,-4.0547,-4.0625,-4.1191,-4.1191,-4.0488,-3.9434,-4.0059,-3.9902,-3.9375,-3.9336,-3.9607,-4.0024,0.0,0.0,0.0,0.0,0.0,0.0,0.0,0.0,0.0,0.0,0.0,0.0,0.0,0.0,0.0,0.0,0.0,0.0,0.0,0.0,0.0,0.0,0.0,0.0,0.0,-0.7531,-0.8411,0.0,0.0,0.0,0.0,0.0,0.0,0.0,0.0,0.0,0.0,0.0,0.0,-1.0094,-1.0109,-1.0136,-1.0193,0.0,0.0,0.0,0.0,0.0,0.0,0.0,0.0,0.0,0.0,0.0,0.0,-1.2703,-1.4942,-1.7388,-1.7711,0.0,0.0,0.0,0.0,0.0,0.0,0.0,0.0,0.0,0.0,-4.1078,-4.0064,-4.0854,0.0,-4.2669,-4.3253,-4.3836,-4.4484,-4.4595,-4.4605,-4.4605,-4.4605,-4.4393,-4.3874,-4.3816,-4.3624,-4.3143,-4.3104,-4.2797,-4.2104,-4.2066,-4.1377,-3.9849,-3.9816,-3.9427,-3.8613,-3.8594,-3.8594,-3.8613,-3.9121,-3.9668,-4.0156,-3.998,-4.0,-4.0137,-3.9609,-3.9687,-4.0176,-4.0176,-3.9551,-3.8652,-3.918,-3.9062,-3.8594,-3.8594,-3.8848,-3.9236,0.0,0.0,0.0,0.0,0.0,0.0,0.0,0.0,0.0,0.0,0.0,0.0,0.0,0.0,0.0,0.0,0.0,0.0,0.0,0.0,0.0,0.0,0.0,0.0,0.0,0.0,0.0,0.0,0.0,0.0,0.0,0.0,0.0,0.0,0.0,0.0,0.0,0.0,0.0,-1.0109,-1.0097,-1.014,-1.0173,-1.0117,0.0,0.0,0.0,0.0,0.0,0.0,0.0,0.0,0.0,0.0,0.0,-1.2455,-1.4542,-1.6784,0.0,0.0,0.0,0.0,0.0,0.0,0.0,0.0,0.0,0.0,0.0,-4.168,-4.2871,-4.2047,-4.1793,-4.359,-4.3483,-4.3321,-4.364,-4.3349,-4.3104,-4.3104,-4.3104,-4.3066,-4.2989,-4.2989,-4.2912,-4.2777,-4.2758,-4.2027,-4.0354,-4.0258,-3.9627,-3.8235,-3.8188,-3.8238,-3.8359,-3.8359,-3.8359,-3.8359,-3.8437,-3.8437,-3.8398,-3.9277,-3.9238,-3.8496,-3.8574,-3.8555,-3.8496,-3.8574,-3.8516,-3.8379,-3.8457,-3.8437,-3.8359,-3.8359,-3.834,-3.8418,0.0,0.0,0.0,0.0,0.0,0.0,0.0,0.0,0.0,0.0,0.0,0.0,0.0,0.0,0.0,0.0,0.0,0.0,0.0,0.0,0.0,0.0,0.0,0.0,0.0,0.0,0.0,0.0,0.0,0.0,0.0,0.0,0.0,0.0,0.0,0.0,0.0,0.0,0.0,0.0,-1.0105,-1.0119,-1.0116,-1.0101,-1.0144,0.0,0.0,0.0,0.0,0.0,0.0,0.0,0.0,-1.0847,-1.1546,-1.1729,-1.4075,-1.6928,0.0,0.0,0.0,0.0,0.0,0.0,0.0,0.0,0.0,-3.5839,-3.932,-4.2371,-4.0332,-4.1093,-4.2253,-4.2927,-4.2658,-4.2451,-4.2726,-4.2966,-4.3104,-4.3104,-4.3104,-4.2835,-4.2162,-4.2085,-4.1527,-4.0219,-4.0123,-3.9642,-3.8584,-3.8546,-3.8146,-3.7324,-3.7224,-3.6995,-3.6562,-3.6504,-3.6504,-3.6562,-3.7246,-3.7226,-3.6582,-3.7461,-3.7754,-3.7617,-3.8301,-3.8203,-3.7637,-3.832,-3.7793,-3.6621,-3.7305,-3.7168,-3.6562,-3.6562,-3.6973,-3.7559,0.0,0.0,0.0,0.0,0.0,0.0,0.0,0.0,0.0,0.0,0.0,0.0,0.0,0.0,0.0,0.0,0.0,0.0,0.0,0.0,0.0,0.0,0.0,0.0,0.0,0.0,0.0,0.0,0.0,0.0,0.0,0.0,0.0,0.0,0.0,0.0,0.0,0.0,0.0,0.0,0.0,-1.0077,-1.0104,-1.0067,-1.0093,-1.0155,-1.015,0.0,0.0,0.0,0.0,0.0,0.0,0.0,-1.101,-1.1425,-1.3367,-1.5905,0.0,0.0,0.0,0.0,0.0,0.0,0.0,0.0,0.0,-3.835,-4.0559,-4.2478,-4.1074,-4.1767,-4.2581,-4.2634,-4.1765,-4.1347,-4.2068,-4.1637,-4.1412,-4.1816,-4.1854,-4.1527,-4.0681,-4.0604,-4.0065,-3.8777,-3.8681,-3.8296,-3.743,-3.7373,-3.6897,-3.5844,-3.5775,-3.5621,-3.5379,-3.5337,-3.5547,-3.6016,-3.6465,-3.6445,-3.6016,-3.6465,-3.668,-3.6699,-3.7168,-3.7109,-3.6719,-3.7168,-3.6816,-3.6055,-3.6504,-3.6406,-3.5996,-3.5996,-3.6289,-3.6738,0.0,0.0,0.0,0.0,0.0,0.0,0.0,0.0,0.0,0.0,0.0,0.0,0.0,0.0,0.0,0.0,0.0,0.0,0.0,0.0,0.0,0.0,0.0,0.0,0.0,0.0,0.0,0.0,0.0,0.0,0.0,0.0,0.0,0.0,0.0,0.0,0.0,0.0,0.0,0.0,0.0,0.0,0.0,-1.0035,-1.0034,-1.0105,-1.0098,-1.0135,-1.0191,-1.0193,0.0,0.0,0.0,0.0,-1.0471,-1.1332,-1.2637,-1.4468,0.0,0.0,0.0,0.0,0.0,0.0,0.0,0.0,0.0,-4.1241,-4.176,-4.2321,-4.259,-4.2425,-4.2181,-4.2093,-4.0652,-3.9948,-4.0995,-3.995,-3.9315,-3.9988,-4.0065,-3.9796,-3.9142,-3.9084,-3.87,-3.7834,-3.7777,-3.7411,-3.6546,-3.6358,-3.5743,-3.4543,-3.4351,-3.4341,-3.4466,-3.4613,-3.4974,-3.5547,-3.5703,-3.5859,-3.5996,-3.5996,-3.5996,-3.5996,-3.5996,-3.5996,-3.5996,-3.5996,-3.5918,-3.5781,-3.5937,-3.5918,-3.5781,-3.5937,-3.5996,-3.6094,0.0,0.0,0.0,0.0,0.0,0.0,0.0,0.0,0.0,0.0,0.0,0.0,0.0,0.0,0.0,0.0,0.0,0.0,-0.5097,0.0,0.0,-0.5102,0.0,0.0,0.0,0.0,0.0,0.0,0.0,0.0,0.0,0.0,0.0,0.0,0.0,0.0,0.0,0.0,0.0,0.0,0.0,0.0,0.0,0.0,-1.0035,-1.0091,-1.0106,-1.0141,-1.0205,-1.0202,-1.0215,0.0,0.0,0.0,-1.0471,-1.1332,-1.2247,-1.3378,0.0,0.0,0.0,0.0,0.0,0.0,0.0,0.0,-3.8131,0.0,-4.0992,-4.2044,-4.2114,-4.0929,-4.0033,-4.0286,-3.8918,-3.7999,-3.8439,-3.8315,-3.82,-3.8315,-3.8334,-3.8296,-3.818,-3.8161,-3.7815,-3.6949,-3.6873,-3.6526,-3.5699,-3.4999,-3.4581,-3.4505,-3.3761,-3.344,-3.3574,-3.4269,-3.4323,-3.3769,-3.4512,-3.5273,-3.5996,-3.5996,-3.5996,-3.5996,-3.5996,-3.5996,-3.5996,-3.5996,-3.5547,-3.4941,-3.5703,-3.5547,-3.4961,-3.5723,-3.5996,-3.6016,0.0,0.0,0.0,0.0,0.0,0.0,0.0,0.0,0.0,0.0,0.0,0.0,0.0,0.0,0.0,-0.5094,-0.5096,-0.5098,-0.5094,-0.5109,-0.5102,-0.5109,-0.5093,0.0,0.0,0.0,0.0,0.0,0.0,0.0,0.0,-1.1762,-1.2205,0.0,0.0,0.0,0.0,0.0,0.0,0.0,0.0,0.0,0.0,0.0,-1.002,-1.0111,-1.0643,-1.0568,-1.027,-1.0762,-1.0608,-1.0273,-1.0649,0.0,0.0,0.0,-1.1842,0.0,0.0,0.0,0.0,0.0,0.0,0.0,0.0,0.0,-3.6366,-3.688,-3.7699,-3.8728,-3.9933,-3.9551,-3.901,-3.8892,-3.7852,-3.7268,-3.7916,-3.7584,-3.745,-3.795,-3.7565,-3.7084,-3.6642,-3.6161,-3.5507,-3.4641,-3.4564,-3.443,-3.4064,-3.373,-3.341,-3.3045,-3.2705,-3.258,-3.2733,-3.3089,-3.3544,-3.4121,-3.4512,-3.5156,-3.5976,-3.5488,-3.5547,-3.5996,-3.5996,-3.5723,-3.5273,-3.5273,-3.4766,-3.4062,-3.4922,-3.5039,-3.4805,-3.5684,-3.5996,-3.5996,0.0,0.0,0.0,0.0,0.0,0.0,0.0,0.0,0.0,0.0,0.0,0.0,0.0,0.0,0.0,0.0,-0.5097,-0.5097,-0.5108,-0.5109,-0.5105,-0.5091,-0.5097,-0.5104,0.0,0.0,0.0,0.0,0.0,0.0,-1.1293,-1.1882,-1.2702,0.0,-1.3274,0.0,0.0,0.0,0.0,0.0,0.0,0.0,0.0,0.0,0.0,0.0,-1.17,-1.165,-1.1216,-1.1643,-1.1521,-1.1198,-1.1176,-1.1052,0.0,0.0,0.0,0.0,0.0,0.0,0.0,0.0,0.0,0.0,0.0,0.0,-3.4203,0.0,-3.4376,-3.5086,-3.6891,-3.76,-3.7766,-3.742,-3.6815,-3.6546,-3.6969,-3.6469,-3.6219,-3.6642,-3.6142,-3.5507,-3.4911,-3.4257,-3.3603,-3.2949,-3.2891,-3.291,-3.2917,-3.2788,-3.2482,-3.1948,-3.1787,-3.1773,-3.1875,-3.1875,-3.2715,-3.4375,-3.416,-3.4512,-3.5312,-3.4668,-3.4726,-3.5332,-3.5332,-3.4961,-3.4375,-3.4375,-3.3867,-3.3184,-3.4043,-3.4238,-3.418,-3.5019,-3.5488,-3.5664,0.0,0.0,0.0,0.0,0.0,0.0,0.0,0.0,0.0,0.0,0.0,0.0,0.0,-0.5105,-0.5104,-0.5108,-0.5096,-0.5096,-0.5103,-0.5098,-0.5091,-0.5102,-0.5094,0.0,-0.5108,0.0,0.0,0.0,0.0,0.0,-1.12,-1.1245,-1.209,-1.3639,-1.4432,-1.3898,-1.2489,0.0,0.0,0.0,0.0,0.0,0.0,0.0,0.0,0.0,0.0,-1.3744,-1.3595,-1.2876,-1.3206,-1.3894,-1.3829,-1.3283,-1.2842,0.0,0.0,0.0,0.0,0.0,0.0,0.0,0.0,0.0,0.0,0.0,-3.0879,-3.1705,-3.1878,-3.216,-3.3051,-3.4537,-3.5652,-3.5628,-3.5603,-3.5295,-3.4507,-3.4353,-3.4045,-3.3256,-3.3122,-3.3083,-3.3045,-3.2987,-3.2949,-3.2891,-3.2891,-3.2917,-3.3,-3.2346,-3.1975,-3.1993,-3.132,-3.0956,-3.0976,-3.0976,-3.1816,-3.3457,-3.2695,-3.2754,-3.3535,-3.3496,-3.3496,-3.3535,-3.3535,-3.3516,-3.3476,-3.3476,-3.2988,-3.2344,-3.3144,-3.3008,-3.2422,-3.3242,-3.4062,-3.4766,0.0,0.0,0.0,0.0,0.0,0.0,0.0,0.0,0.0,0.0,0.0,0.0,0.0,-0.5094,-0.5095,-0.5096,-0.5098,-0.5094,-0.5102,-0.5097,-0.5094,-0.5096,-0.5094,-0.5103,-0.5108,0.0,0.0,0.0,0.0,-0.9053,-1.0434,-1.0967,-1.1516,-1.2121,-1.3512,-1.3807,-1.3323,-1.4168,0.0,0.0,0.0,0.0,0.0,0.0,0.0,0.0,0.0,0.0,-1.4934,-1.6283,-1.624,-1.5531,-1.4941,-1.4217,-1.3645,-1.4004,-1.45,0.0,0.0,0.0,0.0,0.0,0.0,0.0,0.0,-2.6178,-2.7431,-2.8309,-2.8904,-2.9352,-2.964,-3.1968,-3.3833,-3.3833,-3.3833,-3.3718,-3.341,-3.3372,-3.3256,-3.2949,-3.2449,-3.2122,-3.2122,-3.1621,-3.1314,-3.1371,-3.1333,-3.134,-3.1455,-3.1207,-3.0859,-3.0407,-3.0715,-3.0898,-3.0898,-3.0898,-3.1484,-3.2637,-3.2344,-3.2617,-3.3379,-3.2871,-3.2637,-3.2598,-3.2031,-3.2109,-3.2637,-3.2637,-3.2129,-3.1445,-3.2305,-3.2441,-3.2305,-3.3105,-3.3594,-3.3945,0.0,0.0,0.0,0.0,0.0,0.0,0.0,0.0,0.0,0.0,0.0,0.0,0.0,0.0,-0.5527,-0.5545,-0.554,-0.5417,-0.5116,-0.5091,-0.509,-0.5093,-0.5109,-0.5098,-0.5103,0.0,0.0,0.0,0.0,0.0,0.0,0.0,-1.0911,-1.1226,-1.2326,0.0,0.0,0.0,0.0,-1.3341,0.0,0.0,-1.465,0.0,0.0,0.0,0.0,0.0,-1.7521,-1.896,-1.8699,-1.758,-1.6405,-1.5309,-1.4441,-1.4496,-1.4937,0.0,-1.5399,0.0,0.0,0.0,0.0,0.0,-2.1791,0.0,-2.4797,-2.5648,-2.6708,-2.7544,-2.7852,-2.9717,-3.141,-3.1968,-3.2526,-3.2814,-3.2545,-3.2506,-3.2391,-3.2102,-3.1602,-3.1256,-3.1256,-3.0737,-3.0417,-3.0467,-3.0417,-3.0467,-3.0583,-3.0327,-2.983,-2.9117,-2.9701,-3.0039,-3.0039,-3.0039,-3.0469,-3.1328,-3.1328,-3.1758,-3.2539,-3.2012,-3.1758,-3.1738,-3.1152,-3.123,-3.1758,-3.1758,-3.1426,-3.0957,-3.1543,-3.1758,-3.1836,-3.2363,-3.2754,-3.3125,0.0,0.0,0.0,0.0,0.0,0.0,0.0,0.0,0.0,0.0,0.0,0.0,0.0,0.0,0.0,-0.6447,-0.644,-0.6084,-0.5238,-0.5161,-0.5137,-0.5148,-0.5137,-0.5131,-0.5093,0.0,0.0,0.0,0.0,0.0,0.0,0.0,-1.032,0.0,-1.1084,-1.2048,-1.3717,0.0,-1.4896,-1.5094,0.0,-1.7047,-1.6772,0.0,0.0,0.0,-2.1866,-2.2265,0.0,-2.0696,0.0,0.0,0.0,-1.6596,-1.5306,-1.5306,-1.5348,0.0,0.0,0.0,0.0,0.0,0.0,0.0,-1.9979,0.0,-2.3014,-2.3918,-2.537,-2.6755,-2.7659,-2.7832,-2.839,-3.0025,-3.1679,-3.2487,-3.1698,-3.1583,-3.1275,-3.0417,-3.0321,-3.0321,-3.0321,-3.034,-3.0359,-3.0359,-3.0379,-3.0467,-3.0583,-2.9757,-2.8965,-2.832,-2.8281,-2.8262,-2.8301,-2.8301,-2.8711,-2.9551,-2.959,-3.0039,-3.0859,-3.0898,-3.0898,-3.0898,-3.0898,-3.0898,-3.0898,-3.0898,-3.0898,-3.0898,-3.0898,-3.0898,-3.0898,-3.0898,-3.1445,-3.2285,0.0,0.0,0.0,0.0,0.0,0.0,0.0,0.0,0.0,0.0,0.0,0.0,0.0,0.0,-0.7338,-0.7349,-0.7331,-0.7231,-0.7004,-0.6389,-0.6037,-0.6036,-0.6003,-0.5677,0.0,0.0,0.0,0.0,0.0,0.0,0.0,0.0,0.0,0.0,-1.0904,-1.1791,-1.2884,-1.3682,0.0,0.0,-1.7738,-1.8631,0.0,0.0,0.0,0.0,0.0,-2.3074,-2.2526,-2.3572,-2.3101,-2.1597,0.0,0.0,0.0,0.0,0.0,0.0,-1.5375,0.0,0.0,0.0,0.0,0.0,-1.9012,0.0,-2.0195,-2.3427,-2.4014,-2.4353,-2.5765,-2.6524,-2.7101,-2.7582,-2.8563,-2.9198,-2.8986,-2.8948,-2.8852,-2.8621,-2.8582,-2.8582,-2.8582,-2.9121,-2.9475,-2.9529,-3.0071,-3.0467,-3.0583,-2.9274,-2.8433,-2.8301,-2.7695,-2.7656,-2.8281,-2.8301,-2.8418,-2.8672,-2.9297,-2.9726,-2.998,-3.0605,-3.0898,-3.0898,-3.0898,-3.0898,-3.0898,-3.0898,-3.0898,-3.0898,-3.0898,-3.0898,-3.0898,-3.0898,-3.1055,-3.1387,0.0,0.0,0.0,0.0,0.0,0.0,0.0,0.0,0.0,0.0,0.0,0.0,0.0,0.0,0.0,-0.823,-0.8191,-0.8049,-0.7681,-0.7182,-0.6905,-0.6899,-0.6856,-0.6584,-0.6048,0.0,0.0,0.0,0.0,0.0,0.0,0.0,0.0,0.0,0.0,0.0,0.0,0.0,0.0,0.0,-1.7994,0.0,0.0,-2.2505,-2.264,0.0,0.0,0.0,-2.3938,-2.4957,-2.4188,-2.2256,0.0,0.0,0.0,0.0,0.0,0.0,0.0,0.0,0.0,0.0,0.0,0.0,-1.7282,-1.7764,-1.8793,-2.1917,-2.2468,-2.2882,-2.4505,-2.4935,-2.5174,-2.55,-2.5974,-2.6689,-2.7747,-2.789,-2.789,-2.789,-2.789,-2.789,-2.789,-2.8313,-2.8756,-2.9137,-2.9283,-2.9264,-2.9037,-2.8173,-2.7559,-2.7226,-2.6719,-2.6699,-2.7207,-2.7226,-2.7402,-2.7754,-2.8262,-2.8906,-2.9629,-3.0137,-3.0566,-3.0879,-3.0527,-3.0566,-3.0879,-3.0508,-3.0566,-3.0898,-3.0898,-3.0898,-3.0898,-3.0898,-3.0898,-3.1016,0.0,0.0,0.0,0.0,0.0,0.0,0.0,0.0,0.0,0.0,0.0,0.0,0.0,0.0,0.0,0.0,-0.904,-0.8715,-0.7928,-0.7793,-0.7748,-0.7742,-0.773,-0.7652,-0.7502,0.0,0.0,0.0,0.0,0.0,0.0,0.0,0.0,0.0,0.0,0.0,0.0,0.0,0.0,-1.8859,-1.8184,-1.9419,0.0,0.0,-2.3715,-2.3214,-2.5599,-2.5967,-2.5284,-2.5178,-2.4092,-2.2355,-1.985,-1.8981,-1.8608,0.0,-1.6637,0.0,0.0,0.0,0.0,0.0,-1.5407,0.0,-1.5631,-1.6685,-1.8157,-2.0025,-2.0869,-2.1764,-2.3397,-2.3096,-2.2866,-2.3572,-2.3844,-2.4803,-2.7276,-2.7601,-2.7601,-2.7601,-2.7601,-2.7601,-2.7601,-2.7698,-2.8044,-2.8775,-2.8255,-2.758,-2.6845,-2.6919,-2.6598,-2.5723,-2.5703,-2.5703,-2.5703,-2.5703,-2.6094,-2.6855,-2.6953,-2.7851,-2.9453,-2.9551,-3.0078,-3.0859,-3.0078,-3.0176,-3.084,-3.0059,-3.0195,-3.0898,-3.0898,-3.0898,-3.0898,-3.0898,-3.0898,-3.1016,-0.6229,0.0,0.0,0.0,0.0,0.0,0.0,0.0,0.0,0.0,0.0,0.0,0.0,0.0,0.0,0.0,-0.9915,-0.9847,-0.9629,-0.9007,-0.8626,-0.857,-0.8563,-0.8229,-0.7521,-0.875,0.0,0.0,0.0,0.0,0.0,0.0,0.0,0.0,0.0,0.0,0.0,0.0,0.0,-1.9741,-2.0326,0.0,-2.4619,-2.5686,-2.5543,-2.4841,-2.538,-2.5437,-2.5178,-2.4426,-2.3524,-2.248,-2.1089,-1.9848,-1.8788,-1.8317,-1.7792,0.0,0.0,0.0,-1.6144,-1.5543,-1.5402,0.0,-1.7103,-1.6614,-1.6756,-1.9783,-1.9464,-1.9152,-2.0815,-2.0998,-2.0947,-2.1091,-2.2206,-2.3693,-2.5553,-2.5813,-2.5813,-2.5813,-2.5813,-2.5813,-2.5813,-2.6447,-2.6928,-2.7082,-2.7648,-2.7644,-2.6849,-2.6878,-2.6547,-2.5722,-2.5703,-2.5703,-2.5703,-2.5703,-2.5781,-2.5957,-2.666,-2.7559,-2.8574,-2.9277,-3.0078,-3.0898,-3.0723,-3.0742,-3.0898,-3.0723,-3.0742,-3.0898,-3.0898,-3.0898,-3.0898,-3.0898,-3.0898,-3.0918,-0.6229,0.0,0.0,0.0,0.0,0.0,0.0,0.0,0.0,0.0,0.0,0.0,0.0,0.0,0.0,0.0,0.0,0.0,0.0,-1.0131,-0.9944,-0.9459,-0.9442,-0.9225,-0.8755,-0.95,-0.9273,0.0,0.0,0.0,0.0,0.0,0.0,0.0,0.0,0.0,0.0,0.0,-1.6733,-2.0671,-2.0183,0.0,-2.4602,-2.4996,-2.4913,-2.4657,-2.5028,-2.5214,-2.5158,-2.4253,-2.3668,-2.3197,-2.2552,-2.1316,-2.005,-1.9855,-1.9037,-1.8043,-1.7298,-1.6778,-1.6472,-1.6568,-1.5974,0.0,0.0,-1.6283,-1.6118,-1.8625,-1.8173,-1.7803,-1.9495,-1.9475,-1.9329,-1.9747,-2.0483,-2.1433,-2.2675,-2.4279,-2.5303,-2.5303,-2.5303,-2.5303,-2.5303,-2.5687,-2.5947,-2.5947,-2.6822,-2.6997,-2.6187,-2.6215,-2.6085,-2.5703,-2.5703,-2.5703,-2.5703,-2.5703,-2.5703,-2.5703,-2.6133,-2.6816,-2.7676,-2.8105,-2.8789,-2.9609,-2.9609,-2.9844,-3.0215,-2.9785,-2.9863,-3.0254,-3.0254,-3.0527,-3.0859,-3.041,-3.0527,-3.0898,-0.6015,0.0,0.0,0.0,0.0,0.0,0.0,0.0,0.0,0.0,0.0,0.0,0.0,0.0,0.0,0.0,0.0,0.0,0.0,-1.1177,-1.1139,-1.0594,-1.0264,-1.0068,-1.0003,-0.9941,-0.948,0.0,0.0,0.0,0.0,0.0,0.0,0.0,0.0,0.0,0.0,0.0,0.0,-2.1579,0.0,-2.145,-2.4102,-2.4217,-2.411,-2.4011,-2.4748,-2.5099,-2.5128,-2.4391,-2.4113,-2.4052,-2.3655,-2.2609,-2.1453,-2.1105,-2.0063,-1.8878,-1.8121,-1.7418,-1.7042,-1.7658,-1.6773,-1.5928,0.0,0.0,0.0,-1.7165,-1.6904,-1.6855,-1.8213,-1.7949,-1.7704,-1.8359,-1.8749,-1.9189,-1.9837,-2.2475,-2.4336,-2.4336,-2.4356,-2.4473,-2.4792,-2.5111,-2.5303,-2.5303,-2.6014,-2.6158,-2.5517,-2.5568,-2.5625,-2.5684,-2.5684,-2.5703,-2.5703,-2.5703,-2.5703,-2.5703,-2.5703,-2.6152,-2.6992,-2.6992,-2.748,-2.8301,-2.8301,-2.8789,-2.9551,-2.8848,-2.8965,-2.957,-2.9414,-2.9785,-3.0312,-2.9609,-2.9805,-3.043,-0.5234,-0.5253,0.0,0.0,0.0,0.0,0.0,0.0,0.0,0.0,0.0,0.0,0.0,0.0,0.0,0.0,0.0,0.0,-1.3424,-1.2115,-1.1617,-1.2282,-1.0836,-1.0014,-1.0009,-0.9997,-0.954,-0.8607,0.0,0.0,0.0,0.0,0.0,0.0,-1.0709,0.0,0.0,0.0,-1.9248,0.0,-2.3051,-2.4041,0.0,-2.5983,-2.533,-2.408,-2.4759,-2.5022,-2.4979,-2.4705,-2.4731,-2.4695,-2.3645,-2.2849,-2.2124,-2.126,-2.0462,-1.9696,-1.8887,-1.8685,-1.8568,-1.7953,-1.7658,-1.736,-1.674,0.0,-1.6315,-1.5786,0.0,-1.5603,-1.5801,0.0,0.0,-1.5828,-1.7089,-1.8083,-1.8176,-1.9729,-2.0869,-2.0866,-2.0927,-2.1522,-2.2959,-2.4433,-2.5303,-2.5303,-2.5437,-2.5515,-2.5428,-2.5538,-2.5605,-2.5605,-2.5664,-2.5703,-2.5703,-2.5703,-2.5703,-2.5703,-2.5703,-2.6152,-2.6992,-2.6992,-2.748,-2.8301,-2.8301,-2.8789,-2.959,-2.9492,-2.9512,-2.9512,-2.875,-2.8516,-2.8574,-2.8476,-2.8516,-2.8711,-0.5097,-0.5917,0.0,0.0,0.0,0.0,0.0,0.0,0.0,0.0,0.0,0.0,0.0,0.0,0.0,0.0,0.0,-1.5933,-1.6802,-1.5223,0.0,-1.6924,-1.296,-1.1407,-1.2922,-1.0973,-0.9742,-0.935,-0.9712,0.0,0.0,0.0,0.0,0.0,-1.2463,0.0,-1.714,0.0,-2.177,0.0,0.0,-2.5141,0.0,-2.5087,-2.5018,-2.4341,-2.4737,-2.4877,-2.494,-2.5326,-2.5156,-2.4926,-2.5944,-2.4422,-2.251,-2.363,-2.2086,-2.0215,-2.1256,-2.0975,-2.0399,-2.0497,-1.953,-1.833,-1.75,-1.6577,-1.5802,-1.5416,0.0,0.0,0.0,0.0,0.0,0.0,-1.5993,-1.6443,-1.6456,-1.7029,-1.8162,-2.008,-2.0321,-2.0994,-2.2642,-2.2565,-2.2798,-2.3775,-2.3875,-2.3912,-2.3938,-2.4922,-2.5524,-2.5605,-2.5625,-2.5664,-2.5703,-2.5703,-2.5703,-2.5703,-2.5703,-2.5898,-2.625,-2.625,-2.6445,-2.6816,-2.7324,-2.8047,-2.8809,-2.8301,-2.8398,-2.8711,-2.7324,-2.7402,-2.8242,-2.7734,-2.7871,-2.8359,-0.5097,0.0,0.0,0.0,0.0,0.0,0.0,0.0,0.0,0.0,0.0,0.0,-1.6894,-1.6516,0.0,0.0,-1.9731,-1.9366,-2.0,-1.7757,-1.7545,-2.0096,-1.5329,-1.3398,-1.5056,-1.2833,-1.1301,-1.0603,0.0,0.0,0.0,0.0,0.0,0.0,0.0,-1.6054,-1.8335,0.0,-2.3637,-2.3905,-2.6408,-2.5711,-2.3286,-2.4168,-2.4524,-2.4591,-2.4685,-2.4716,-2.4832,-2.5579,-2.5417,-2.5232,-2.7022,-2.5527,-2.3456,-2.5227,-2.3631,-2.1687,-2.3415,-2.2844,-2.1981,-2.284,-2.1244,-1.931,-1.8866,-1.7563,-1.6281,-1.576,-1.5718,0.0,0.0,0.0,-1.541,-1.541,0.0,-1.5401,-1.5399,-1.5392,-1.6275,-1.8666,-1.9358,-2.0099,-2.1342,-2.0752,-2.0811,-2.2056,-2.2128,-2.2333,-2.2876,-2.4072,-2.5008,-2.5573,-2.5855,-2.6016,-2.6055,-2.6055,-2.6055,-2.6055,-2.5801,-2.5703,-2.5703,-2.5703,-2.5703,-2.5742,-2.6367,-2.7148,-2.7891,-2.7266,-2.7363,-2.7812,-2.6543,-2.668,-2.7519,-2.6875,-2.7031,-2.7656,-0.5098,-0.5819,0.0,0.0,0.0,0.0,0.0,0.0,0.0,0.0,0.0,0.0,0.0,0.0,0.0,0.0,-2.3592,-2.2649,-2.2689,-1.8736,-1.7545,-2.0096,-1.7643,-1.5871,-1.5113,-1.5758,-1.4886,-1.243,0.0,0.0,0.0,0.0,0.0,0.0,0.0,-1.6533,-1.9763,-2.173,-2.3953,-2.6206,-2.6499,-2.5879,-2.4648,-2.3986,-2.4168,-2.476,-2.4594,-2.4512,-2.4608,-2.5206,-2.5522,-2.5652,-2.5615,-2.5502,-2.5319,-2.4945,-2.4747,-2.4686,-2.4823,-2.3774,-2.2955,-2.4214,-2.2372,-2.0419,-2.1043,-2.0087,-1.86,-1.6917,-1.6606,-1.6408,-1.5563,-1.5397,-1.5403,0.0,-1.539,0.0,0.0,-1.5409,-1.5448,-1.5538,-1.6926,-1.793,-1.8045,-1.9429,-2.0357,-2.0464,-2.0412,-2.1119,-2.2799,-2.3017,-2.3842,-2.5553,-2.6481,-2.6953,-2.6953,-2.6953,-2.6953,-2.6953,-2.6094,-2.5703,-2.5703,-2.5703,-2.5703,-2.5703,-2.5723,-2.623,-2.7031,-2.7012,-2.7012,-2.7031,-2.6973,-2.6484,-2.5781,-2.5742,-2.5762,-2.6016,0.0,0.0,0.0,0.0,0.0,0.0,0.0,-1.1179,0.0,-1.5331,-1.6611,-1.9545,-2.5524,-2.5399,-2.6139,-2.9264,-2.7426,-2.635,-2.6918,-2.4034,-2.3189,-2.5207,-2.1712,-1.956,-1.9282,-1.7331,-1.5312,-1.3296,0.0,0.0,0.0,0.0,0.0,0.0,0.0,-1.7678,0.0,0.0,0.0,0.0,0.0,-2.4905,-2.4902,-2.4558,-2.4426,-2.4393,-2.4339,-2.4303,-2.4487,-2.5772,-2.6252,-2.6499,-2.7692,-2.7264,-2.6411,-2.6965,-2.5911,-2.4976,-2.6693,-2.6517,-2.5958,-2.6246,-2.4555,-2.2551,-2.1483,-1.9708,-1.8111,-1.7579,-1.747,-1.7248,-1.6417,-1.6254,0.0,0.0,0.0,-1.539,0.0,-1.5394,-1.5401,-1.5397,-1.5845,-1.6607,-1.7793,-1.7382,-1.7519,-1.8608,-1.8704,-1.9436,-2.1091,-2.2292,-2.3707,-2.5403,-2.5822,-2.6279,-2.6852,-2.6908,-2.7226,-2.7773,-2.6953,-2.6562,-2.6543,-2.5957,-2.5703,-2.5703,-2.5703,-2.6191,-2.6953,-2.6387,-2.6484,-2.6934,-2.6367,-2.5957,-2.5762,-2.6348,-2.6191,-2.5957,-0.8154,0.0,0.0,0.0,0.0,0.0,0.0,-1.2896,-1.5043,-1.6364,-1.9309,-2.2857,-2.7017,-2.7755,-2.8956,-3.1487,-2.9879,-2.8841,-2.9083,-2.6715,-2.6081,-2.7813,-2.462,-2.2652,-2.2374,-1.9875,-1.7587,-1.5548,0.0,-1.3462,0.0,0.0,0.0,0.0,0.0,-1.8031,-1.94,-2.264,-2.3872,0.0,0.0,-2.4645,-2.4947,-2.4874,-2.462,-2.4303,-2.4321,-2.4247,-2.4392,-2.5731,-2.6355,-2.6854,-2.8352,-2.822,-2.7682,-2.8445,-2.7531,-2.6599,-2.826,-2.811,-2.758,-2.7896,-2.6236,-2.4332,-2.3613,-2.1912,-2.0437,-2.0194,-1.9667,-1.9007,-1.8174,-1.7284,-1.652,0.0,0.0,0.0,0.0,-1.54,-1.5394,-1.5392,-1.5353,-1.5789,-1.6893,-1.6033,-1.5825,-1.6868,-1.6986,-1.7988,-2.0213,-2.1422,-2.309,-2.5362,-2.6088,-2.6689,-2.7261,-2.759,-2.8056,-2.8652,-2.7519,-2.7148,-2.7422,-2.623,-2.5879,-2.6152,-2.582,-2.6016,-2.6523,-2.6269,-2.6309,-2.6504,-2.6269,-2.5977,-2.5801,-2.668,-2.7031,-2.7246,-0.9067,0.0,0.0,0.0,-1.0433,0.0,-1.163,-1.5033,-1.7429,-1.6904,-2.183,-2.5794,-2.6834,-2.9165,-3.0991,-3.1814,-3.1064,-3.0179,-2.9333,-2.6937,-2.6283,-2.789,-2.6418,-2.513,-2.4245,-2.3266,-2.154,-1.9016,0.0,0.0,0.0,0.0,0.0,0.0,-1.6452,0.0,-1.8466,-2.1186,-2.2817,-2.3708,-2.4771,-2.5091,-2.4915,-2.4917,-2.4747,-2.4505,-2.4493,-2.4375,-2.4318,-2.5146,-2.5933,-2.6741,-2.7548,-2.8356,-2.9044,-2.931,-2.9392,-2.9392,-2.9392,-2.8514,-2.7911,-2.912,-2.7422,-2.5791,-2.7186,-2.6406,-2.5189,-2.4432,-2.2985,-2.1593,-2.0648,-1.8547,-1.6904,0.0,0.0,0.0,-1.5406,-1.5442,-1.5442,-1.5402,-1.5433,-1.5444,-1.5405,-1.5392,-1.5404,-1.5409,-1.5404,-1.6839,-2.0095,-2.0457,-2.2061,-2.5333,-2.7177,-2.8112,-2.8151,-2.8925,-2.9369,-2.9471,-2.7773,-2.7402,-2.8164,-2.6465,-2.6152,-2.6894,-2.6055,-2.5703,-2.5762,-2.6582,-2.6465,-2.5859,-2.668,-2.6543,-2.5977,-2.6738,-2.8125,-2.9668,-0.9963,-1.0445,-1.0867,0.0,-1.1211,-1.1944,-1.3222,-1.4353,-1.6329,-1.9851,-2.3276,-2.668,-3.0048,-3.2692,-3.4276,-3.4507,-3.3141,-3.216,-3.1929,-3.0148,-2.8994,-2.8794,-2.8986,-2.808,-2.5926,-2.4377,-2.2651,-2.0757,-1.8099,0.0,-1.6092,0.0,0.0,0.0,0.0,0.0,-1.8434,-2.0374,-2.2163,-2.3759,-2.4845,-2.5182,-2.5049,-2.516,-2.4917,-2.4505,-2.4493,-2.4375,-2.4318,-2.5146,-2.5933,-2.6741,-2.7548,-2.8356,-2.9017,-2.9089,-2.9089,-2.9156,-2.9351,-2.927,-2.9219,-2.9549,-2.8413,-2.7281,-2.7453,-2.6362,-2.5274,-2.5123,-2.4745,-2.3813,-2.1756,-2.0847,-1.9802,-1.7978,-1.7478,-1.689,-1.5586,-1.5956,-1.6131,-1.5485,-1.5975,-1.611,-1.5452,-1.5399,-1.5409,-1.539,-1.5404,-1.6311,-1.8435,-2.0352,-2.2363,-2.4469,-2.6852,-2.8412,-2.9058,-2.9321,-2.9448,-2.9408,-2.8413,-2.7695,-2.7226,-2.6172,-2.582,-2.6016,-2.5801,-2.5703,-2.5723,-2.5937,-2.6289,-2.6699,-2.6914,-2.7656,-2.8476,-2.7402,-2.8516,-3.0469,-1.1959,-1.2023,-1.1947,-1.1575,-1.2134,-1.3473,-1.5954,-1.7549,-1.9637,-2.2873,-2.6766,-2.9586,-3.0518,-3.2852,-3.4218,-3.3872,-3.2602,-3.1814,-3.1814,-3.0929,-3.0179,-2.9698,-2.9775,-2.8975,-2.7146,-2.5435,-2.3716,-2.1962,-1.9697,0.0,-1.6668,0.0,0.0,0.0,0.0,-1.7435,-1.7981,-2.0487,-2.238,-2.3796,-2.4834,-2.5212,0.0,-2.5233,-2.503,-2.4714,-2.4704,-2.451,-2.4318,-2.5146,-2.5933,-2.6741,-2.7548,-2.8356,-2.8994,-2.8994,-2.8994,-2.9021,-2.9181,-2.9456,-2.9696,-2.9696,-2.9332,-2.8945,-2.8804,-2.8142,-2.7535,-2.7576,-2.7007,-2.6062,-2.4672,-2.2934,-2.0891,-1.84,-1.8003,-1.7528,-1.6161,-1.6381,-1.6385,-1.5508,-1.582,-1.5937,-1.5445,-1.5748,-1.5818,-1.5422,-1.5399,-1.6457,-1.886,-1.9659,-2.1303,-2.4076,-2.5983,-2.7011,-2.7125,-2.9012,-2.9605,-2.8874,-2.8845,-2.8551,-2.8047,-2.7226,-2.6621,-2.6269,-2.6269,-2.6269,-2.6309,-2.668,-2.7129,-2.7578,-2.7578,-2.8398,-2.9473,-2.8496,-2.9316,-3.082,-1.397,-1.3422,0.0,0.0,-1.3419,-1.5811,-1.9901,-2.2307,-2.4123,-2.551,-3.0278,-3.2454,-2.9528,-3.1422,-3.2622,-3.1929,-3.1083,-3.0609,-3.0717,-3.0513,-3.0436,-3.0571,-2.9737,-2.889,-2.8063,-2.64,-2.4668,-2.2863,-2.112,-1.9335,0.0,0.0,0.0,0.0,0.0,0.0,0.0,-2.1145,-2.2973,-2.3819,-2.4804,-2.5212,-2.5209,-2.5212,-2.513,-2.501,-2.501,-2.4689,-2.4395,-2.5206,-2.5998,-2.6827,-2.764,-2.843,-2.9093,-2.9093,-2.9093,-2.9093,-2.9093,-2.9416,-2.9748,-2.9748,-3.0066,-3.0398,-3.0398,-3.0398,-3.0398,-3.0398,-2.9239,-2.8173,-2.7942,-2.4587,-2.1133,-1.8857,-1.8401,-1.7977,-1.6995,-1.7146,-1.6947,-1.5868,-1.5931,0.0,-1.5605,-1.6151,-1.6223,-1.5454,-1.5394,-1.6677,-1.9597,-1.868,-1.977,-2.3519,-2.4954,-2.5376,-2.4745,-2.8649,-2.9859,-2.8379,-2.9145,-2.9414,-2.9213,-2.8593,-2.7812,-2.7012,-2.7129,-2.7168,-2.7226,-2.7988,-2.8379,-2.8476,-2.8594,-2.9101,-2.9766,-2.9766,-3.0254,-3.0898,-1.3245,0.0,0.0,0.0,-1.5955,-1.8757,-2.6442,-2.3913,-2.2466,-2.6165,-2.8695,-2.9901,-2.9278,-3.141,-3.2833,-3.2699,-3.1948,-3.1756,-3.2429,-3.1179,-3.0717,-3.1448,-3.0641,-2.9775,-2.8909,-2.7196,-2.5465,-2.3775,-2.1979,-2.018,-1.8477,0.0,0.0,0.0,0.0,0.0,-2.0508,-2.1907,-2.3031,-2.3951,-2.4898,-2.5274,-2.5283,-2.5274,-2.5163,-2.501,-2.501,-2.4877,-2.4832,-2.5622,-2.6414,-2.7259,-2.8103,-2.893,-2.957,-2.957,-2.957,-2.957,-2.957,-2.9763,-2.9954,-2.9954,-3.0182,-3.0398,-3.0398,-3.0398,-3.0398,-3.0398,-3.0179,-2.9547,-2.8155,-2.5101,-2.2394,-2.124,-2.0495,-1.9503,-1.792,-1.9506,-1.9993,-1.773,-1.8737,-1.8783,-1.6676,-1.5957,-1.5558,-1.5401,-1.5397,-1.567,-1.624,-1.7986,-1.9662,-2.1171,-2.4697,-2.6894,-2.7576,-2.9646,-3.0214,-2.9274,-2.9482,-2.8805,-2.74,-2.8023,-2.7812,-2.7031,-2.7754,-2.8066,-2.8086,-2.8242,-2.8711,-2.9434,-3.0156,-3.0547,-3.0664,-3.0664,-3.0762,-3.0898,-1.4355,0.0,0.0,0.0,-1.7517,-2.1154,-2.6636,-2.6933,-2.7405,-2.9881,-3.0432,-3.0404,-2.9932,-3.1314,-3.2102,-3.1641,-3.1256,-3.1198,-3.1583,-3.0429,-2.991,-3.0333,-2.9544,-2.8698,-2.7813,-2.6984,-2.5484,-2.3343,-2.2459,-2.0899,-1.8745,0.0,0.0,0.0,0.0,-1.9887,0.0,-2.2616,-2.3487,-2.3973,-2.4908,-2.5303,-2.5303,-2.5303,-2.5253,-2.5152,-2.5152,-2.5107,-2.5234,-2.6279,-2.6884,-2.7431,-2.8714,-2.9393,-2.9696,-2.9696,-2.9696,-2.9696,-2.9696,-2.9845,-2.9999,-2.9999,-3.0196,-3.0398,-3.0398,-3.0398,-3.0398,-3.0398,-3.0398,-2.9883,-2.8222,-2.661,-2.526,-2.4438,-2.2862,-2.1443,-2.0618,-2.1158,-2.1029,-1.9389,-1.9541,-1.9313,-1.8115,-1.6421,-1.539,-1.5406,-1.5404,-1.5773,-1.6646,-1.7048,-1.8652,-2.1758,-2.3821,-2.5107,-2.5603,-2.9061,-2.9701,-2.7556,-2.9394,-2.958,-2.834,-2.9231,-2.8926,-2.7715,-2.8594,-2.8965,-2.9004,-2.9453,-2.9902,-3.0312,-3.0742,-3.0898,-3.0898,-3.0898,-3.0898,-3.0898,-1.7614,-1.7138,0.0,-1.633,-1.9484,-2.3139,-2.6275,-2.9488,-3.1982,-3.3163,-3.2615,-3.1695,-3.0645,-3.1064,-3.116,-3.0456,-3.0398,-3.0321,-3.014,-2.9486,-2.9006,-2.8852,-2.8236,-2.7486,-2.6621,-2.6601,-2.5504,-2.3256,-2.2892,-2.1637,-1.9592,-1.9122,0.0,0.0,0.0,-2.1024,-2.2076,-2.3545,-2.4173,-2.4251,-2.4964,-2.5243,-2.5243,-2.5243,-2.5243,-2.5273,-2.5485,-2.5572,-2.5772,-2.7143,-2.7494,-2.7631,-2.9317,-2.9848,-2.9848,-2.9848,-2.9848,-2.9848,-2.9848,-2.9973,-3.0089,-3.0089,-3.0254,-3.0398,-3.0398,-3.0398,-3.0398,-3.0398,-3.0398,-3.0006,-2.8673,-2.8154,-2.7576,-2.658,-2.444,-2.2745,-2.2397,-2.2364,-2.2009,-2.1043,-2.033,-1.9856,-1.974,-1.7105,-1.5482,-1.5664,-1.5507,-1.6229,-1.81,-1.6412,-1.7572,-2.2342,-2.2342,-2.2635,-2.3376,-2.7809,-2.8964,-2.6831,-2.9589,-3.0449,-2.9629,-3.0508,-3.0059,-2.8613,-2.9492,-2.9883,-2.9922,-3.0625,-3.0898,-3.0898,-3.0898,-3.0898,-3.0898,-3.0898,-3.1016,-3.1172,-2.4295,0.0,-2.1659,-2.3093,-2.314,-2.4615,-2.9483,-3.0,-3.0693,-3.3085,-3.3204,-3.2431,-3.0772,-3.0564,-3.0494,-3.0398,-3.0398,-3.0063,-2.9275,-2.914,-2.8775,-2.8044,-2.7928,-2.7486,-2.6621,-2.6601,-2.6091,-2.5072,-2.3467,-2.2547,-2.221,-2.056,-2.0547,-2.1953,-2.2166,-2.321,-2.4828,-2.4992,-2.5105,-2.5148,-2.508,-2.5022,-2.5022,-2.5022,-2.5022,-2.516,-2.6137,-2.6486,-2.6726,-2.8357,-2.8434,-2.8134,-2.9805,-3.0343,-3.0343,-3.0343,-3.0343,-3.0343,-3.0343,-3.0355,-3.0367,-3.0367,-3.0367,-3.0398,-3.0398,-3.0398,-3.0398,-3.0398,-3.0398,-3.0352,-3.0198,-2.8923,-2.7393,-2.5783,-2.3989,-2.2288,-2.0772,-2.3086,-2.4369,-2.2852,-2.2593,-2.2268,-2.1543,-1.7792,-1.5734,-1.6517,-1.5859,-1.6504,-1.9021,-1.6771,-1.7079,-2.0708,-2.0019,-2.1072,-2.4256,-2.6266,-2.8335,-3.043,-3.0742,-3.0449,-2.9629,-3.0508,-3.0371,-2.9531,-3.0391,-3.0781,-3.0781,-3.0879,-3.0898,-3.0898,-3.0898,-3.0898,-3.0898,-3.0898,-3.1406,-3.207,-2.5973,-2.5227,-2.452,-2.5711,-2.694,-2.8633,-3.1157,-3.2177,-3.2849,-3.3339,-3.2416,-3.1427,-3.0678,-3.0525,-3.0448,-3.0398,-2.9929,-2.9467,-2.9121,-2.864,-2.8005,-2.7159,-2.7121,-2.6717,-2.5851,-2.5832,-2.5649,-2.5303,-2.3582,-2.3266,-2.4185,-2.242,-2.2195,-2.3298,-2.3332,-2.3749,-2.4513,-2.5041,-2.5273,-2.5284,-2.5214,-2.5173,-2.5173,-2.5173,-2.5099,-2.5125,-2.6032,-2.6381,-2.668,-2.8345,-2.8802,-2.8832,-3.0025,-3.0398,-3.0398,-3.0398,-3.0398,-3.0398,-3.0398,-3.0398,-3.0398,-3.0398,-3.0398,-3.0398,-3.0398,-3.0398,-3.0398,-3.0398,-3.0398,-3.0398,-3.0398,-3.0287,-2.9624,-2.7902,-2.7468,-2.6246,-2.3033,-2.5476,-2.6429,-2.3265,-2.3323,-2.3485,-2.3168,-1.8872,-1.6687,-1.8033,-1.6444,-1.5858,-1.6894,-1.746,-1.8864,-2.1299,-2.1989,-2.3492,-2.5945,-2.7147,-2.828,-2.9344,-3.0409,-3.0723,-3.0391,-3.0742,-3.0703,-3.0391,-3.0742,-3.0898,-3.0937,-3.1465,-3.1367,-3.0957,-3.1484,-3.1367,-3.0957,-3.1484,-3.1562,-3.1562,-2.9121,-2.8554,-2.7809,-2.8392,-2.9838,-3.1086,-3.166,-3.3214,-3.41,-3.3476,-3.207,-3.0994,-3.0646,-3.0532,-3.0467,-3.0398,-2.9833,-2.9371,-2.9121,-2.8563,-2.7871,-2.7024,-2.6986,-2.6563,-2.5687,-2.5668,-2.5668,-2.5668,-2.4235,-2.4274,-2.5646,-2.4148,-2.3898,-2.4681,-2.4683,-2.4725,-2.4793,-2.5418,-2.5534,-2.5284,-2.5243,-2.5214,-2.5214,-2.5214,-2.5111,-2.5125,-2.6008,-2.651,-2.6981,-2.8415,-2.9142,-2.9583,-3.0217,-3.0398,-3.0398,-3.0398,-3.0398,-3.0398,-3.0398,-3.0398,-3.0398,-3.0398,-3.0398,-3.0398,-3.0398,-3.0398,-3.0398,-3.0398,-3.0398,-3.0398,-3.0398,-3.1121,-3.1044,-2.9074,-2.9679,-2.8832,-2.4358,-2.6814,-2.7554,-2.3364,-2.3595,-2.4193,-2.4433,-2.0372,-1.8213,-1.9386,-1.7615,-1.6511,-1.6542,-1.7812,-1.9453,-2.1443,-2.218,-2.3718,-2.6214,-2.685,-2.7807,-2.9086,-3.0311,-3.0898,-3.0898,-3.0898,-3.0898,-3.0918,-3.1172,-3.1289,-3.1348,-3.2207,-3.2187,-3.1699,-3.2305,-3.2187,-3.1719,-3.2324,-3.2324,-3.2187,-3.5371,-3.3867,-3.2109,-3.2051,-3.1403,-3.0891,-3.0911,-3.2342,-3.3418,-3.3398,-3.2695,-3.1789,-3.0714,-3.053,-3.0467,-3.0398,-3.0379,-3.0025,-2.9159,-2.9083,-2.8717,-2.7909,-2.7871,-2.7486,-2.6601,-2.6582,-2.6582,-2.6582,-2.5687,-2.5716,-2.6559,-2.5686,-2.5704,-2.6466,-2.6532,-2.6563,-2.6563,-2.6582,-2.6101,-2.5274,-2.5088,-2.4991,-2.4991,-2.4991,-2.501,-2.5137,-2.6203,-2.7159,-2.8005,-2.8813,-2.9679,-3.0379,-3.0398,-3.0398,-3.0398,-3.0398,-3.0398,-3.0398,-3.0398,-3.0398,-3.0398,-3.0398,-3.0398,-3.0398,-3.0398,-3.0398,-3.0398,-3.0398,-3.0398,-3.0398,-3.0398,-3.1121,-3.0883,-2.8326,-2.9313,-2.861,-2.354,-2.6447,-2.7531,-2.3304,-2.357,-2.4416,-2.5206,-2.2288,-2.0353,-2.0385,-1.9565,-1.911,-1.9252,-1.7656,-1.793,-2.0527,-1.8964,-2.0114,-2.4389,-2.4436,-2.661,-3.0879,-3.0898,-3.0898,-3.0898,-3.0898,-3.0898,-3.0957,-3.1816,-3.2187,-3.2246,-3.3047,-3.3379,-3.3379,-3.3379,-3.3379,-3.3379,-3.3379,-3.3926,-3.4668,-3.5488,-3.5351,-3.4785,-3.4766,-3.455,-3.4179,-3.3573,-3.3437,-3.3398,-3.3398,-3.2187,-3.1386,-3.1532,-3.1002,-3.0602,-3.0544,-2.9944,-2.9452,-2.9194,-2.9129,-2.8736,-2.7928,-2.8429,-2.8044,-2.664,-2.6601,-2.6601,-2.6601,-2.5726,-2.6053,-2.7495,-2.7764,-2.7725,-2.7426,-2.686,-2.6274,-2.5707,-2.5707,-2.5553,-2.5284,-2.5224,-2.5559,-2.6096,-2.6096,-2.6366,-2.6893,-2.7791,-2.7931,-2.7828,-2.8619,-2.9173,-2.9506,-2.9506,-2.9929,-3.0398,-3.0398,-3.0398,-3.0398,-3.0398,-3.0398,-3.0398,-3.0398,-3.0398,-3.0398,-3.0398,-3.0398,-3.0398,-3.0398,-3.0398,-3.0571,-3.1179,-3.1968,-3.1679,-2.9132,-3.1121,-3.1006,-2.5361,-2.7198,-2.7975,-2.4937,-2.4774,-2.5495,-2.692,-2.4568,-2.2921,-2.2917,-2.164,-2.0402,-1.9367,-2.0426,-2.1991,-2.4004,-2.4687,-2.5957,-2.7929,-2.7357,-2.8354,-3.0898,-3.0898,-3.0898,-3.0898,-3.0898,-3.0898,-3.0957,-3.1816,-3.2207,-3.2305,-3.3711,-3.3945,-3.3457,-3.4043,-3.3926,-3.3476,-3.4062,-3.4082,-3.3984,-3.5664,-3.5996,-3.5996,-3.5996,-3.5723,-3.5332,-3.4785,-3.4238,-3.3769,-3.3437,-3.248,-3.1894,-3.2051,-3.13,-3.0723,-3.0617,-3.0037,-2.9696,-2.9694,-2.9321,-2.9025,-2.8852,-2.8717,-2.8159,-2.7101,-2.6774,-2.6447,-2.612,-2.589,-2.6505,-2.7909,-2.8717,-2.8506,-2.739,-2.7198,-2.6428,-2.5303,-2.5303,-2.5303,-2.5303,-2.5303,-2.563,-2.6159,-2.6486,-2.6856,-2.7292,-2.7778,-2.7867,-2.7802,-2.8288,-2.8751,-2.9159,-2.9486,-2.9967,-3.0398,-3.0398,-3.0398,-3.0398,-3.0398,-3.0398,-3.0398,-3.0398,-3.0398,-3.0398,-3.0398,-3.0398,-3.0398,-3.0398,-3.0398,-3.0571,-3.1121,-3.1891,-3.1814,-2.989,-3.191,-3.1999,-2.7026,-2.8506,-2.8898,-2.5746,-2.59,-2.6697,-2.7766,-2.6449,-2.5388,-2.5069,-2.3552,-2.2498,-2.2177,-2.2767,-2.3746,-2.5175,-2.6582,-2.7891,-2.9101,-2.8572,-2.9178,-3.0898,-3.123,-3.1211,-3.0918,-3.1543,-3.168,-3.1445,-3.2637,-3.3144,-3.3242,-3.4629,-3.4863,-3.4434,-3.498,-3.4863,-3.4434,-3.498,-3.4844,-3.4531,-3.5996,-3.5996,-3.5996,-3.5996,-3.5332,-3.4766,-3.4707,-3.4707,-3.4394,-3.3516,-3.3359,-3.3027,-3.2285,-3.1426,-3.0813,-3.0633,-3.0555,-3.0507,-3.0518,-2.9679,-2.9563,-3.0371,-2.8909,-2.8044,-2.7986,-2.7121,-2.6255,-2.538,-2.6197,-2.7044,-2.7909,-2.8659,-2.814,-2.664,-2.7448,-2.689,-2.5303,-2.5303,-2.5322,-2.538,-2.5322,-2.5399,-2.5649,-2.6409,-2.6717,-2.6774,-2.6774,-2.7217,-2.7813,-2.7813,-2.8352,-2.9159,-2.9967,-3.0302,-3.0398,-3.0398,-3.0398,-3.0398,-3.0398,-3.0398,-3.0398,-3.0398,-3.0398,-3.0398,-3.0398,-3.0398,-3.0398,-3.0398,-3.0398,-3.0417,-3.0475,-3.116,-3.1429,-3.0609,-3.1795,-3.166,-2.8371,-2.9929,-2.9956,-2.5936,-2.6919,-2.792,-2.7972,-2.8035,-2.7701,-2.6766,-2.5354,-2.5201,-2.6722,-2.4738,-2.3959,-2.4819,-2.5644,-2.6836,-2.8457,-2.8535,-2.9414,-3.1074,-3.1836,-3.1797,-3.1133,-3.2695,-3.2988,-3.2363,-3.4004,-3.4707,-3.4766,-3.5644,-3.5996,-3.5996,-3.5996,-3.5996,-3.5996,-3.5996,-3.5996,-3.5996,-3.5975,-3.5996,-3.5996,-3.5996,-3.582,-3.5469,-3.4805,-3.4707,-3.4394,-3.3516,-3.2871,-3.2402,-3.2226,-3.1426,-3.0878,-3.0834,-3.0714,-3.0648,-3.0656,-3.0352,-3.0267,-3.0463,-3.0056,-2.9506,-2.8832,-2.8005,-2.7178,-2.6294,-2.6505,-2.7044,-2.789,-2.8082,-2.7621,-2.6621,-2.6813,-2.6313,-2.5303,-2.5303,-2.5668,-2.6236,-2.5572,-2.6467,-2.8159,-2.7755,-2.7967,-2.8506,-2.8506,-2.7813,-2.6909,-2.6909,-2.7486,-2.8217,-2.8429,-2.9371,-3.0398,-3.0398,-3.0398,-3.0398,-3.0398,-3.0398,-3.0398,-3.0398,-3.0398,-3.0398,-3.0398,-3.0398,-3.0398,-3.0398,-3.0398,-3.059,-3.1275,-3.1564,-3.1641,-3.1429,-3.1737,-3.1013,-2.823,-2.8338,-2.8357,-2.7336,-2.7569,-2.8341,-2.9667,-2.9794,-2.9201,-2.7711,-2.7853,-2.7398,-2.5987,-2.7227,-2.8412,-2.9336,-2.9551,-2.9863,-3.0273,-3.0937,-3.1797,-3.2793,-3.2383,-3.2402,-3.2812,-3.3223,-3.3301,-3.3184,-3.4238,-3.4707,-3.4766,-3.5644,-3.5996,-3.5996,-3.5996,-3.5996,-3.5996,-3.5996,-3.5996,-3.5996,-3.5916,-3.5976,-3.5996,-3.5996,-3.5996,-3.584,-3.5371,-3.5293,-3.4844,-3.3574,-3.3027,-3.2461,-3.1699,-3.1172,-3.0898,-3.0898,-3.0781,-3.0693,-3.0691,-3.0261,-2.9979,-2.994,-2.9159,-2.8656,-2.8606,-2.7745,-2.7063,-2.6601,-2.6197,-2.6255,-2.6717,-2.7121,-2.6832,-2.6024,-2.6428,-2.612,-2.5303,-2.5303,-2.5813,-2.6563,-2.6082,-2.6967,-2.8544,-2.8467,-2.8717,-2.9044,-2.8679,-2.7967,-2.7198,-2.7198,-2.7505,-2.8025,-2.8794,-2.9679,-3.0398,-3.0398,-3.0398,-3.0398,-3.0398,-3.0398,-3.0398,-3.0398,-3.0398,-3.0398,-3.0398,-3.0398,-3.0398,-3.0398,-3.0398,-3.0533,-3.1025,-3.1121,-3.1121,-3.1121,-3.0405,-2.9382,-2.7946,-2.7746,-2.7746,-2.7754,-2.848,-2.9348,-3.0302,-3.0398,-3.0025,-2.9105,-2.8788,-2.8435,-2.7915,-2.8942,-2.9777,-3.0293,-3.1074,-3.168,-3.2031,-3.2519,-3.2773,-3.2851,-3.3184,-3.3164,-3.2891,-3.4062,-3.4375,-3.4043,-3.4922,-3.5293,-3.5332,-3.5801,-3.5996,-3.5996,-3.5996,-3.5996,-3.5996,-3.5996,-3.5996,-3.5996,-3.5876,-3.5957,-3.5996,-3.5996,-3.5996,-3.5996,-3.5996,-3.5898,-3.5234,-3.3613,-3.3281,-3.2637,-3.1074,-3.0898,-3.0898,-3.0898,-3.0801,-3.0723,-3.0723,-2.9907,-2.9389,-2.9338,-2.7778,-2.7304,-2.818,-2.7292,-2.6736,-2.6601,-2.5726,-2.5303,-2.5322,-2.6063,-2.6005,-2.5322,-2.6082,-2.5986,-2.5303,-2.5303,-2.589,-2.6774,-2.6659,-2.7274,-2.8332,-2.889,-2.9006,-2.8852,-2.8275,-2.7909,-2.7717,-2.7852,-2.7967,-2.8332,-2.9756,-3.0283,-3.0398,-3.0398,-3.0398,-3.0398,-3.0398,-3.0398,-3.0398,-3.0398,-3.0398,-3.0398,-3.0398,-3.0398,-3.0398,-3.0398,-3.0398,-3.0398,-3.0398,-3.0398,-3.0302,-3.0052,-2.8718,-2.7608,-2.7359,-2.7551,-2.7704,-2.7704,-2.9298,-3.0398,-3.0398,-3.0398,-3.0398,-3.0398,-2.9273,-2.912,-3.0348,-3.0243,-3.0102,-2.9979,-3.1543,-3.2773,-3.3594,-3.3476,-3.3184,-3.2793,-3.4082,-3.4023,-3.2851,-3.5019,-3.5605,-3.4941,-3.5684,-3.5996,-3.5996,-3.5996,-3.5996,-3.5996,-3.5996,-3.5996,-3.5996,-3.5996,-3.5996,-3.5996,-3.587,-3.5957,-3.5996,-3.5996,-3.5996,-3.5996,-3.5996,-3.5371,-3.4531,-3.3535,-3.2812,-3.2012,-3.1016,-3.0898,-3.0898,-3.0898,-3.0879,-3.0879,-3.0879,-2.9999,-2.9486,-2.9473,-2.845,-2.826,-2.9077,-2.8225,-2.7388,-2.6601,-2.5726,-2.5303,-2.5303,-2.5437,-2.5418,-2.5303,-2.5437,-2.5418,-2.5303,-2.5303,-2.6236,-2.7621,-2.6909,-2.7967,-2.9948,-2.9333,-2.8679,-2.8159,-2.8698,-2.8005,-2.6909,-2.764,-2.8352,-2.8948,-2.9217,-2.9813,-3.0398,-3.0398,-3.0398,-3.0398,-3.0398,-3.0398,-3.0398,-3.0398,-3.0398,-3.0398,-3.0398,-3.0398,-3.0398,-3.0398,-3.0398,-3.0398,-3.0398,-3.0398,-2.9917,-2.8445,-2.7919,-2.7213,-2.5795,-2.6811,-2.7723,-2.7773,-2.9337,-3.0398,-3.0398,-3.0398,-3.0398,-3.0398,-3.0895,-3.0719,-2.9564,-3.1545,-3.2407,-3.1733,-3.2692,-3.3633,-3.4492,-3.3769,-3.4082,-3.5391,-3.4922,-3.4941,-3.543,-3.582,-3.5937,-3.5801,-3.5937,-3.5996,-3.5996,-3.5996,-3.5996,-3.5996,-3.5996,-3.5996,-3.5996,-3.5996,-3.5996,-3.5996,-3.5877,-3.5942,-3.5996,-3.5996,-3.5996,-3.5996,-3.5996,-3.5664,-3.4922,-3.3574,-3.3086,-3.2344,-3.1035,-3.0898,-3.0898,-3.0898,-3.0898,-3.0898,-3.0898,-3.0488,-2.9841,-2.8881,-2.884,-2.9015,-2.9353,-2.8965,-2.8291,-2.7343,-2.6477,-2.5803,-2.5303,-2.5303,-2.5303,-2.5303,-2.5303,-2.5303,-2.5322,-2.5813,-2.6736,-2.789,-2.7928,-2.8929,-3.0359,-2.9948,-2.9563,-2.9236,-2.914,-2.8602,-2.8005,-2.8409,-2.8794,-2.9179,-2.964,-3.0083,-3.0398,-3.0398,-3.0398,-3.0398,-3.0398,-3.0398,-3.0398,-3.0398,-3.0398,-3.0398,-3.0398,-3.0398,-3.0398,-3.0398,-3.0398,-3.0398,-3.0398,-3.0398,-2.9975,-2.8722,-2.8053,-2.7271,-2.6022,-2.6926,-2.7704,-2.7754,-2.9317,-3.0398,-3.0398,-3.0833,-3.1102,-3.1102,-3.2004,-3.222,-3.1433,-3.3101,-3.3877,-3.3508,-3.4355,-3.498,-3.5391,-3.5,-3.4961,-3.5293,-3.5371,-3.5351,-3.5312,-3.5781,-3.5996,-3.5996,-3.5996,-3.5996,-3.5996,-3.5996,-3.5996,-3.5996,-3.5996,-3.5996,-3.5996,-3.5996,-3.5996,-3.5996,-3.588,-3.5957,-3.5996,-3.5996,-3.5996,-3.5996,-3.5996,-3.5664,-3.4922,-3.3574,-3.3066,-3.2324,-3.1035,-3.0898,-3.0898,-3.0898,-3.0898,-3.0898,-3.0898,-3.0898,-3.0215,-2.8672,-2.9199,-2.9488,-2.9425,-2.9426,-2.9052,-2.8328,-2.7451,-2.6525,-2.562,-2.562,-2.5495,-2.5303,-2.5303,-2.5303,-2.5341,-2.6005,-2.6928,-2.7948,-2.8563,-2.9467,-3.0398,-3.0398,-3.0275,-3.0044,-2.9563,-2.9275,-2.9121,-2.9333,-2.939,-2.9525,-3.0198,-3.0398,-3.0398,-3.0398,-3.0398,-3.0398,-3.0398,-3.0398,-3.0398,-3.0398,-3.0552,-3.066,-3.0436,-3.0552,-3.0629,-3.0436,-3.0398,-3.0398,-3.0398,-3.0398,-3.0052,-2.896,-2.8188,-2.7462,-2.6818,-2.7462,-2.8164,-2.8591,-3.0009,-3.0987,-3.0987,-3.1602,-3.1987,-3.2025,-3.294,-3.3517,-3.3522,-3.446,-3.4992,-3.5,-3.5644,-3.5996,-3.5996,-3.5996,-3.5664,-3.5019,-3.5684,-3.5644,-3.5019,-3.5684,-3.5996,-3.5996,-3.5996,-3.5996,-3.5996,-3.5996,-3.5996,-3.5996,-3.5996,-3.5996,-3.5996,-3.5996,-3.5996,-3.5996,-3.5862,-3.5957,-3.5996,-3.5996,-3.5996,-3.5996,-3.5996,-3.4629,-3.3555,-3.3418,-3.2051,-3.1035,-3.0918,-3.0898,-3.0898,-3.0898,-3.0898,-3.0898,-3.0898,-3.0898,-3.0488,-2.9551,-2.9551,-2.9551,-2.9492,-2.949,-2.9428,-2.9292,-2.8347,-2.7459,-2.6593,-2.6534,-2.6082,-2.5303,-2.5303,-2.5303,-2.5303,-2.536,-2.637,-2.7909,-2.7948,-2.8967,-3.0398,-3.0398,-2.991,-2.9294,-3.0044,-2.9794,-2.9217,-3.0025,-3.0302,-3.0333,-3.0379,-3.0398,-3.0398,-3.0398,-3.0398,-3.0398,-3.0398,-3.0398,-3.0398,-3.0398,-3.1006,-3.1391,-3.0571,-3.1025,-3.1391,-3.0571,-3.0398,-3.0398,-3.0398,-3.0398,-2.986,-2.8165,-2.7785,-2.7697,-2.7712,-2.8387,-2.9519,-3.1205,-3.2179,-3.2718,-3.2718,-3.2776,-3.2852,-3.2993,-3.3872,-3.4429,-3.4488,-3.5396,-3.5898,-3.5898,-3.5976,-3.5996,-3.5996,-3.5996,-3.5976,-3.5898,-3.5976,-3.5976,-3.5918,-3.5976,-3.5996,-3.5996,-3.5996,-3.5996,-3.5996,-3.5996,-3.5996,-3.5996,-3.5996,-3.5996,-3.5996,-3.5996,-3.5996,-3.5996,-3.5928,-3.5979,-3.5996,-3.5996,-3.5996,-3.5996,-3.5996,-3.498,-3.4219,-3.4219,-3.2754,-3.1719,-3.1719,-3.1211,-3.0898,-3.0898,-3.0898,-3.0898,-3.0898,-3.0898,-3.0742,-3.043,-2.9883,-2.9844,-3.0351,-3.0371,-3.0076,-2.9455,-2.9097,-2.8456,-2.7565,-2.7497,-2.7006,-2.6179,-2.612,-2.5813,-2.5341,-2.589,-2.6486,-2.714,-2.7678,-2.8582,-2.9583,-2.9583,-2.9717,-2.9948,-3.0294,-3.0198,-2.9967,-3.0294,-3.0398,-3.0398,-3.0398,-3.0398,-3.0398,-3.0398,-3.0398,-3.0398,-3.0398,-3.0398,-3.0398,-3.0398,-3.1064,-3.1621,-3.1275,-3.1852,-3.2218,-3.1391,-3.1218,-3.1044,-3.0494,-3.0398,-3.0013,-2.8799,-2.949,-3.0009,-2.949,-3.0566,-3.1674,-3.2372,-3.2718,-3.2891,-3.2891,-3.3391,-3.3962,-3.4604,-3.5029,-3.5533,-3.6183,-3.6085,-3.625,-3.6797,-3.6289,-3.6269,-3.6797,-3.6269,-3.6269,-3.6797,-3.6269,-3.5996,-3.5996,-3.5996,-3.5996,-3.5996,-3.5996,-3.5996,-3.5996,-3.5996,-3.5996,-3.5996,-3.5996,-3.5996,-3.5996,-3.5996,-3.6348,-3.6795,-3.5955,-3.5996,-3.5918,-3.5644,-3.582,-3.5918,-3.5625,-3.4844,-3.4297,-3.4297,-3.2832,-3.1797,-3.1797,-3.1269,-3.0898,-3.0898,-3.0898,-3.0898,-3.0898,-3.0898,-3.0898,-3.0898,-3.0332,-3.0293,-3.0898,-3.0898,-3.0586,-2.9941,-2.9902,-2.9411,-2.8531,-2.8468,-2.7971,-2.7151,-2.7073,-2.6573,-2.5784,-2.6351,-2.6755,-2.7063,-2.7659,-2.8371,-2.9102,-2.9102,-2.9467,-2.9987,-2.9987,-3.0179,-3.0398,-3.0398,-3.0398,-3.0398,-3.0398,-3.0398,-3.0398,-3.0398,-3.0398,-3.0398,-3.0398,-3.0398,-3.0398,-3.0398,-3.1256,-3.2006,-3.1756,-3.2526,-3.3064,-3.2256,-3.2083,-3.1891,-3.1295,-3.1198,-3.0994,-3.0386,-3.1302,-3.1859,-3.127,-3.2417,-3.3314,-3.3314,-3.3545,-3.3718,-3.3757,-3.4295,-3.5039,-3.6028,-3.6162,-3.6483,-3.7191,-3.6703,-3.668,-3.7285,-3.6992,-3.7109,-3.7695,-3.6562,-3.6445,-3.7285,-3.6426,-3.5996,-3.5996,-3.5996,-3.5996,-3.5996,-3.5996,-3.5996,-3.5996,-3.5996,-3.5996,-3.5996,-3.5996,-3.5996,-3.5996,-3.5996,-3.6543,-3.7279,-3.5955,-3.5996,-3.5723,-3.4844,-3.543,-3.5703,-3.4824,-3.3945,-3.3398,-3.3398,-3.1934,-3.0898,-3.0918,-3.0898,-3.0898,-3.0898,-3.0898,-3.0898,-3.0898,-3.0898,-3.0898,-3.0898,-3.0898,-3.0898,-3.0898,-3.0898,-3.0898,-3.0898,-3.0762,-3.0293,-2.9512,-2.9433,-2.895,-2.8123,-2.8027,-2.7517,-2.6689,-2.6631,-2.7101,-2.789,-2.789,-2.8371,-2.9102,-2.9102,-2.9102,-2.9102,-2.9102,-2.9679,-3.0398,-3.0398,-3.0398,-3.0398,-3.0398,-3.0398,-3.0398,-3.0398,-3.0398,-3.0398,-3.0398,-3.0398,-3.0398,-3.0398,-3.1679,-3.2699,-3.191,-3.3006,-3.3949,-3.3083,-3.291,-3.291,-3.2891,-3.2891,-3.2891,-3.2891,-3.291,-3.291,-3.291,-3.366,-3.4199,-3.4199,-3.4968,-3.5545,-3.5603,-3.5603,-3.6059,-3.7145,-3.7236,-3.7259,-3.7304,-3.7305,-3.7305,-3.7324,-3.8144,-3.8613,-3.8613,-3.6875,-3.6445,-3.7285,-3.6426,-3.5996,-3.5996,-3.5996,-3.5996,-3.6016,-3.6016,-3.6016,-3.6016,-3.6016,-3.6016,-3.6016,-3.6016,-3.6016,-3.6016,-3.6016,-3.6562,-3.7297,-3.5056,-3.5098,-3.5019,-3.4746,-3.4922,-3.4785,-3.3926,-3.3086,-3.2754,-3.332,-3.1934,-3.1133,-3.1758,-3.1269,-3.0898,-3.0898,-3.0898,-3.0898,-3.0898,-3.0898,-3.0898,-3.0898,-3.0898,-3.0898,-3.0898,-3.0898,-3.0898,-3.0898,-3.0859,-3.0723,-3.0488,-3.0366,-2.9865,-2.9042,-2.8314,-2.7526,-2.6697,-2.664,-2.6755,-2.7044,-2.764,-2.8371,-2.9102,-2.9102,-2.9486,-3.0006,-3.0006,-3.0179,-3.0398,-3.0398,-3.0398,-3.0398,-3.0398,-3.0398,-3.0398,-3.0398,-3.0398,-3.0398,-3.0398,-3.0852,-3.1314,-3.1314,-3.2102,-3.3006,-3.3372,-3.4314,-3.4853,-3.3987,-3.3814,-3.3622,-3.3006,-3.2891,-3.2891,-3.2891,-3.341,-3.3814,-3.3814,-3.4564,-3.5122,-3.5122,-3.5391,-3.5815,-3.6458,-3.6538,-3.7249,-3.8832,-3.9035,-3.8843,-3.8242,-3.8203,-3.8496,-3.9101,-3.8789,-3.9199,-4.041,-3.8086,-3.7031,-3.7285,-3.6426,-3.5996,-3.5996,-3.5996,-3.6328,-3.6914,-3.6914,-3.7266,-3.7812,-3.7812,-3.7812,-3.7812,-3.7812,-3.7812,-3.7812,-3.7812,-3.8322,-3.8963,-3.4158,-3.4199,-3.4082,-3.3769,-3.3965,-3.3906,-3.3047,-3.2519,-3.2363,-3.2851,-3.1738,-3.1094,-3.1621,-3.1211,-3.0898,-3.0898,-3.0898,-3.0898,-3.0898,-3.0898,-3.0898,-3.0898,-3.0898,-3.0898,-3.0898,-3.0898,-3.0898,-3.0898,-3.0898,-3.0898,-3.0898,-3.082,-3.0527,-3.0019,-2.9361,-2.8592,-2.7787,-2.767,-2.7621,-2.7659,-2.8159,-2.8659,-2.9102,-2.9102,-2.9429,-2.989,-2.989,-3.0121,-3.0398,-3.0398,-3.0398,-3.0398,-3.0398,-3.0398,-3.0398,-3.0398,-3.0398,-3.0475,-3.0833,-3.1295,-3.1852,-3.2526,-3.3045,-3.3545,-3.4083,-3.4872,-3.5353,-3.4814,-3.4718,-3.4545,-3.4026,-3.393,-3.393,-3.393,-3.4372,-3.4718,-3.4718,-3.518,-3.5622,-3.5949,-3.6065,-3.6473,-3.737,-3.7511,-3.817,-3.968,-3.9855,-3.9668,-3.9141,-3.9101,-3.9355,-3.9883,-3.9726,-3.9961,-4.0684,-3.9121,-3.832,-3.832,-3.7441,-3.7031,-3.7031,-3.7031,-3.7324,-3.7812,-3.7812,-3.8105,-3.8594,-3.8594,-3.8594,-3.8594,-3.8594,-3.8594,-3.8593,-3.8536,-3.9024,-3.9677,-3.3259,-3.3281,-3.3066,-3.2324,-3.2812,-3.3027,-3.2207,-3.207,-3.207,-3.207,-3.1387,-3.0898,-3.0898,-3.0898,-3.0898,-3.0898,-3.0898,-3.0898,-3.0898,-3.0898,-3.0898,-3.0898,-3.0898,-3.0898,-3.0898,-3.0898,-3.0898,-3.0898,-3.0898,-3.0898,-3.0898,-3.0898,-3.0898,-3.0898,-3.0684,-3.0196,-2.9495,-2.9303,-2.9212,-2.9228,-2.9228,-2.9217,-2.9217,-2.9217,-2.9217,-2.9217,-2.9217,-2.9737,-3.0398,-3.0398,-3.0398,-3.0398,-3.0398,-3.0398,-3.0398,-3.0398,-3.0398,-3.059,-3.1468,-3.1756,-3.2199,-3.3795,-3.4257,-3.4314,-3.4314,-3.493,-3.5493,-3.5493,-3.5493,-3.5493,-3.5493,-3.5493,-3.5493,-3.5493,-3.5565,-3.5622,-3.5622,-3.568,-3.6007,-3.6738,-3.6944,-3.739,-3.8337,-3.8558,-3.9043,-3.994,-4.0019,-4.0019,-4.0019,-4.0019,-4.0019,-4.0019,-4.0859,-4.0937,-4.0137,-4.0195,-4.0098,-3.9766,-3.8984,-3.8594,-3.8594,-3.8594,-3.8633,-3.8711,-3.8711,-3.8769,-3.8828,-3.8828,-3.8828,-3.8828,-3.8828,-3.8827,-3.879,-3.867,-3.9131,-3.9762,-3.2282,-3.2383,-3.2402,-3.2226,-3.2344,-3.2168,-3.1309,-3.1172,-3.1172,-3.1172,-3.1016,-3.0898,-3.0898,-3.0898,-3.0898,-3.0898,-3.0898,-3.0898,-3.0898,-3.0898,-3.0898,-3.0898,-3.0898,-3.0898,-3.0898,-3.0898,-3.0898,-3.0898,-3.0898,-3.0898,-3.0898,-3.0898,-3.0898,-3.0879,-3.0098,-2.9665,-2.9494,-2.9401,-2.9361,-2.9404,-3.0037,-3.0237,-3.0198,-3.0198,-3.016,-3.0121,-3.0121,-3.0237,-3.0398,-3.0398,-3.0398,-3.0398,-3.0398,-3.0398,-3.0398,-3.0398,-3.0398,-3.059,-3.1468,-3.216,-3.2891,-3.393,-3.4718,-3.5218,-3.5218,-3.5372,-3.5493,-3.5493,-3.5493,-3.5493,-3.5493,-3.5493,-3.5493,-3.5493,-3.6045,-3.6449,-3.6449,-3.7026,-3.7526,-3.77,-3.7887,-3.8324,-3.9232,-4.0086,-4.0672,-4.0898,-4.0918,-4.0918,-4.0918,-4.0918,-4.0918,-4.0918,-4.1719,-4.2051,-4.1855,-4.2539,-4.1523,-3.8887,-3.8691,-3.8594,-3.8594,-3.8594,-3.8965,-3.9629,-3.9629,-4.0019,-4.0644,-4.0644,-4.0644,-4.0644,-4.0644,-4.056,-4.0481,-4.0448,-4.045,-4.045,-3.1246,-3.1399,-3.1448,-3.1484,-3.1484,-3.1348,-3.0957,-3.0898,-3.0898,-3.0898,-3.0898,-3.0898,-3.0898,-3.0898,-3.0898,-3.0898,-3.0898,-3.0898,-3.0898,-3.0898,-3.0898,-3.0898,-3.0898,-3.0898,-3.0898,-3.0898,-3.0898,-3.0898,-3.0898,-3.0898,-3.0898,-3.0898,-3.0898,-3.0879,-3.0391,-3.0176,-3.0156,-3.0066,-3.001,-3.0061,-3.0444,-3.0586,-3.053,-3.0524,-3.0487,-3.0448,-3.0398,-3.0398,-3.0398,-3.0398,-3.0398,-3.0398,-3.0398,-3.0398,-3.0398,-3.0398,-3.0398,-3.0667,-3.1929,-3.2583,-3.3218,-3.4507,-3.5161,-3.5493,-3.5493,-3.5493,-3.5493,-3.5493,-3.5815,-3.6084,-3.6084,-3.6411,-3.6699,-3.6699,-3.7046,-3.7315,-3.7315,-3.7719,-3.8142,-3.8565,-3.8792,-3.9306,-4.0266,-4.0874,-4.1191,-4.1191,-4.1191,-4.1191,-4.1191,-4.1191,-4.1191,-4.1191,-4.1973,-4.2402,-4.2402,-4.3262,-4.2793,-4.1035,-4.0605,-4.0215,-3.9844,-3.9844,-4.0098,-4.0527,-4.0527,-4.0781,-4.1191,-4.1191,-4.1191,-4.119,-4.1134,-4.105,-4.0985,-4.0889,-4.0754,-4.06,-3.0447,-3.0639,-3.0664,-3.0718,-3.0739,-3.0762,-3.0879,-3.0898,-3.0898,-3.0898,-3.0898,-3.0898,-3.0898,-3.0898,-3.0898,-3.0898,-3.0898,-3.0898,-3.0898,-3.0898,-3.0898,-3.0898,-3.0898,-3.0898,-3.0898,-3.0898,-3.0898,-3.0898,-3.0898,-3.0898,-3.0898,-3.0898,-3.0898,-3.0898,-3.0898,-3.0898,-3.0898,-3.0781,-3.0723,-3.0722,-3.068,-3.0647,-3.0607,-3.055,-3.0513,-3.0487,-3.0417,-3.0398,-3.0398,-3.0398,-3.0398,-3.0398,-3.0398,-3.0398,-3.0417,-3.0571,-3.0609,-3.0987,-3.2679,-3.3122,-3.3506,-3.5103,-3.5603,-3.5718,-3.5718,-3.5718,-3.5718,-3.5718,-3.6353,-3.693,-3.693,-3.7507,-3.8007,-3.8007,-3.8123,-3.8219,-3.8238,-3.8373,-3.8719,-3.9469,-3.9865,-4.0419,-4.1326,-4.1406,-4.1406,-4.1406,-4.1289,-4.1191,-4.1191,-4.1328,-4.1406,-4.1406,-4.2344,-4.2832,-4.2832,-4.3555,-4.3926,-4.3906,-4.3047,-4.2187,-4.1406,-4.1406,-4.1406,-4.1406,-4.1269,-4.1289,-4.1387,-4.1269,-4.1189,-4.114,-4.1028,-4.0966,-4.0927,-4.0735,-4.06,-4.0489,-3.0582,-3.0747,-3.0854,-3.0877,-3.0867,-3.0879,-3.0898,-3.0898,-3.0898,-3.0898,-3.0898,-3.0898,-3.0898,-3.0898,-3.0898,-3.0898,-3.0898,-3.0898,-3.0898,-3.0898,-3.0898,-3.0898,-3.0898,-3.0898,-3.0898,-3.0898,-3.0898,-3.0898,-3.0898,-3.0898,-3.0898,-3.0898,-3.0898,-3.0898,-3.0898,-3.0898,-3.0898,-3.0879,-3.0879,-3.0879,-3.0858,-3.0794,-3.0678,-3.062,-3.0557,-3.0487,-3.0417,-3.0398,-3.0398,-3.0398,-3.0398,-3.0398,-3.0398,-3.0398,-3.0552,-3.1295,-3.1525,-3.1891,-3.3564,-3.4007,-3.4257,-3.5257,-3.6026,-3.6546,-3.6546,-3.6546,-3.6546,-3.6546,-3.7219,-3.7815,-3.7815,-3.7911,-3.8007,-3.8007,-3.8623,-3.9138,-3.9196,-3.985,-4.0408,-4.0581,-4.1401,-4.2009,-4.2224,-4.2246,-4.2246,-4.2246,-4.1582,-4.1191,-4.1191,-4.1855,-4.2246,-4.2246,-4.3808,-4.4648,-4.4648,-4.4766,-4.4824,-4.4805,-4.3945,-4.3066,-4.2246,-4.2246,-4.2246,-4.2207,-4.1504,-4.1582,-4.2187,-4.1484,-4.1139,-4.1034,-4.1012,-4.0889,-4.0716,-4.0581,-4.0508,-4.0489,-3.049,-3.0671,-3.0752,-3.0772,-3.0789,-3.0808,-3.0897,-3.0898,-3.0898,-3.0898,-3.0898,-3.0898,-3.0898,-3.0898,-3.0898,-3.0898,-3.0898,-3.0898,-3.0898,-3.0898,-3.0898,-3.0898,-3.0898,-3.0898,-3.0898,-3.0898,-3.0898,-3.0898,-3.0898,-3.0898,-3.0898,-3.0898,-3.0898,-3.0898,-3.0898,-3.0898,-3.0898,-3.0898,-3.0898,-3.0898,-3.0898,-3.0856,-3.0807,-3.0707,-3.0616,-3.0544,-3.0448,-3.0398,-3.0398,-3.0398,-3.0398,-3.0398,-3.0398,-3.0398,-3.0571,-3.1448,-3.1698,-3.2064,-3.3737,-3.4199,-3.4526,-3.5853,-3.6449,-3.6834,-3.7315,-3.7796,-3.8007,-3.7526,-3.8123,-3.8719,-3.8719,-3.9084,-3.9411,-3.9488,-3.9831,-4.0119,-4.0158,-4.092,-4.1686,-4.2279,-4.2761,-4.3048,-4.3122,-4.3125,-4.293,-4.2441,-4.2519,-4.2383,-4.1894,-4.2676,-4.3125,-4.3125,-4.3867,-4.4277,-4.4277,-4.4277,-4.4277,-4.4277,-4.4375,-4.3965,-4.3105,-4.2617,-4.2402,-4.2363,-4.1543,-4.1406,-4.1699,-4.1266,-4.1056,-4.0985,-4.087,-4.0735,-4.0581,-4.0508,-4.0489,-4.0489]}]]